[[{"header":{"parameterUnit":"m.s-1","parameterCategory":1,"la1":30.6,"la2":29.2853,"lo1":-89.7004,"lo2":-87.6739,"dy":0.0162,"dx":0.0183,"nx":112,"ny":82,"refTime":"2023-06-25T12:00:00:Z","depth":0,"parameterNumber":2,"parameterNumberName":"U-component_of_WINDS"},"data":[0.0,0.0,0.0,0.0,0.0,0.0,0.0,0.0,0.0,0.0,0.0,0.0,0.0,0.0,0.0,0.0,0.0,0.0,0.0,0.0,0.0,0.0,0.0,0.0,0.0,0.0,0.0,0.0,0.0,0.0,0.0,0.0,0.0,0.0,0.0,0.0,0.0,0.0,0.0,0.0,0.0,0.0,0.0,0.0,0.0,0.0,0.0,0.0,0.0,0.0,0.0,0.0,0.0,0.0,0.0,0.0,0.0,0.0,0.0,0.0,0.0,0.0,0.0,0.0,0.0,0.0,0.0,0.0,0.0,0.0,0.0,0.0,0.0,0.0,0.0,0.0,0.0,0.0,0.0,0.0,0.0,0.0,0.0,0.0,0.0,0.0,0.0,0.0,0.0,0.0,-3.2022,-3.2428,-3.4889,-3.6787,-3.7432,-3.812,-3.6939,-3.3142,0.0,0.0,0.0,0.0,0.0,0.0,0.0,0.0,0.0,0.0,0.0,0.0,0.0,0.0,0.0,0.0,0.0,0.0,0.0,0.0,0.0,0.0,0.0,0.0,0.0,0.0,0.0,0.0,0.0,0.0,0.0,0.0,0.0,0.0,0.0,0.0,0.0,0.0,0.0,0.0,0.0,0.0,0.0,0.0,0.0,0.0,0.0,0.0,0.0,0.0,0.0,0.0,0.0,0.0,0.0,0.0,0.0,0.0,0.0,0.0,0.0,0.0,0.0,0.0,0.0,0.0,0.0,0.0,0.0,0.0,0.0,0.0,0.0,0.0,0.0,0.0,0.0,0.0,0.0,0.0,0.0,0.0,0.0,0.0,0.0,0.0,0.0,0.0,0.0,0.0,0.0,0.0,0.0,0.0,0.0,0.0,0.0,0.0,0.0,0.0,0.0,0.0,0.0,0.0,-3.2825,-3.4273,-3.5413,-3.6251,-3.6928,-3.7146,-3.5952,-3.31,0.0,0.0,0.0,0.0,0.0,0.0,0.0,0.0,0.0,0.0,0.0,0.0,0.0,0.0,0.0,0.0,0.0,0.0,0.0,0.0,0.0,0.0,0.0,0.0,0.0,0.0,0.0,0.0,0.0,0.0,0.0,0.0,0.0,0.0,0.0,0.0,0.0,0.0,0.0,0.0,0.0,0.0,0.0,0.0,0.0,0.0,0.0,0.0,0.0,0.0,0.0,0.0,0.0,0.0,0.0,0.0,0.0,0.0,0.0,0.0,0.0,0.0,0.0,0.0,0.0,0.0,0.0,0.0,0.0,0.0,0.0,0.0,0.0,0.0,0.0,0.0,0.0,0.0,0.0,0.0,0.0,0.0,0.0,0.0,0.0,0.0,0.0,0.0,0.0,0.0,0.0,0.0,0.0,0.0,0.0,0.0,0.0,0.0,0.0,0.0,0.0,0.0,0.0,-3.2645,-3.3509,-3.4787,-3.5881,-3.6537,-3.6556,-3.7278,-3.638,-3.3312,-3.3213,0.0,0.0,0.0,0.0,0.0,0.0,0.0,0.0,0.0,0.0,0.0,0.0,0.0,0.0,0.0,0.0,0.0,0.0,0.0,0.0,0.0,0.0,0.0,0.0,0.0,0.0,0.0,0.0,0.0,0.0,0.0,0.0,0.0,0.0,0.0,0.0,0.0,0.0,0.0,0.0,0.0,0.0,0.0,0.0,0.0,0.0,0.0,0.0,0.0,0.0,0.0,0.0,0.0,0.0,0.0,0.0,0.0,0.0,0.0,0.0,0.0,0.0,0.0,0.0,0.0,0.0,0.0,0.0,0.0,0.0,0.0,0.0,0.0,0.0,0.0,0.0,0.0,0.0,0.0,0.0,0.0,0.0,0.0,0.0,0.0,0.0,0.0,0.0,0.0,0.0,0.0,0.0,0.0,0.0,0.0,0.0,0.0,0.0,0.0,0.0,0.0,0.0,-3.3758,-3.434,-3.4963,-3.6075,-3.6632,-3.6313,-3.7306,-3.6714,-3.3744,-3.352,0.0,0.0,0.0,0.0,0.0,0.0,0.0,0.0,0.0,0.0,0.0,0.0,0.0,0.0,0.0,0.0,0.0,0.0,0.0,0.0,0.0,0.0,0.0,0.0,0.0,0.0,0.0,0.0,0.0,0.0,0.0,0.0,0.0,0.0,0.0,0.0,0.0,0.0,0.0,0.0,0.0,0.0,0.0,0.0,0.0,0.0,0.0,0.0,0.0,0.0,0.0,0.0,0.0,0.0,0.0,0.0,0.0,0.0,0.0,0.0,0.0,0.0,0.0,0.0,0.0,0.0,0.0,0.0,0.0,0.0,0.0,0.0,0.0,0.0,0.0,0.0,0.0,0.0,0.0,0.0,0.0,0.0,0.0,0.0,0.0,0.0,0.0,0.0,0.0,0.0,0.0,0.0,0.0,0.0,0.0,0.0,0.0,0.0,0.0,0.0,0.0,0.0,-3.4352,-3.5175,-3.5424,-3.5534,-3.5884,-3.6432,-3.6567,-3.6,-3.4481,-3.3756,0.0,0.0,0.0,0.0,0.0,0.0,0.0,0.0,0.0,0.0,0.0,0.0,0.0,0.0,0.0,0.0,0.0,0.0,0.0,0.0,0.0,0.0,0.0,0.0,0.0,0.0,0.0,0.0,0.0,0.0,0.0,0.0,0.0,0.0,0.0,0.0,0.0,0.0,0.0,0.0,0.0,0.0,0.0,0.0,0.0,0.0,0.0,0.0,0.0,0.0,0.0,0.0,0.0,0.0,0.0,0.0,0.0,0.0,0.0,0.0,0.0,0.0,0.0,0.0,0.0,0.0,0.0,0.0,0.0,0.0,0.0,0.0,0.0,0.0,0.0,0.0,0.0,0.0,0.0,0.0,0.0,0.0,0.0,0.0,0.0,0.0,0.0,0.0,0.0,0.0,0.0,0.0,0.0,0.0,0.0,0.0,0.0,0.0,0.0,0.0,0.0,0.0,-3.445,-3.5299,0.0,-3.5861,-3.6016,-3.5914,-3.6252,-3.5695,-3.3825,0.0,0.0,0.0,0.0,0.0,0.0,0.0,0.0,0.0,0.0,0.0,0.0,0.0,0.0,0.0,0.0,0.0,0.0,0.0,0.0,0.0,0.0,0.0,0.0,0.0,0.0,0.0,0.0,0.0,0.0,0.0,0.0,0.0,0.0,0.0,0.0,0.0,0.0,0.0,0.0,0.0,0.0,0.0,0.0,0.0,0.0,0.0,0.0,0.0,0.0,0.0,0.0,0.0,0.0,0.0,0.0,0.0,0.0,0.0,0.0,0.0,0.0,0.0,0.0,0.0,0.0,0.0,0.0,0.0,0.0,0.0,0.0,0.0,0.0,0.0,0.0,0.0,0.0,0.0,0.0,0.0,0.0,0.0,0.0,0.0,0.0,0.0,0.0,0.0,0.0,0.0,0.0,0.0,0.0,0.0,0.0,0.0,0.0,0.0,0.0,0.0,0.0,-3.3724,-3.4665,-3.5332,0.0,-3.5846,-3.5973,-3.5569,-3.5923,-3.5406,-3.3659,0.0,0.0,0.0,0.0,0.0,0.0,0.0,0.0,0.0,0.0,0.0,0.0,0.0,0.0,0.0,0.0,0.0,0.0,0.0,0.0,0.0,0.0,0.0,0.0,0.0,0.0,0.0,0.0,0.0,0.0,0.0,0.0,0.0,0.0,0.0,0.0,0.0,0.0,0.0,0.0,0.0,0.0,0.0,0.0,0.0,0.0,0.0,0.0,0.0,0.0,0.0,0.0,0.0,0.0,0.0,0.0,0.0,0.0,0.0,0.0,0.0,0.0,0.0,0.0,0.0,0.0,0.0,0.0,0.0,0.0,0.0,0.0,0.0,0.0,0.0,0.0,0.0,0.0,0.0,0.0,0.0,0.0,0.0,0.0,0.0,0.0,0.0,0.0,0.0,0.0,0.0,0.0,0.0,0.0,0.0,0.0,0.0,0.0,0.0,0.0,0.0,0.0,-3.4397,-3.5085,-3.5504,-3.5504,-3.5504,-3.5504,-3.5504,-3.5504,-3.5133,0.0,0.0,0.0,0.0,0.0,0.0,0.0,0.0,0.0,0.0,0.0,0.0,0.0,0.0,0.0,0.0,0.0,0.0,0.0,0.0,0.0,0.0,0.0,0.0,0.0,0.0,0.0,0.0,0.0,0.0,0.0,0.0,0.0,0.0,0.0,0.0,0.0,0.0,0.0,0.0,0.0,0.0,0.0,0.0,0.0,0.0,0.0,0.0,0.0,0.0,0.0,0.0,0.0,0.0,0.0,0.0,0.0,0.0,0.0,0.0,0.0,0.0,0.0,0.0,0.0,0.0,0.0,0.0,0.0,0.0,0.0,0.0,0.0,0.0,0.0,0.0,0.0,0.0,0.0,0.0,0.0,0.0,0.0,0.0,0.0,0.0,0.0,0.0,0.0,0.0,0.0,0.0,0.0,0.0,0.0,0.0,0.0,0.0,0.0,0.0,0.0,0.0,0.0,-3.4457,-3.5085,-3.5554,-3.5653,-3.5554,-3.5554,-3.5638,-3.5539,-3.4935,-3.363,0.0,0.0,0.0,0.0,0.0,0.0,0.0,0.0,0.0,0.0,0.0,0.0,0.0,0.0,0.0,0.0,0.0,0.0,0.0,0.0,0.0,0.0,0.0,0.0,0.0,0.0,0.0,0.0,0.0,0.0,0.0,0.0,0.0,0.0,0.0,0.0,0.0,0.0,0.0,0.0,0.0,0.0,0.0,0.0,0.0,0.0,0.0,0.0,0.0,0.0,0.0,0.0,0.0,0.0,0.0,0.0,0.0,0.0,0.0,0.0,0.0,0.0,0.0,0.0,0.0,0.0,0.0,0.0,0.0,0.0,0.0,0.0,0.0,0.0,0.0,0.0,0.0,0.0,0.0,0.0,0.0,0.0,0.0,0.0,0.0,0.0,0.0,0.0,0.0,0.0,0.0,0.0,0.0,0.0,0.0,0.0,0.0,0.0,0.0,0.0,0.0,0.0,-3.4943,-3.5299,-3.5554,-3.5589,-3.5794,-3.5944,-3.5979,-3.5944,-3.5385,-3.4139,0.0,0.0,0.0,0.0,0.0,0.0,0.0,0.0,0.0,0.0,0.0,0.0,0.0,0.0,0.0,0.0,0.0,0.0,0.0,0.0,0.0,0.0,0.0,0.0,0.0,0.0,0.0,0.0,0.0,0.0,0.0,0.0,0.0,0.0,0.0,0.0,0.0,0.0,0.0,0.0,0.0,0.0,0.0,0.0,0.0,0.0,0.0,0.0,0.0,0.0,0.0,0.0,0.0,0.0,0.0,0.0,0.0,0.0,0.0,0.0,0.0,0.0,0.0,0.0,0.0,0.0,0.0,0.0,0.0,0.0,0.0,0.0,0.0,0.0,0.0,0.0,0.0,0.0,0.0,0.0,0.0,0.0,0.0,0.0,0.0,0.0,0.0,0.0,0.0,0.0,0.0,0.0,0.0,0.0,0.0,0.0,0.0,0.0,0.0,0.0,0.0,0.0,-3.5612,-3.5604,-3.5534,-3.5579,-3.6133,-3.6507,-3.6633,-3.6567,-3.617,-3.527,0.0,0.0,0.0,0.0,0.0,0.0,0.0,0.0,0.0,0.0,0.0,0.0,0.0,0.0,0.0,0.0,0.0,0.0,0.0,0.0,0.0,0.0,0.0,0.0,0.0,0.0,0.0,0.0,0.0,0.0,0.0,0.0,0.0,0.0,0.0,0.0,0.0,0.0,0.0,0.0,0.0,0.0,0.0,0.0,0.0,0.0,0.0,0.0,0.0,0.0,0.0,0.0,0.0,0.0,0.0,0.0,0.0,0.0,0.0,0.0,-4.8203,0.0,0.0,0.0,0.0,0.0,0.0,0.0,0.0,0.0,0.0,0.0,0.0,0.0,0.0,0.0,0.0,0.0,0.0,0.0,0.0,0.0,0.0,0.0,0.0,0.0,0.0,0.0,0.0,0.0,0.0,0.0,0.0,0.0,0.0,0.0,0.0,0.0,0.0,0.0,0.0,0.0,-3.5672,-3.5604,-3.5764,-3.6406,-3.6469,-3.6753,-3.7398,-3.7293,-3.6394,-3.4512,-3.4157,0.0,0.0,0.0,0.0,0.0,0.0,0.0,0.0,0.0,0.0,0.0,0.0,0.0,0.0,0.0,0.0,0.0,0.0,0.0,0.0,0.0,0.0,0.0,0.0,0.0,0.0,0.0,0.0,0.0,0.0,0.0,0.0,0.0,0.0,0.0,0.0,0.0,0.0,0.0,0.0,0.0,0.0,0.0,0.0,0.0,0.0,0.0,0.0,0.0,0.0,0.0,0.0,0.0,0.0,0.0,0.0,0.0,0.0,0.0,0.0,-4.8545,0.0,0.0,0.0,0.0,0.0,0.0,0.0,0.0,0.0,0.0,0.0,0.0,0.0,0.0,0.0,0.0,0.0,0.0,0.0,0.0,0.0,0.0,0.0,0.0,0.0,0.0,0.0,0.0,0.0,0.0,0.0,0.0,0.0,0.0,0.0,0.0,0.0,0.0,0.0,0.0,-3.614,-3.6084,-3.6289,-3.6985,-3.7278,-3.7455,-3.749,-3.7364,-3.6634,-3.5099,-3.4112,0.0,0.0,0.0,0.0,0.0,0.0,0.0,0.0,0.0,0.0,0.0,0.0,0.0,0.0,0.0,0.0,0.0,0.0,0.0,0.0,0.0,0.0,0.0,0.0,0.0,0.0,0.0,0.0,0.0,0.0,0.0,0.0,0.0,0.0,0.0,0.0,0.0,0.0,0.0,0.0,0.0,0.0,0.0,0.0,0.0,0.0,0.0,0.0,0.0,0.0,0.0,0.0,0.0,-4.9204,-4.9323,-4.9204,-4.9323,-4.9069,-4.8562,-4.9627,-4.961,-4.8849,0.0,0.0,0.0,0.0,0.0,0.0,0.0,0.0,0.0,0.0,0.0,0.0,0.0,0.0,0.0,0.0,0.0,0.0,0.0,0.0,0.0,0.0,0.0,0.0,0.0,-3.8108,-3.8108,0.0,0.0,0.0,0.0,0.0,0.0,0.0,0.0,0.0,0.0,0.0,0.0,-3.6571,-3.6462,-3.6611,-3.7494,-3.7838,-3.7839,-3.7448,-3.7228,-3.671,-3.5753,-3.4231,-3.3206,0.0,0.0,0.0,0.0,0.0,0.0,0.0,0.0,0.0,0.0,0.0,0.0,0.0,0.0,0.0,0.0,0.0,0.0,0.0,0.0,0.0,0.0,0.0,0.0,0.0,0.0,0.0,0.0,0.0,0.0,0.0,0.0,-3.9307,-4.0076,0.0,0.0,0.0,0.0,0.0,0.0,0.0,0.0,0.0,0.0,0.0,0.0,0.0,0.0,-4.6769,-4.747,-4.7909,-4.8088,-4.9999,-5.0574,-4.9965,-5.0625,-5.0879,-5.076,-5.0287,0.0,-4.802,-4.7462,0.0,0.0,0.0,0.0,0.0,0.0,0.0,0.0,0.0,0.0,0.0,0.0,0.0,0.0,0.0,0.0,0.0,0.0,0.0,0.0,0.0,0.0,-4.0157,-4.0711,-4.0861,-4.0861,0.0,-3.9035,-3.7554,-3.8048,0.0,0.0,0.0,0.0,0.0,0.0,0.0,0.0,-3.6571,-3.5946,-3.6128,-3.8053,-3.7055,-3.6735,-3.7939,-3.741,-3.6389,-3.5036,-3.4702,-3.4014,-3.2752,-3.2032,0.0,0.0,0.0,0.0,0.0,0.0,0.0,0.0,0.0,0.0,0.0,0.0,0.0,0.0,0.0,0.0,0.0,0.0,0.0,0.0,0.0,0.0,0.0,0.0,0.0,0.0,0.0,0.0,0.0,-3.9015,-3.9813,-3.9798,-4.0141,-4.0431,0.0,0.0,0.0,0.0,0.0,0.0,0.0,0.0,0.0,-4.6295,-4.7124,-4.7513,-4.7428,-4.8562,-4.8934,-4.8545,-4.9932,-5.0202,-4.9526,-5.0676,-5.098,-5.0591,-5.0676,-5.0355,-4.9746,-4.9424,-4.9171,-4.9018,0.0,0.0,0.0,0.0,0.0,-4.4087,-4.3114,-4.2186,0.0,0.0,0.0,0.0,0.0,0.0,0.0,0.0,0.0,0.0,0.0,0.0,0.0,-4.1309,-4.1384,-4.1474,-4.1848,-4.0726,-3.9514,0.0,-3.8197,-3.7434,-3.706,0.0,0.0,0.0,0.0,-3.6282,-3.6978,-3.6649,-3.6808,-3.8121,-3.7186,-3.6522,-3.6752,-3.6452,-3.5773,-3.4673,-3.4286,-3.3847,-3.3208,-3.2633,-3.1821,0.0,0.0,0.0,0.0,0.0,0.0,0.0,0.0,0.0,0.0,0.0,0.0,0.0,0.0,0.0,0.0,0.0,0.0,0.0,0.0,0.0,0.0,0.0,0.0,0.0,0.0,0.0,0.0,-3.9382,-4.0217,-3.9796,-4.0098,-4.0276,0.0,0.0,0.0,0.0,0.0,0.0,-4.513,-4.5334,-4.5865,-4.6784,-4.7878,-4.8343,-4.8206,-4.9458,-4.9813,-4.9289,-5.0033,-5.0084,-4.961,-5.071,-5.0913,-5.0405,-5.098,-5.1099,-5.093,-5.093,-5.0388,-4.961,-4.9949,-4.9749,-4.9127,-4.8044,-4.6894,-4.573,-4.4676,-4.3565,-4.2501,-4.1701,0.0,-4.0293,-4.0368,0.0,0.0,0.0,0.0,-4.0588,-4.1181,-4.1302,-4.127,-4.1185,-4.1214,-4.1347,-4.1833,-4.142,-4.0716,0.0,-3.923,-3.8437,-3.7778,0.0,0.0,0.0,0.0,-3.6295,-3.6913,-3.6751,-3.6914,-3.78,-3.7049,-3.6356,-3.5967,-3.5872,-3.5568,-3.4926,-3.4332,-3.4031,-3.4031,-3.3313,-3.2239,-3.0793,0.0,0.0,0.0,0.0,0.0,0.0,0.0,0.0,0.0,0.0,0.0,0.0,0.0,0.0,0.0,0.0,0.0,0.0,0.0,0.0,0.0,0.0,0.0,0.0,0.0,0.0,0.0,0.0,0.0,-4.0631,-4.0529,0.0,0.0,0.0,0.0,-4.2202,-4.2537,-4.3256,-4.4543,-4.4642,-4.5294,-4.6742,-4.6841,-4.7604,-4.8951,-4.9712,-5.0067,-5.005,-5.0794,-5.115,-5.1116,-5.1183,-5.12,-5.1166,-5.12,-5.0811,-5.0152,-5.0152,-5.0524,-5.1031,-5.0355,-5.0084,-5.0004,-4.9746,-4.8315,-4.6282,-4.5212,-4.3516,-4.1761,-4.1475,-4.0761,-4.0057,-4.0338,-4.0197,0.0,0.0,-4.0801,-4.1275,-4.1084,-4.0989,-4.0972,-4.0703,-4.0675,-4.0689,-4.0718,-4.0154,-4.0028,0.0,-4.0247,-3.9155,-3.8467,0.0,-3.6214,-3.6214,-3.5524,-3.5222,-3.5916,-3.5278,-3.5384,-3.6824,-3.6021,-3.5645,-3.6428,-3.6194,-3.6105,-3.6018,-3.5508,-3.5208,-3.5208,-3.4136,-3.2581,-3.0563,-2.9879,0.0,0.0,0.0,0.0,0.0,0.0,0.0,0.0,0.0,0.0,0.0,0.0,0.0,0.0,0.0,0.0,0.0,0.0,0.0,0.0,0.0,0.0,0.0,0.0,0.0,0.0,0.0,0.0,-4.0471,-4.0905,0.0,-4.1635,-4.1955,-4.2373,-4.311,-4.3604,-4.4294,-4.5271,-4.5303,-4.5761,-4.6762,-4.7286,-4.7552,-4.7572,-4.8762,-4.9157,-4.869,-4.9927,-5.0236,-4.983,-5.0777,-5.0947,-5.0524,-5.0997,-5.0777,-5.0135,-5.0608,-5.098,-5.1183,-5.093,-5.1051,-5.1226,-5.0142,-4.8858,-4.7453,-4.5982,-4.4387,-4.2771,-4.125,-4.017,-3.9397,-3.9103,-3.917,-3.9202,-3.8903,-3.9254,-3.9801,-3.9696,-3.9672,-3.9648,-3.9532,-3.9506,-3.9506,-3.9506,-3.9337,-3.9162,-3.919,-3.9164,-3.8792,-3.7659,-3.7126,-3.6634,-3.6105,-3.5719,-3.5639,-3.5863,-3.5558,-3.5505,-3.6108,-3.5301,-3.4879,-3.5103,-3.505,-3.5012,-3.5012,-3.4744,-3.4556,-3.4556,-3.3369,-3.2007,-3.0484,-2.9378,-2.7999,0.0,0.0,0.0,0.0,0.0,0.0,0.0,0.0,0.0,0.0,0.0,0.0,0.0,0.0,0.0,0.0,0.0,0.0,0.0,0.0,0.0,0.0,0.0,0.0,0.0,0.0,-4.0487,-4.077,-4.125,-4.1836,-4.2377,-4.2663,-4.3034,-4.3568,-4.399,-4.4538,-4.5308,-4.534,-4.5703,-4.6378,-4.6914,-4.7071,-4.6828,-4.7762,-4.8033,-4.7556,-4.879,-4.911,-4.869,-5.0143,-5.0557,-5.0135,-5.0896,-5.0777,-5.0135,-5.0642,-5.0781,-5.0767,-5.1068,-5.1177,-5.1143,-4.9961,-4.8812,-4.753,-4.5372,-4.3761,-4.2301,-4.05,-3.9346,-3.8552,-3.8241,-3.828,-3.8377,-3.8018,-3.838,-3.8844,-3.8517,-3.8435,-3.8352,-3.802,-3.7937,-3.7937,-3.7937,-3.7937,-3.7758,-3.7167,-3.7915,-3.8267,-3.707,-3.6787,-3.6519,-3.5906,-3.5595,-3.536,-3.536,-3.5331,-3.5358,-3.5559,-3.5178,-3.4972,-3.4972,-3.5155,-3.5195,-3.4901,-3.4268,-3.3909,-3.3824,-3.2475,-3.1211,-3.0045,-2.8586,-2.7172,-2.6093,0.0,0.0,0.0,0.0,0.0,0.0,0.0,0.0,0.0,0.0,0.0,0.0,0.0,0.0,0.0,0.0,0.0,0.0,0.0,0.0,0.0,0.0,0.0,-3.7434,-3.914,-4.0695,-4.1595,-4.152,-4.1942,-4.3167,-4.2574,-4.2541,-4.3556,-4.3602,-4.3879,-4.4541,-4.4572,-4.4933,-4.5624,-4.5697,-4.5985,-4.6742,-4.6742,-4.6742,-4.6742,-4.7489,-4.7885,-4.7983,-4.9379,-5.005,-5.0101,-5.0828,-5.0727,-5.0067,-4.9987,-4.994,-4.9947,-5.0688,-5.0392,-4.9604,-4.9339,-4.8227,-4.6361,-4.3361,-4.1474,-4.0219,-3.9393,-3.8439,-3.7821,-3.7821,-3.7661,-3.7424,-3.7749,-3.8257,-3.8543,-3.7631,-3.7379,-3.7209,-3.6292,-3.6057,-3.6057,-3.6057,-3.6057,-3.59,-3.5365,-3.6633,-3.7545,-3.6915,-3.6201,-3.5669,-3.5669,-3.495,0.0,-3.4397,-3.4397,-3.4633,-3.5234,-3.5757,-3.6083,-3.6083,-3.6606,-3.6609,-3.5745,-3.425,-3.3318,-3.3165,-3.155,-3.0203,-2.9084,-2.7448,-2.601,-2.5039,0.0,0.0,0.0,0.0,0.0,0.0,0.0,0.0,0.0,0.0,0.0,0.0,0.0,0.0,0.0,0.0,0.0,0.0,0.0,0.0,0.0,0.0,-3.6816,-3.7978,-3.902,-4.0113,-4.1325,-4.1596,-4.2198,-4.367,-4.3686,-4.3884,-4.4279,-4.431,-4.4387,-4.4572,-4.4572,-4.4723,-4.4933,-4.4933,-4.5008,-4.52,-4.5769,-4.5969,-4.5985,-4.6742,-4.7355,-4.7885,-4.8296,-4.8815,-4.9306,-4.8952,-4.8935,-4.9056,-4.7918,-4.7935,-4.879,-4.9658,-5.0109,-4.9912,-4.8691,-4.6299,-4.3454,-4.2151,-4.0786,-3.9533,-3.8675,-3.7873,-3.7069,-3.6463,-3.5777,-3.5235,-3.5312,-3.5475,-3.5595,-3.5345,-3.5275,-3.5191,-3.4952,-3.4868,-3.4868,-3.4868,-3.4868,-3.4816,-3.4672,-3.5037,-3.5301,-3.5127,-3.5426,-3.5507,-3.4868,-3.4551,0.0,-3.4397,-3.4397,-3.4633,-3.5234,-3.543,-3.5521,-3.5521,-3.503,-3.4413,-3.3557,-3.2333,-3.1526,-3.1246,-2.9943,-2.8795,-2.7809,-2.6536,-2.5648,0.0,0.0,0.0,0.0,0.0,0.0,0.0,0.0,0.0,0.0,0.0,0.0,0.0,0.0,0.0,0.0,0.0,0.0,0.0,0.0,0.0,0.0,-3.5595,-3.7214,-3.8508,-3.9083,-3.9903,-4.122,-4.152,-4.2198,-4.3696,-4.4065,-4.4281,-4.4435,-4.4572,-4.4572,-4.4572,-4.4572,-4.4572,-4.4572,-4.431,-4.4156,-4.4156,-4.4573,-4.4851,-4.4851,-4.5842,-4.6588,-4.7001,-4.7272,-4.7688,0.0,-4.7622,-4.7572,-4.7787,-4.6864,-4.6795,0.0,0.0,0.0,0.0,0.0,-4.4243,-4.1893,-4.1519,-4.0516,-3.9192,-3.8023,-3.7295,-3.6646,-3.5494,-3.4799,-3.4397,-3.4397,-3.4397,-3.4397,-3.4397,-3.4397,-3.4397,-3.4397,-3.4397,-3.4397,-3.4397,-3.4397,-3.4397,-3.4397,0.0,0.0,-3.4397,-3.4799,-3.495,-3.4481,-3.4397,-3.4397,-3.4397,-3.4397,-3.4724,-3.5401,-3.5492,-3.5583,-3.5729,-3.4603,0.0,0.0,0.0,-2.9886,-2.9154,-2.8527,0.0,0.0,0.0,-2.5321,-2.4193,0.0,0.0,0.0,-2.1748,-2.104,0.0,0.0,0.0,0.0,0.0,0.0,0.0,0.0,0.0,0.0,0.0,0.0,0.0,0.0,0.0,0.0,-3.6678,-3.7856,-3.8855,-3.9265,-3.9873,-4.1115,-4.1265,-4.1865,-4.3449,-4.3726,-4.3974,-4.4281,-4.4435,-4.4587,-4.4587,0.0,0.0,0.0,0.0,-4.3525,-4.3464,-4.3525,-4.3571,-4.3646,-4.4945,-4.5624,-4.5697,-4.6324,-4.6673,-4.6742,-4.6657,-4.6486,-4.632,-4.6205,-4.5985,-4.5823,-4.6592,-4.6318,-4.5368,-4.397,-4.2566,0.0,-4.1294,0.0,0.0,-3.7434,-3.6802,-3.6503,-3.4868,-3.4397,-3.4397,-3.4397,-3.4397,-3.4397,-3.4301,-3.4217,-3.423,-3.4134,-3.405,-3.405,-3.405,-3.405,-3.4037,-3.4037,-3.4089,-3.4043,-3.4043,-3.4256,-3.4397,-3.4397,-3.4397,-3.4397,-3.4397,-3.4397,-3.466,-3.5414,0.0,0.0,-3.5747,-3.4475,-3.3229,-3.2449,-3.0239,-2.8445,-2.7357,-2.7167,-2.6668,-2.5693,-2.5749,-2.4821,-2.2894,-2.3139,-2.2249,-2.0524,-2.1256,-2.0897,0.0,0.0,0.0,0.0,0.0,0.0,0.0,0.0,0.0,0.0,0.0,0.0,0.0,0.0,0.0,-3.5574,-3.6446,-3.7199,-3.8429,-3.8958,-3.9548,-4.0502,-4.0591,-4.119,-4.2756,-4.2968,-4.3257,-4.402,-4.4205,-4.4358,-4.4358,-4.4511,0.0,-4.3787,-4.3633,-4.3325,-4.2802,-4.331,-4.3571,-4.3571,0.0,0.0,-4.5478,-4.5624,-4.5881,-4.626,-4.5665,-4.5333,-4.5164,-4.4505,-4.4417,-4.4698,-4.6065,-4.5769,-4.4493,-4.4188,-4.2955,-4.1309,-4.0771,-3.9609,-3.8263,-3.7204,-3.6425,-3.5736,-3.4716,-3.4397,0.0,-3.4397,-3.4397,-3.423,-3.3433,-3.325,-3.3079,-3.2277,-3.2103,-3.2103,-3.2103,-3.2016,-3.184,-3.184,-3.1978,-3.2088,-3.2088,-3.3356,-3.4397,-3.4397,-3.4397,-3.4314,-3.416,-3.416,-3.4067,-3.3745,-3.3719,-3.3399,-3.2659,-3.1657,-3.065,-2.9896,-2.8499,-2.7536,-2.7357,-2.6476,-2.5887,-2.5693,-2.408,-2.3024,-2.2629,-2.1163,-2.0277,-1.9874,-2.0529,-1.9828,0.0,0.0,0.0,0.0,0.0,0.0,0.0,0.0,0.0,0.0,0.0,-3.056,0.0,0.0,-3.4245,-3.5937,-3.6895,-3.7638,-3.8428,-3.8723,-3.9254,-4.0159,-4.0323,-4.086,-4.1941,-4.2107,-4.2395,-4.2803,-4.3062,-4.3137,-4.3137,-4.3273,-4.3135,-4.2784,-4.2447,-4.2199,-4.1935,-4.2184,-4.2521,-4.2932,-4.3531,-4.3913,-4.4183,-4.4183,-4.413,-4.4081,-4.4028,-4.3766,-4.3293,-4.3092,-4.3139,-4.3513,-4.4875,-4.47,-4.3698,-4.2938,-4.1691,-4.0182,-3.9386,-3.8467,-3.7386,-3.6596,-3.6056,-3.5507,-3.4634,-3.4397,-3.4314,-3.3869,-3.3687,-3.3518,-3.255,-3.2277,-3.219,-3.1753,-3.1488,-3.14,-3.14,-3.1211,-3.1021,-3.1021,-3.1243,-3.1504,-3.1504,-3.2285,-3.2921,-3.2921,-3.2785,-3.2513,-3.2438,-3.2438,-3.2386,-3.2298,-3.2268,-3.2103,-3.1809,-3.0586,-2.9415,-2.829,-2.762,-2.7061,-2.6476,-2.5984,-2.5197,-2.4106,-2.3195,-2.2494,-2.1998,-2.0814,-1.9946,-1.9534,-1.941,-1.8653,0.0,0.0,0.0,0.0,0.0,0.0,0.0,0.0,-2.8417,-3.0423,-3.0726,-3.1172,-3.3199,-3.4293,-3.5218,-3.6302,-3.736,-3.8103,-3.8266,-3.8576,-3.8944,-3.958,-3.9965,-4.0472,-4.113,-4.1325,-4.1535,-4.1656,-4.1835,-4.191,-4.191,-4.1999,-4.1938,-4.1802,-4.1286,-4.1009,-4.1015,-4.1009,-4.1343,-4.2023,-4.2408,-4.2667,-4.2713,-4.2576,-4.2304,-4.194,-4.2349,-4.2213,-4.1626,-4.188,-4.2058,-4.2267,-4.3155,-4.3076,-4.2387,-4.1427,-4.0191,-3.8765,-3.8025,-3.7251,-3.6582,-3.5896,-3.5588,-3.5264,-3.4371,-3.4134,-3.3953,-3.2895,-3.2636,-3.2451,-3.1388,-3.1211,-3.1134,-3.0944,-3.0777,-3.0598,-3.0598,-3.0395,-3.0203,-3.0203,-3.0514,-3.08,-3.0903,-3.0915,-3.1066,-3.1424,-3.1058,-3.0819,-3.073,-3.073,-3.0726,-3.079,-3.0836,-3.0823,-3.0868,-2.9796,-2.8582,-2.7378,-2.7061,-2.6572,-2.5693,-2.5294,-2.4304,-2.2526,-2.2605,-2.2042,-2.1031,-2.0544,-1.9802,-1.883,-1.7838,-1.7072,-1.6521,-1.8346,-2.0072,-2.0492,-2.2425,-2.4646,0.0,0.0,-2.849,-3.0367,-3.0592,-3.1136,-3.3111,-3.3676,-3.4545,-3.6852,-3.7317,-3.7404,-3.7404,-3.8105,-3.8399,-3.7916,-3.8882,-3.9783,-4.0442,-4.0502,-4.0815,-4.1415,-4.1596,-4.1745,-4.1745,-4.191,-4.1726,-4.1134,-4.1043,-4.0709,-4.0117,-4.0709,-4.1043,-4.1119,-4.1237,-4.141,-4.1836,-4.1247,-4.1114,-4.143,-4.092,-4.098,-4.1415,-4.0831,-4.0965,-4.1428,-4.0808,-4.0144,-3.9707,-4.0691,-3.9794,-3.7924,-3.7267,-3.648,-3.5816,-3.5749,-3.5196,-3.4384,-3.342,-3.3164,-3.2895,-3.1753,-3.1388,-3.1122,-2.9943,-2.9681,-2.9418,-2.862,-2.8351,-2.8351,-2.8351,-2.8175,-2.7987,-2.7987,-2.8169,-2.8429,-2.8838,-2.8911,-2.9526,-3.1205,-3.1058,-3.073,-3.0574,-3.0485,-3.0158,-2.9068,-2.8987,-2.8636,-2.7862,-2.7641,-2.7504,-2.7262,-2.638,-2.579,-2.5693,-2.3908,-2.2728,-2.2526,-2.1563,-2.0767,-1.9836,-1.9031,-1.8204,-1.7351,-1.5534,-1.4761,-1.6969,-1.8236,-1.9606,0.0,-2.2742,-2.4292,-2.6239,-2.6903,-2.7951,-3.0929,-3.1121,-3.1382,-3.3639,-3.4292,-3.4885,0.0,-3.6991,-3.7411,-3.7287,-3.7667,-3.7857,-3.7594,-3.8176,-3.8822,-3.9607,-3.9667,-3.9786,-4.0217,-4.0306,-4.0379,-4.0379,-4.0452,-4.0332,-4.0061,-4.0046,-3.9802,-3.9279,-3.9395,-3.9727,-4.0262,-3.9696,-3.979,-4.0364,-4.0094,-4.0051,-4.0202,-3.9529,-3.9394,-3.9619,-3.8884,-3.8944,-3.9501,-3.9024,-3.838,-3.776,-3.8345,-3.7738,-3.6479,-3.5737,-3.5251,-3.4868,-3.4152,-3.3649,-3.3152,-3.2079,-3.1716,-3.1541,-3.0485,-3.0135,-2.9954,-2.8877,-2.8609,-2.8527,-2.8081,-2.7904,-2.7809,-2.7809,-2.7631,-2.7452,-2.7452,-2.7928,-2.839,-2.8587,-2.8835,-2.9231,-3.0079,-2.9587,-2.9095,-2.9012,-2.8773,-2.8434,-2.7904,-2.7904,-2.7726,-2.7357,-2.6764,-2.638,-2.638,-2.5382,-2.4492,-2.3908,-2.302,-2.2232,-2.1623,-2.0712,-1.999,-1.968,-1.8311,-1.7569,-1.7147,-1.5125,-1.3888,-1.6797,-1.7831,0.0,-2.1608,-2.3057,-2.4292,-2.6122,-2.6729,-2.7775,-3.0973,-3.1201,-3.1468,-3.3574,-3.4339,-3.4927,-3.5478,-3.6436,-3.7028,-3.6865,-3.7245,-3.7434,-3.7244,-3.7696,-3.8164,-3.8662,-3.8928,-3.9177,-3.9352,-3.9424,-3.9424,-3.9424,-3.9424,-3.9424,-3.9424,-3.9424,-3.9257,-3.8918,-3.8567,-3.8702,-3.9324,-3.8507,-3.8377,-3.8871,-3.8871,-3.8871,-3.8841,-3.8332,-3.7983,-3.7757,-3.7243,-3.7157,-3.7336,-3.7155,-3.6695,-3.6198,-3.6033,-3.5735,-3.5277,-3.4634,-3.4217,-3.3771,-3.2895,-3.2352,-3.1904,-3.073,-3.0371,-3.0191,-2.9223,-2.8877,-2.8691,-2.7987,-2.761,-2.7326,-2.7326,-2.703,-2.6648,-2.6648,-2.6552,-2.6466,-2.6466,-2.6881,-2.7352,-2.7583,-2.7874,-2.8126,-2.8247,-2.7613,-2.7269,-2.7992,-2.7717,-2.7396,-2.7272,-2.7061,-2.687,-2.687,-2.5877,-2.5294,-2.5294,-2.4295,-2.3302,-2.2526,-2.2224,-2.1623,-2.0609,-1.999,-1.9465,-1.9042,-1.7779,-1.6935,-1.6293,-1.4583,-1.3073,-1.5162,-1.663,-1.8345,-2.0223,-2.263,-2.4869,-2.6389,-2.7341,-2.8382,-2.9989,-3.0399,-3.0968,-3.2382,-3.326,-3.4085,-3.4938,-3.5534,-3.5796,-3.5739,-3.6663,-3.707,-3.6417,-3.7433,-3.8015,0.0,-3.8516,-3.9177,-3.9352,-3.9424,-3.9424,-3.9424,-3.9424,-3.9424,-3.9424,-3.9424,-3.9409,-3.9394,-3.8721,-3.8407,-3.8407,-3.7749,-3.7449,-3.7464,-3.7464,-3.7464,-3.7464,-3.7449,-3.7005,-3.6357,-3.6357,-3.5913,-3.524,-3.4972,-3.492,-3.483,-3.438,-3.4256,-3.4481,-3.4397,-3.3602,-3.2624,-3.2624,-3.1804,-3.0641,-2.9761,-2.9407,-2.9223,-2.7987,-2.7631,-2.7631,-2.7357,-2.6572,-2.579,-2.579,-2.4992,-2.4187,-2.4187,-2.4187,-2.4187,-2.4187,-2.4205,-2.4352,-2.4849,-2.4932,-2.5071,-2.5581,-2.5173,-2.5752,-2.8225,-2.8183,-2.7738,-2.7303,-2.638,-2.579,-2.579,-2.4796,-2.4187,-2.4187,-2.3111,-2.2526,-2.2526,-2.1522,-2.0609,-1.9783,-1.968,-1.8938,-1.7252,-1.7252,-1.6187,-1.4277,-1.3073,-1.1869,-1.5036,-1.6615,-1.8164,-2.0298,-2.2451,-2.4358,-2.5625,-2.6512,-2.7647,-2.9797,-2.9833,-3.0101,-3.235,-3.3037,-3.349,-3.4053,-3.5829,-3.6802,-3.5926,-3.7284,-3.8176,-3.7585,-3.8225,0.0,0.0,0.0,0.0,-3.8609,-3.8481,-3.8674,-3.9394,-3.9265,-3.9265,-3.9424,-3.8975,-3.8527,-3.8093,-3.7449,-3.7135,-3.7135,-3.6911,-3.6791,-3.6791,-3.6791,-3.6791,-3.6791,-3.6791,-3.602,-3.4744,-3.4242,-3.4005,-3.3801,-3.3199,-3.343,-3.4027,-3.3901,-3.3894,-3.3882,-3.3177,-3.2735,-3.2202,-3.0765,-2.9966,-2.9418,-2.8341,-2.7977,-2.7893,-2.7536,-2.7452,-2.7251,-2.6476,-2.5984,-2.5489,-2.4796,-2.4393,-2.4088,-2.4088,-2.4088,-2.4088,-2.4088,-2.4308,-2.4638,-2.4776,-2.5255,-2.566,-2.5693,-2.5362,-2.5358,-2.5838,-2.5796,-2.5653,-2.5509,-2.4956,-2.459,-2.459,-2.3701,-2.302,-2.302,-2.2021,-2.1216,-2.0696,-2.03,-1.9672,-1.884,-1.8311,-1.7779,-1.7252,-1.5873,-1.4804,-1.4164,-1.1415,-0.9881,-1.4662,-1.6184,-1.7658,-1.9738,-2.1646,-2.3322,-2.4681,-2.5505,-2.6595,-2.879,-2.8872,-2.9202,-3.1553,-3.2388,-3.29,-3.3427,-3.5145,-3.6228,-3.584,-3.6928,-3.7833,-3.7933,-3.8521,-3.8835,0.0,0.0,0.0,-3.8008,-3.8157,-3.8337,-3.8493,-3.8406,-3.8406,-3.8493,-3.8132,-3.7784,-3.7351,-3.6806,-3.6596,-3.6806,-3.6276,-3.6305,-3.6738,-3.6194,-3.577,-3.5554,-3.5837,-3.4869,-3.3115,-3.2918,-3.2717,-3.2411,-3.1991,-3.2329,-3.3136,-3.304,-3.2777,-3.2478,-3.2352,-3.2028,-3.14,-2.9624,-2.8806,-2.8351,-2.7536,-2.7262,-2.7262,-2.7262,-2.7061,-2.6572,-2.5887,-2.5099,-2.4402,-2.3701,-2.3203,-2.3003,-2.3003,-2.3003,-2.3003,-2.3003,-2.3318,-2.358,-2.358,-2.4105,-2.4534,-2.4428,-2.421,-2.4227,-2.4545,-2.472,-2.4701,-2.4409,-2.3854,-2.3502,-2.3502,-2.2308,-2.1505,-2.1505,-2.0593,-1.9776,-1.9257,-1.9257,-1.884,-1.7996,-1.7035,-1.6393,-1.608,-1.4369,-1.3176,-1.229,-0.9983,-0.8449,-1.4041,-1.5445,-1.6699,-1.8608,-2.0287,-2.1826,-2.3533,-2.4341,-2.5273,-2.7059,-2.762,-2.8344,0.0,0.0,-3.2291,-3.2954,-3.362,-3.4436,-3.5554,-3.5834,-3.6325,0.0,0.0,0.0,0.0,0.0,0.0,-3.7684,0.0,-3.8133,-3.7039,-3.688,-3.6866,-3.6936,-3.706,-3.7114,-3.7114,-3.6679,-3.6731,-3.7231,-3.5859,-3.5867,-3.7025,-3.5562,-3.4505,-3.3865,-3.4572,-3.3575,-3.1502,-3.2331,-3.2024,-3.1201,-3.1201,-3.1573,-3.2005,-3.1818,-3.121,-3.0577,-3.1687,-3.1316,-3.0145,-2.9271,-2.8193,-2.7189,-2.722,-2.722,-2.7231,-2.7251,-2.6476,-2.5693,-2.5596,-2.4016,-2.2526,-2.2426,-2.1623,-2.0925,-2.0925,-2.0925,-2.0925,-2.0925,-2.1091,-2.1328,-2.136,-2.162,-2.1834,-2.1866,-2.1858,-2.2462,-2.4266,-2.4845,-2.4772,-2.3999,-2.292,-2.2325,-2.2325,-2.0696,-1.968,-1.968,-1.884,-1.8422,-1.8318,-1.8318,-1.7891,-1.7041,-1.5849,-1.4894,-1.4056,-1.2852,-1.1093,-0.8886,-0.8666,-0.7456,-1.3283,-1.5029,-1.6305,-1.7318,-1.9143,-2.0734,-2.1175,-2.2369,-2.384,-2.552,-2.6328,-2.7372,0.0,0.0,0.0,-3.3,-3.5088,0.0,-3.6582,-3.7948,0.0,-3.831,0.0,-3.9495,-3.8185,-3.8769,0.0,0.0,-3.682,-3.7035,-3.7573,-3.7005,-3.674,-3.6866,-3.6463,-3.6212,-3.6212,-3.5644,-3.5407,-3.554,-3.5163,-3.5178,-3.5473,-3.5082,-3.4505,-3.3796,-3.4002,-3.2989,-3.1254,-3.1489,-3.1261,-3.0767,-3.0767,-3.1095,-3.1562,-3.1562,-3.0964,-3.0145,-2.973,-2.8935,-2.7977,-2.7024,-2.649,-2.6289,-2.6641,-2.6744,-2.6723,-2.6184,-2.5887,-2.5304,-2.3719,-2.292,-2.2325,-2.1522,-2.1121,-2.0925,-2.0925,-2.0925,-2.0925,-2.0925,-2.048,-2.0279,-2.0772,-2.0167,-1.9895,-2.0376,-2.0252,-2.0715,-2.2454,-2.1973,-2.1375,-2.1194,-2.0112,-1.945,-1.945,-1.9042,-1.8736,-1.8736,-1.8527,-1.8101,-1.7569,-1.6599,-1.5749,-1.5018,-1.3819,-1.3063,-1.2852,-1.0757,-0.9439,-0.8886,-0.6239,-0.4578,-1.2717,-1.4345,-1.5524,-1.6082,-1.779,-1.9512,-2.0345,-2.1457,-2.2828,-2.4859,-2.5726,0.0,-2.8679,-3.065,0.0,0.0,0.0,0.0,-3.6639,-3.7501,-3.8123,0.0,-3.8902,0.0,-3.8023,-3.8623,-3.8446,0.0,-3.661,-3.6585,-3.6709,-3.6025,-3.5696,-3.582,-3.5536,-3.5413,-3.5465,-3.5112,-3.5082,-3.5347,-3.5016,-3.4963,-3.5228,-3.4501,-3.3713,-3.3073,0.0,-3.2132,-3.062,-3.0895,-3.088,-3.0595,-3.0357,-3.0583,-3.1022,-3.0771,-2.9854,-2.8751,-2.8156,-2.7142,-2.603,-2.593,-2.5875,-2.5927,-2.6185,-2.5982,-2.5571,-2.5248,-2.4679,-2.3849,-2.2568,-2.2005,-2.1623,-2.1019,-2.0925,-2.0925,-2.0925,-2.0925,-2.0862,-2.0604,-1.9882,-1.951,-2.0019,-1.9621,-1.9294,-1.9646,-1.9435,-1.9556,-2.0527,-2.0056,-1.9575,-1.9444,-1.8843,-1.8422,-1.8422,-1.8101,-1.7891,-1.7891,-1.7041,-1.6399,-1.5867,-1.4674,-1.3922,-1.3398,-1.22,-1.1428,-1.087,-0.9006,-0.7601,-0.6529,-0.4743,-0.3523,-1.2553,-1.3724,-1.4797,-1.5227,-1.6569,-1.8246,-1.9906,-2.0797,-2.1929,-2.4404,0.0,-2.607,-2.7864,-3.0038,-3.1698,-3.2106,0.0,-3.5374,-3.6415,-3.614,-3.628,-3.7403,-3.7873,-3.7853,-3.7131,-3.7755,-3.7856,-3.688,-3.691,-3.6431,-3.5296,-3.4779,-3.4481,-3.4414,-3.4563,-3.4698,-3.4802,-3.4802,-3.5148,-3.5692,-3.5014,-3.4908,-3.535,-3.3831,-3.272,-3.1928,0.0,0.0,-2.9869,-3.0482,-3.0625,-3.0457,-2.998,-3.008,-3.0444,-2.9799,-2.8542,-2.7069,-2.6987,-2.5841,-2.4664,-2.5451,-2.5699,-2.5709,-2.5771,-2.5149,-2.4418,-2.4283,-2.3143,-2.1893,-2.1846,-2.1311,-2.0861,-2.0909,-2.0814,-2.0719,-2.0719,-2.0609,-2.0496,-2.0053,-1.9234,-1.8791,-1.922,-1.9125,-1.9002,-1.8824,-1.8591,-1.8292,-1.803,-1.8358,-1.8589,-1.8233,-1.7996,-1.7891,-1.7891,-1.7035,-1.6605,-1.6605,-1.4905,-1.3948,-1.3948,-1.2861,-1.2209,-1.2205,-1.1008,-0.9908,-0.8903,-0.7496,-0.5877,-0.3786,-0.3565,-0.2669,-1.3118,-1.4062,-1.4831,-1.5467,-1.6322,-1.7082,-1.7775,-1.8806,0.0,0.0,-2.4061,-2.5355,-2.7301,-2.8986,-3.0717,-3.253,-3.3659,-3.503,-3.7036,-3.7256,-3.7075,0.0,-3.7017,-3.6935,-3.644,0.0,0.0,0.0,0.0,-3.5893,-3.5375,-3.5148,-3.4854,-3.4414,-3.4414,-3.4481,-3.4481,-3.4481,-3.454,-3.4641,-3.454,-3.4171,-3.3592,-3.3339,-3.242,-3.1119,-3.1119,0.0,-2.9792,-2.9934,-2.9984,-2.993,-2.9829,-2.9854,-2.9839,-2.8998,-2.8051,-2.6987,-2.6318,-2.5348,-2.4571,-2.4716,-2.4767,-2.485,-2.5223,-2.4694,-2.3835,-2.3345,-2.2375,-2.1462,-2.0801,-2.0532,-2.0559,-2.0853,-2.0403,-1.9887,-1.9887,-1.9361,-1.8855,-1.8702,-1.8071,-1.7629,-1.7833,-1.7143,-1.6306,-1.5534,-1.5297,-1.4746,-1.3676,-1.5809,-1.7516,-1.7364,-1.5873,-1.4917,-1.4917,-1.3927,-1.3275,-1.3275,-1.296,-1.2635,-1.2417,-1.18,-1.1384,-1.105,-0.9865,-0.9102,-0.8876,-0.6709,-0.5498,-0.4942,-0.1279,0.0704,-1.3476,-1.4398,-1.5318,-1.565,-1.6237,-1.696,-1.7908,0.0,0.0,0.0,-2.4034,-2.5074,-2.7139,-2.9021,0.0,-3.179,-3.3543,-3.5138,-3.6291,-3.6753,0.0,-3.6647,-3.6459,-3.6282,0.0,0.0,0.0,0.0,0.0,-3.5383,-3.5636,-3.5082,-3.4668,-3.4414,-3.4414,-3.4414,-3.4414,-3.4414,-3.4414,-3.4414,-3.4414,-3.3977,-3.3213,-3.2791,-3.1988,-3.0895,-3.0482,0.0,-2.9792,-2.9792,-2.9792,-2.9792,-2.9792,-2.9792,-2.9702,-2.8791,-2.7891,-2.6987,-2.6069,-2.5263,-2.454,-2.454,-2.454,-2.4495,-2.4809,-2.3879,-2.2645,-2.239,-2.141,-2.0309,-2.0014,-1.9987,-2.0162,-2.0329,-1.9899,-1.9463,-1.9642,-1.8729,-1.7786,-1.7786,-1.7153,-1.6562,-1.6706,-1.6297,-1.5606,-1.4538,-1.4331,-1.3847,-1.254,-1.3706,-1.4674,-1.4674,-1.3825,-1.329,-1.329,-1.2635,-1.2432,-1.3019,-1.2023,-1.1704,-1.2183,-1.0524,-0.8954,-0.7482,-0.694,-0.6616,-0.6621,-0.4093,-0.2417,-0.151,0.0708,0.2269,-1.3802,-1.465,-1.5567,-1.5816,-1.6402,-1.7179,-1.843,-1.8844,0.0,-2.3456,-2.4178,-2.4847,-2.718,-2.9029,-3.0468,0.0,-3.3045,-3.4851,-3.563,-3.6091,-3.6446,0.0,-3.6273,0.0,-3.572,0.0,0.0,0.0,0.0,0.0,-3.5316,-3.4493,-3.4008,-3.4008,-3.4138,-3.4211,-3.4211,-3.4356,-3.4414,-3.4414,-3.4283,-3.3765,-3.2932,-3.2239,-3.1456,-3.062,-3.0075,0.0,0.0,-2.9741,-2.9716,-2.9616,-2.9741,-2.9792,-2.9702,-2.8633,-2.7718,-2.6987,-2.5913,-2.5105,-2.454,-2.454,-2.454,-2.454,-2.454,-2.3202,-2.1695,-2.1695,-2.0489,-1.9272,-1.9352,-1.9566,-1.9676,-1.9455,-1.9079,-1.873,-1.8686,-1.7748,-1.6852,-1.6852,-1.6374,-1.5891,-1.5891,-1.5891,-1.5458,-1.4056,-1.3883,-1.3345,-1.1878,-1.1691,-1.17,-1.166,-1.1873,-1.2096,-1.2105,-1.1669,-1.1691,-1.2402,-1.05,-0.9732,-1.0663,-0.9102,-0.7187,-0.5148,-0.4027,-0.3018,-0.2012,0.0228,0.1971,0.3297,0.3233,0.4011,-1.4239,-1.4734,-1.5068,-1.6319,-1.6984,-1.7523,-1.8152,0.0,-1.9919,-2.3001,-2.3749,-2.4661,-2.7301,-2.8457,0.0,0.0,0.0,-3.3412,-3.6061,-3.6029,-3.6259,-3.7435,0.0,0.0,0.0,0.0,0.0,0.0,0.0,0.0,-3.3526,-3.2991,-3.2687,-3.2687,-3.3253,-3.3558,-3.3558,-3.4124,-3.4414,-3.4399,-3.3819,-3.3064,-3.2205,-3.1517,-3.0731,-2.9934,-2.9869,0.0,0.0,-2.9578,-2.9478,-2.9063,-2.9591,-2.9792,-2.9624,-2.7891,-2.7151,-2.6823,-2.5189,-2.454,-2.454,-2.454,-2.454,-2.454,-2.454,-2.3202,-2.1695,-2.1695,-2.0292,-1.8955,-1.9288,-1.9391,-1.9104,-1.8028,-1.7725,-1.7248,-1.5878,-1.5573,-1.5634,-1.5634,-1.5834,-1.5891,-1.5891,-1.5891,-1.5131,-1.2852,-1.2693,-1.1859,-0.9503,-0.9384,-0.9416,-0.9282,-1.0241,-1.1017,-1.1388,-1.0071,-0.8967,-0.8533,-0.6379,-0.514,-0.5252,-0.753,-0.8227,-0.698,-0.269,0.1793,0.6072,0.6852,0.7199,0.733,0.7412,0.7391,-1.5471,-1.5982,-1.6484,-1.6976,-1.7229,-1.7675,-1.8546,0.0,-2.0327,-2.3112,-2.405,-2.5103,-2.7353,-2.8826,-2.9884,0.0,0.0,0.0,-3.521,-3.531,-3.5711,-3.711,-3.5873,0.0,0.0,0.0,0.0,0.0,0.0,0.0,-3.1689,-3.2203,-3.2513,-3.2513,-3.2759,-3.2904,-3.2904,-3.3151,-3.3282,-3.3267,-3.26,-3.1853,-3.1002,-3.0294,-2.9548,-2.8775,-2.8775,0.0,0.0,-2.8687,-2.8649,-2.8448,-2.8687,-2.8648,-2.8293,-2.7091,-2.6481,-2.6152,-2.4946,-2.454,-2.454,-2.454,-2.454,-2.454,-2.454,-2.3202,-2.1695,-2.1695,-2.0257,-1.8859,-1.9002,-1.9042,-1.8848,-1.8119,-1.7512,-1.698,-1.6066,-1.5593,-1.5264,-1.5264,-1.5475,-1.544,-1.479,-1.4815,-1.4051,-1.1764,-1.1278,-1.0532,-0.8826,-0.8536,-0.8441,-0.8383,-0.8481,-0.8927,-0.9743,-0.8177,-0.7519,-0.8447,-0.6969,-0.4821,-0.1903,-0.2913,-0.3365,-0.2917,0.1905,0.5282,0.7209,0.7555,0.7668,0.7671,0.7898,0.7883,-1.621,-1.6806,-1.7302,-1.7554,-1.7789,-1.832,0.0,0.0,-2.1167,-2.3764,-2.4676,-2.5528,-2.7367,-2.8865,-2.976,0.0,0.0,-3.3382,-3.4581,-3.4722,-3.5248,0.0,0.0,0.0,0.0,0.0,0.0,0.0,0.0,0.0,0.0,-3.1453,-3.1946,-3.1946,-3.2121,-3.2222,-3.2222,-3.2425,-3.2513,-3.2513,-3.1653,-3.0901,-3.0241,-2.9389,-2.864,-2.8109,0.0,0.0,0.0,-2.8034,-2.8009,-2.7871,-2.8047,-2.7792,-2.7263,-2.6572,-2.5979,-2.5478,-2.4734,-2.454,-2.454,-2.454,-2.454,-2.454,-2.454,-2.3202,-2.1695,-2.1695,-2.0257,-1.8827,-1.8827,-1.8827,-1.8613,-1.7896,-1.7177,-1.647,-1.571,-1.5026,-1.4583,-1.4583,-1.475,-1.4653,-1.3583,-1.3565,-1.3048,-1.0707,-1.0198,-0.9669,-0.8426,-0.8128,-0.8048,-0.8051,-0.7268,-0.7049,-0.7844,-0.7287,-0.6735,-0.6293,-0.5506,-0.359,-0.0112,-0.0,0.0673,0.213,0.5506,0.7206,0.7201,0.7426,0.7532,0.7535,0.8242,0.8717,-1.615,-1.6678,-1.7123,-1.7789,-1.8816,-1.9722,0.0,-2.1219,-2.2606,-2.4946,-2.5361,-2.5826,-2.716,-2.8194,-2.881,-2.8822,-3.0153,0.0,-3.4556,-3.4413,-3.4886,0.0,0.0,0.0,0.0,0.0,0.0,0.0,0.0,0.0,0.0,-3.0582,-3.0597,-3.0597,-3.1206,-3.1526,-3.1526,-3.2193,-3.2513,-3.2513,-3.1119,-3.0405,-3.0214,-2.8953,-2.8254,0.0,0.0,0.0,0.0,-2.7883,-2.7783,-2.7344,-2.7896,-2.7631,-2.6836,-2.6433,-2.5846,-2.5126,-2.4618,-2.454,-2.454,-2.454,-2.454,-2.454,-2.454,-2.3202,-2.1695,-2.1695,-2.0257,-1.8827,-1.8827,-1.8827,-1.845,-1.6965,-1.6197,-1.5425,-1.3829,-1.3346,-1.3214,-1.3214,-1.3605,-1.3604,-1.273,-1.27,-1.2126,-0.9892,-0.9689,-0.93,-0.8075,-0.7962,-0.8051,-0.8288,-0.6943,-0.5822,-0.5483,-0.7533,-0.6408,-0.0448,-0.0112,-0.0,-0.0,-0.0,0.2243,0.6982,0.7209,0.7201,0.7184,0.7418,0.7529,0.7524,0.9071,1.0407,-1.8118,-1.8849,-1.9474,-1.965,-2.0411,-2.1212,-2.1743,-2.2342,-2.3356,-2.5019,-2.6108,-2.7058,-2.8136,-2.9387,-3.0215,-3.0001,-3.1114,0.0,0.0,0.0,0.0,-3.6474,0.0,0.0,0.0,0.0,0.0,0.0,0.0,0.0,0.0,-3.0642,-3.0568,-3.0568,-3.0771,-3.0872,-3.0872,-3.109,-3.0993,-3.0543,-2.9609,-2.8885,-2.8358,-2.7443,0.0,0.0,0.0,0.0,0.0,-2.6917,-2.6879,-2.6741,-2.6328,-2.5864,-2.5391,-2.506,-2.4686,-2.4335,-2.447,-2.454,-2.454,-2.454,-2.454,-2.454,-2.454,-2.3202,-2.1427,-2.0085,-1.9271,-1.8735,-1.8658,-1.8566,-1.828,-1.7138,-1.6177,-1.5222,-1.4292,-1.3499,-1.297,-1.297,-1.2715,-1.2292,-1.1169,-1.0702,-0.9965,-0.8557,-0.8165,-0.7889,-0.7621,-0.7448,-0.7405,-0.7504,-0.5599,-0.5266,-0.7647,-0.5502,-0.2915,-0.0224,-0.0,0.1458,0.4828,0.4942,0.4826,0.4707,0.6398,0.7187,0.7182,0.7328,0.7942,0.894,0.9476,1.1012,0.0,-2.0678,-2.1181,-2.1181,-2.179,0.0,0.0,-2.3262,-2.3895,-2.5234,-2.6481,-2.7608,-2.8302,-2.9638,-3.0549,-3.0322,-3.1091,0.0,0.0,0.0,0.0,0.0,0.0,0.0,0.0,0.0,0.0,0.0,0.0,0.0,0.0,-3.0821,-3.0762,-3.0702,-3.0642,-3.0568,-3.0568,-3.0568,-3.0251,-2.9623,-2.8826,-2.8182,-2.7484,-2.6782,0.0,0.0,0.0,0.0,0.0,-2.6533,-2.6533,-2.6383,-2.5594,-2.4991,-2.4522,-2.4371,-2.4047,-2.3701,-2.4333,-2.454,-2.4454,-2.4368,-2.4282,-2.4069,-2.3179,-2.2261,-2.1141,-1.9188,-1.8643,-1.855,-1.8381,-1.8381,-1.8094,-1.7232,-1.5981,-1.4937,-1.419,-1.3039,-1.2175,-1.2175,-1.1954,-1.1391,-0.9981,-0.9507,-0.8866,-0.7473,-0.7191,-0.702,-0.7051,-0.6992,-0.6948,-0.7035,-0.4943,-0.4837,-0.7965,-0.3899,-0.0785,-0.0,0.1682,0.4041,0.7094,0.7206,0.6517,0.5039,0.6391,0.7179,0.7173,0.7777,0.8887,1.0417,1.0936,1.2457,0.0,-2.2209,-2.2478,-2.2478,-2.2936,0.0,0.0,0.0,0.0,-2.5398,-2.667,-2.7604,-2.7876,-2.91,-3.0122,-3.0088,-3.0383,0.0,0.0,-3.3387,0.0,0.0,0.0,0.0,0.0,0.0,0.0,0.0,0.0,0.0,0.0,-3.1087,-3.1014,-3.0821,-3.0702,-3.0628,-3.0568,-3.0568,-3.019,-2.9484,-2.8762,-2.8051,-2.7417,-2.6782,0.0,0.0,0.0,0.0,0.0,-2.6533,-2.6533,-2.6383,-2.5523,-2.4779,-2.4089,-2.4183,-2.3764,-2.3267,-2.4178,-2.4478,-2.4361,-2.4231,-2.3993,-2.3404,-2.1131,-2.0828,-2.0854,-1.9012,-1.828,-1.8087,-1.8087,-1.8087,-1.7893,-1.7232,-1.5798,-1.4364,-1.3698,-1.2355,-1.1194,-1.1194,-1.126,-1.0887,-0.9361,-0.9179,-0.8602,-0.693,-0.6703,-0.6738,-0.6632,-0.6719,-0.6796,-0.6923,-0.5104,-0.4578,-0.6531,-0.2525,-0.0,-0.0,0.4258,0.686,0.7209,0.7201,0.719,0.7182,0.7182,0.7171,0.7154,0.8527,0.9997,1.1548,1.294,1.4247,-2.4967,0.0,-2.4108,-2.3963,-2.4564,-2.5204,0.0,0.0,0.0,0.0,0.0,-2.7378,-2.8738,-2.9603,-3.0318,-3.0749,-3.117,-3.167,-3.2466,0.0,0.0,0.0,0.0,0.0,0.0,0.0,0.0,0.0,0.0,0.0,0.0,-3.1132,-3.1014,-3.0821,-3.0762,-3.0702,-3.0568,-3.0068,-2.9484,-2.8762,-2.8051,-2.7351,-2.6714,-2.6589,0.0,0.0,0.0,0.0,-2.6533,-2.6533,-2.6533,-2.6383,-2.4921,-2.4264,-2.4016,-2.3602,-2.3106,-2.2791,-2.3712,-2.3805,-2.3557,-2.3657,-2.374,-2.3551,-2.228,-2.1505,-2.0683,-1.8719,-1.8179,-1.8087,-1.7815,-1.7815,-1.7714,-1.7333,-1.5798,-1.4364,-1.4172,-1.2543,-1.1194,-1.1194,-1.0744,-1.0186,-0.9784,-0.8814,-0.7818,-0.7384,-0.6905,-0.6545,-0.6611,-0.6643,-0.6703,-0.6698,-0.6285,-0.4898,-0.1917,-0.0644,-0.0,-0.0,0.1101,0.3323,0.7081,0.7198,0.7184,0.7163,0.7163,0.716,0.7154,0.7644,0.898,1.1175,1.1849,1.3189,-2.6934,-2.6308,-2.5589,-2.5517,-2.5828,-2.6131,-2.5591,0.0,0.0,0.0,0.0,-2.7472,-2.8243,-2.9738,-3.0942,-3.1134,-3.1586,0.0,0.0,0.0,0.0,0.0,0.0,0.0,0.0,0.0,0.0,0.0,0.0,0.0,0.0,-3.1307,-3.119,-3.0955,-3.0613,-3.0358,-3.0129,-2.9808,-2.9093,-2.8051,-2.767,-2.7162,-2.6533,-2.6533,-2.6533,0.0,0.0,0.0,-2.6533,-2.6533,-2.6314,-2.5816,-2.4552,-2.3902,-2.3501,-2.3065,-2.2628,-2.2446,-2.3155,-2.3156,-2.2737,-2.2897,-2.2878,-2.2768,-2.2063,-2.1146,-2.0107,-1.8948,-1.8172,-1.7707,-1.7527,-1.7527,-1.7527,-1.7326,-1.6082,-1.4841,-1.4364,-1.3022,-1.177,-1.1292,-1.0806,-1.0413,-1.0019,-0.9324,-0.8425,-0.773,-0.7232,-0.6859,-0.6526,-0.6535,-0.6562,-0.6529,-0.6551,-0.5197,-0.1764,-0.0519,-0.0,-0.0,-0.0,0.2168,0.692,0.7027,0.704,0.7076,0.7127,0.7154,0.7154,0.7835,0.8914,1.0265,1.1181,1.2642,-2.8255,-2.7676,-2.7088,-2.6929,-2.6976,-2.6828,-2.6367,0.0,0.0,0.0,0.0,0.0,0.0,-2.9562,0.0,0.0,0.0,0.0,0.0,0.0,0.0,0.0,0.0,0.0,0.0,0.0,0.0,0.0,0.0,0.0,0.0,-3.1482,-3.1366,-3.1087,-3.0404,-2.9842,-2.9421,-2.9359,-2.8648,-2.7484,-2.7417,-2.704,-2.6533,-2.6533,-2.6533,0.0,0.0,0.0,-2.6465,-2.6383,-2.5886,-2.5229,-2.4276,-2.3559,-2.2981,-2.2636,-2.2292,-2.2135,-2.2522,-2.2382,-2.2116,-2.2185,-2.2089,-2.1894,-2.1512,-2.057,-1.966,-1.9455,-1.835,-1.7326,-1.7326,-1.7326,-1.7326,-1.7326,-1.656,-1.5507,-1.4555,-1.3499,-1.2441,-1.1385,-1.1194,-1.0998,-1.0314,-1.0117,-0.9521,-0.8028,-0.763,-0.7332,-0.6534,-0.6437,-0.6437,-0.6437,-0.6353,-0.5653,-0.383,-0.1411,-0.0,-0.0,-0.0,0.1909,0.6192,0.6717,0.6872,0.6983,0.7081,0.7138,0.7154,0.8373,0.9106,0.9226,1.0655,1.1983,-2.8618,-2.8826,-2.8857,-2.8097,-2.8129,-2.8265,-2.7704,0.0,0.0,0.0,0.0,0.0,0.0,-2.8837,-2.9196,0.0,0.0,0.0,0.0,0.0,0.0,0.0,0.0,0.0,0.0,0.0,0.0,0.0,0.0,0.0,0.0,-3.1482,-3.1366,-3.1087,-3.0404,-2.9566,-2.8698,-2.813,-2.7736,-2.7484,-2.6905,-2.6589,-2.6533,-2.6533,-2.6533,0.0,0.0,-2.6533,-2.6465,-2.5746,-2.5382,-2.5158,-2.3717,-2.3065,-2.2981,-2.2636,-2.2097,-2.1624,-2.1464,-2.15,-2.1709,-2.2086,-2.2286,-2.249,-2.2737,-2.1505,-2.0073,-2.0042,-1.8696,-1.7326,-1.7326,-1.7326,-1.7326,-1.7326,-1.656,-1.5507,-1.4555,-1.3499,-1.2441,-1.1385,-1.1194,-1.1194,-1.0998,-1.0413,-0.9719,-0.8726,-0.8028,-0.7332,-0.6534,-0.6437,-0.6437,-0.6437,-0.6353,-0.6263,-0.5964,-0.2318,-0.0,-0.0,-0.0,0.1152,0.3611,0.5638,0.6869,0.6983,0.7002,0.7059,0.7154,0.7393,0.8069,0.896,0.9465,1.087,-2.9835,-3.0015,-3.0157,-2.9676,-2.9295,-2.8851,-2.7833,-2.741,0.0,0.0,0.0,0.0,0.0,0.0,0.0,0.0,0.0,0.0,0.0,0.0,0.0,0.0,0.0,0.0,0.0,0.0,0.0,0.0,0.0,0.0,0.0,0.0,-3.1161,-3.0539,-2.9562,-2.8505,-2.752,-2.6531,-2.637,-2.6973,-2.6962,-2.6753,-2.6533,-2.6766,-2.6741,-2.6533,0.0,-2.6245,-2.5816,-2.5453,-2.4802,-2.4009,-2.3298,-2.2703,-2.2132,-2.1737,-2.1464,-2.1128,-2.0964,-2.1095,-2.1379,-2.1902,-2.2095,-2.2295,-2.2939,-2.1627,-1.9886,-2.018,-1.878,-1.7326,-1.7326,-1.7326,-1.7326,-1.7326,-1.6943,-1.6177,-1.4651,-1.3884,-1.3113,-1.1482,-1.1194,-1.1194,-1.1194,-1.0904,-1.0408,-0.9521,-0.8726,-0.7928,-0.7132,-0.6637,-0.6437,-0.6437,-0.6445,-0.6356,-0.6374,-0.353,-0.121,-0.0101,-0.0,0.041,0.1445,0.4702,0.6679,0.6784,0.7067,0.7158,0.7154,0.7154,0.7485,0.7931,0.8176,0.9218,-3.0924,-3.0999,-3.1061,-3.0924,-3.0258,-2.941,-2.8625,-2.7854,0.0,0.0,0.0,0.0,0.0,0.0,0.0,0.0,0.0,0.0,0.0,0.0,0.0,0.0,0.0,0.0,0.0,0.0,0.0,0.0,0.0,0.0,0.0,0.0,-3.0777,-2.9827,-2.8747,-2.7696,-2.6686,-2.5588,-2.536,-2.6088,-2.6502,-2.6615,-2.6533,-2.6753,-2.6866,-2.6829,-2.6427,-2.5947,-2.548,-2.4921,-2.3998,-2.2916,-2.2703,-2.2101,-2.1359,-2.1061,-2.0906,-2.0906,-2.0654,-2.0859,-2.1309,-2.1748,-2.1953,-2.2168,-2.265,-2.1386,-1.9783,-1.9884,-1.8603,-1.7326,-1.7326,-1.7326,-1.7326,-1.7326,-1.7326,-1.685,-1.5032,-1.4459,-1.3788,-1.1868,-1.1389,-1.1194,-1.1194,-1.1194,-1.09,-1.0117,-0.932,-0.8524,-0.773,-0.6933,-0.6437,-0.6437,-0.6437,-0.6242,-0.5658,-0.3729,-0.1713,-0.0101,-0.0,-0.0,-0.0,0.3173,0.5309,0.613,0.6784,0.7119,0.7114,0.7141,0.7154,0.7157,0.7249,0.8037,-3.1535,-3.1535,-3.1535,-3.1535,-3.079,0.0,-3.1265,-3.0407,0.0,-3.2032,0.0,0.0,0.0,0.0,0.0,0.0,0.0,0.0,0.0,0.0,0.0,0.0,0.0,0.0,0.0,0.0,0.0,0.0,0.0,0.0,0.0,0.0,0.0,-2.9129,-2.8387,-2.7601,-2.6699,-2.5945,-2.5335,-2.4946,-2.4983,-2.5511,-2.6508,-2.595,-2.6553,-2.7861,-2.6174,-2.566,-2.5852,-2.3727,-2.2809,-2.266,-2.1721,-2.1282,-2.1205,-2.0984,-2.0906,-2.0906,-2.0654,-2.0859,-2.1309,-2.1748,-2.2148,-2.2378,-2.1929,-2.1033,-2.0017,-1.9147,-1.8149,-1.7326,-1.7326,-1.7326,-1.7326,-1.7326,-1.7326,-1.7037,-1.5893,-1.4937,-1.398,-1.2829,-1.1868,-1.1194,-1.1194,-1.1194,-1.09,-1.0117,-0.932,-0.8524,-0.773,-0.6933,-0.6437,-0.6437,-0.6437,-0.5632,-0.3626,-0.1511,-0.0202,-0.0,-0.0,-0.0,-0.0,0.0303,0.1729,0.4448,0.6125,0.6992,0.6997,0.7103,0.7154,0.7154,0.7163,0.8012,-3.1609,-3.1609,-3.1609,-3.1609,-3.0997,0.0,0.0,-3.074,-3.0279,-3.1164,-3.0663,0.0,0.0,0.0,0.0,0.0,0.0,0.0,0.0,0.0,0.0,0.0,0.0,0.0,0.0,0.0,0.0,0.0,0.0,0.0,0.0,0.0,0.0,-2.8427,-2.782,-2.6854,-2.5563,-2.4898,-2.4318,-2.3791,-2.4808,-2.536,-2.5448,-2.5548,-2.5762,-2.5983,-2.52,-2.4566,-2.4091,-2.3125,-2.2295,-2.1721,-2.1205,-2.0984,-2.0984,-2.0819,-2.0731,-2.0731,-2.0644,-2.0859,-2.1309,-2.1748,-2.2168,-2.2417,-2.1841,-2.0962,-1.996,-1.9063,-1.8064,-1.7326,-1.7326,-1.7326,-1.7326,-1.7326,-1.7326,-1.685,-1.5222,-1.4555,-1.3788,-1.2063,-1.1482,-1.1194,-1.1194,-1.1194,-1.11,-1.0801,-1.0015,-0.9221,-0.8425,-0.763,-0.6933,-0.6437,-0.6445,-0.6052,-0.5244,-0.2015,-0.0,-0.0,-0.0,-0.0,-0.0,-0.0,0.0509,0.1654,0.49,0.6804,0.7105,0.7141,0.7086,0.7154,0.7154,0.7553,-3.1508,-3.1508,-3.1548,-3.1734,0.0,0.0,-3.2226,-3.1293,-3.0547,-3.1447,-3.1068,0.0,0.0,0.0,0.0,0.0,0.0,0.0,0.0,0.0,0.0,0.0,0.0,0.0,0.0,0.0,0.0,0.0,0.0,0.0,0.0,0.0,0.0,0.0,-2.7288,-2.6285,-2.482,-2.4443,-2.3879,-2.309,-2.428,-2.482,-2.4833,-2.5008,-2.504,-2.4925,-2.4254,-2.3433,-2.2666,-2.2069,-2.1435,-2.0775,-2.076,-2.0819,-2.0819,-2.0644,-2.0566,-2.0566,-2.0566,-2.0859,-2.1279,-2.1582,-2.1973,-2.2129,-2.1295,-2.0606,-1.9816,-1.8664,-1.7878,-1.7326,-1.7326,-1.7326,-1.7326,-1.7326,-1.7326,-1.6943,-1.5514,-1.4746,-1.3884,-1.2446,-1.1678,-1.1194,-1.1194,-1.1194,-1.1194,-1.1194,-1.0511,-0.9821,-0.9225,-0.8226,-0.7332,-0.6437,-0.6448,-0.6356,-0.6364,-0.3728,-0.141,-0.0101,-0.0,-0.0,-0.0,-0.0,-0.0,-0.0,0.2891,0.526,0.705,0.7083,0.7155,0.7154,0.7154,0.7198,-3.122,-3.1233,-3.1365,0.0,0.0,0.0,-3.4556,-3.2422,-3.1061,-3.3913,0.0,-3.111,-3.0527,0.0,0.0,0.0,0.0,0.0,0.0,0.0,0.0,0.0,0.0,0.0,0.0,0.0,0.0,0.0,0.0,0.0,0.0,0.0,0.0,0.0,-2.6794,-2.6059,-2.4845,-2.482,-2.4255,-2.3078,-2.3078,-2.3728,-2.4795,-2.4243,-2.4468,-2.5274,-2.3374,-2.2396,-2.2049,-2.0555,-1.9919,-1.9961,-2.0391,-2.0634,-2.0566,-2.0566,-2.0566,-2.0566,-2.0566,-2.0859,-2.123,-2.123,-2.1523,-2.1611,-2.0096,-1.9596,-1.9309,-1.778,-1.7318,-1.7326,-1.7326,-1.7326,-1.7326,-1.7326,-1.7326,-1.7326,-1.7326,-1.5704,-1.4268,-1.4268,-1.2635,-1.1194,-1.1194,-1.1194,-1.1194,-1.1194,-1.0511,-1.0019,-1.0019,-0.8623,-0.7332,-0.6437,-0.6437,-0.6442,-0.6361,-0.6364,-0.4537,-0.0302,-0.0,-0.0,-0.0,-0.0,-0.0,-0.0,-0.0,0.2192,0.66,0.7047,0.7163,0.7154,0.7154,0.7154,-3.2044,-3.1849,0.0,-3.1974,0.0,0.0,0.0,-3.3141,0.0,0.0,0.0,0.0,0.0,0.0,0.0,0.0,0.0,0.0,0.0,0.0,0.0,0.0,0.0,0.0,0.0,0.0,0.0,0.0,0.0,0.0,0.0,0.0,0.0,0.0,-2.6726,-2.6304,-2.5372,-2.5008,-2.4456,-2.374,-2.374,-2.3703,-2.3566,-2.2948,-2.2807,-2.2999,-2.1665,-2.1032,-2.0749,-1.9848,-1.9615,-1.9922,-2.0059,-2.0293,-2.0566,-2.0566,-2.0566,-2.0566,-2.0566,-2.0654,-2.081,-2.1133,-2.1318,-2.1168,-1.9692,-1.929,-1.8874,-1.7153,-1.6821,-1.6996,-1.6996,-1.7165,-1.7326,-1.7326,-1.7326,-1.7138,-1.6372,-1.5222,-1.4076,-1.3307,-1.2155,-1.1194,-1.1194,-1.1194,-1.1194,-1.1194,-1.0998,-1.0408,-0.932,-0.8226,-0.7332,-0.6437,-0.6437,-0.6439,-0.6445,-0.6356,-0.5854,-0.4537,-0.1712,-0.0,-0.0,-0.0,-0.0,-0.0,-0.0,0.0615,0.1982,0.5316,0.7039,0.716,0.7232,0.7154,-3.1872,-3.163,0.0,-3.1924,-3.2085,-3.241,-3.3066,0.0,0.0,0.0,0.0,0.0,0.0,0.0,0.0,0.0,0.0,0.0,0.0,0.0,0.0,0.0,0.0,0.0,0.0,0.0,0.0,0.0,0.0,0.0,0.0,0.0,0.0,0.0,-2.6658,-2.6312,-2.5598,-2.5084,-2.4544,-2.4004,-2.4004,-2.3617,-2.2886,-2.2781,-2.2356,-2.1655,-2.064,-2.0087,-1.9968,-1.9647,-1.959,-1.9697,-2.0039,-2.0225,-2.0322,-2.0498,-2.0566,-2.0566,-2.0566,-2.0566,-2.0605,-2.0483,-2.049,-2.0145,-1.8776,-1.8387,-1.8071,-1.6763,-1.6601,-1.6857,-1.6857,-1.7091,-1.7326,-1.7326,-1.7326,-1.7138,-1.656,-1.5317,-1.4076,-1.3499,-1.2155,-1.1194,-1.1194,-1.1194,-1.1194,-1.1194,-1.1194,-1.06,-0.9023,-0.8425,-0.763,-0.6537,-0.6437,-0.6437,-0.6437,-0.6445,-0.6356,-0.6364,-0.3932,-0.1815,-0.0101,-0.0,-0.0,-0.0,-0.0,-0.0,-0.0,0.2825,0.5227,0.7228,0.7177,0.723,-3.1373,0.0,0.0,-3.1729,-3.2306,0.0,-3.3443,-3.3194,-3.2759,-3.2359,0.0,0.0,0.0,0.0,0.0,0.0,0.0,0.0,0.0,0.0,0.0,0.0,0.0,0.0,0.0,0.0,0.0,0.0,0.0,0.0,0.0,0.0,0.0,0.0,-2.6589,-2.6214,-2.5686,-2.5109,-2.4594,0.0,-2.4029,-2.3423,-2.2598,-2.3221,-2.2616,-2.0998,-2.0031,-1.9608,-1.9565,-1.9781,-1.9648,-1.9424,-2.0205,-2.0283,-2.0019,-2.0371,-2.0527,-2.0557,-2.0518,-2.0527,-2.0323,-1.9539,-1.9222,-1.8958,-1.758,-1.7199,-1.7117,-1.6468,-1.6535,-1.6806,-1.6777,-1.7004,-1.7238,-1.7238,-1.7282,-1.7326,-1.7326,-1.5704,-1.4268,-1.4268,-1.2635,-1.1194,-1.1194,-1.1194,-1.1194,-1.1194,-1.1194,-1.06,-0.9023,-0.8825,-0.8226,-0.6534,-0.6437,-0.6437,-0.6437,-0.6437,-0.6442,-0.6358,-0.6372,-0.4543,-0.0504,-0.0101,-0.0,-0.0,-0.0,-0.0,-0.0,-0.0,0.2212,0.6542,0.6883,0.7059,0.0,-3.2072,0.0,0.0,-3.1614,-3.1455,-3.1549,-3.1238,0.0,0.0,0.0,0.0,0.0,0.0,0.0,0.0,0.0,0.0,0.0,0.0,0.0,0.0,0.0,0.0,0.0,0.0,0.0,0.0,0.0,0.0,0.0,0.0,0.0,-2.6521,-2.6521,-2.6471,-2.6276,-2.531,-2.4971,0.0,-2.4067,-2.3258,-2.2879,-2.2662,-2.1655,-1.9959,-1.968,-1.9525,-1.937,-1.9385,-1.9561,-1.9795,-1.998,-2.0205,-2.0391,-2.0146,-2.0273,-2.0518,-2.0176,-1.9812,-1.9539,-1.9381,-1.8816,-1.8095,-1.7114,-1.7008,-1.7022,-1.5926,-1.6038,-1.6418,-1.6177,-1.6345,-1.6572,-1.6572,-1.696,-1.7326,-1.7326,-1.5704,-1.4268,-1.4268,-1.2635,-1.1194,-1.1194,-1.1194,-1.1194,-1.1194,-1.1194,-1.06,-0.9023,-0.8825,-0.8226,-0.6534,-0.6437,-0.6437,-0.6437,-0.6437,-0.6437,-0.6442,-0.6364,-0.5253,-0.2619,-0.0908,-0.0,-0.0,-0.0,-0.0,-0.0,-0.0,0.052,0.1573,0.4092,0.6016,0.0,0.0,0.0,-3.1748,0.0,0.0,0.0,0.0,0.0,0.0,0.0,0.0,0.0,0.0,0.0,0.0,0.0,0.0,0.0,0.0,0.0,0.0,0.0,0.0,0.0,0.0,0.0,0.0,0.0,0.0,0.0,-2.6943,-2.6739,-2.6533,-2.6533,-2.6533,-2.6533,-2.5611,-2.5124,-2.4915,-2.4138,-2.3294,-2.2469,-2.1878,-2.1146,-2.0232,-2.0147,-1.9987,-1.9893,-1.9893,-1.9902,-1.9932,-2.0146,-2.0244,-2.0254,-2.0234,-2.0371,-2.0498,-2.0068,-1.9659,-1.9186,-1.8592,-1.7931,-1.7221,-1.6498,-1.6431,-1.6483,-1.6048,-1.6228,-1.6565,-1.6404,-1.6594,-1.6828,-1.6828,-1.6967,-1.7006,-1.6436,-1.5315,-1.4172,-1.3596,-1.2252,-1.1194,-1.1194,-1.1194,-1.1194,-1.1194,-1.1194,-1.06,-0.9023,-0.8825,-0.8226,-0.6534,-0.6437,-0.6437,-0.6437,-0.6437,-0.6437,-0.6437,-0.6358,-0.5452,-0.3324,-0.1109,-0.0,-0.0,-0.0,-0.0,-0.0,-0.0,-0.0,-0.0,0.1702,0.4219,0.0,0.0,-3.1661,0.0,0.0,0.0,0.0,0.0,0.0,0.0,0.0,0.0,0.0,0.0,0.0,0.0,0.0,0.0,0.0,0.0,0.0,0.0,0.0,0.0,0.0,0.0,0.0,0.0,0.0,0.0,-2.6943,-2.6508,-2.6289,-2.6314,-2.6314,-2.6245,-2.6094,-2.5605,-2.4951,-2.4142,-2.3933,-2.3133,-2.1735,-2.1108,-2.0829,-2.0829,-2.0654,-2.0566,-2.0566,-2.0566,-2.0352,-2.0059,-2.042,-2.0342,-2.0059,-2.0352,-2.0498,-2.0498,-1.998,-1.9515,-1.8912,-1.7804,-1.6982,-1.635,-1.5908,-1.5906,-1.6038,-1.6235,-1.6565,-1.6934,-1.6784,-1.6967,-1.7165,-1.7165,-1.6912,-1.6401,-1.5609,-1.4772,-1.398,-1.292,-1.1868,-1.1194,-1.1194,-1.1194,-1.1194,-1.1194,-1.1194,-1.06,-0.9023,-0.8825,-0.8226,-0.6534,-0.6437,-0.6437,-0.6437,-0.6437,-0.6437,-0.6437,-0.6353,-0.5651,-0.383,-0.1309,-0.0,-0.0,-0.0,-0.0,-0.0,-0.0,-0.0,-0.0,-0.0,0.2356,0.0,0.0,0.0,0.0,0.0,0.0,0.0,0.0,0.0,0.0,0.0,0.0,0.0,0.0,0.0,0.0,0.0,0.0,0.0,0.0,0.0,0.0,0.0,0.0,0.0,0.0,0.0,0.0,0.0,0.0,-2.6714,-2.5429,-2.4921,-2.5453,-2.5453,-2.5146,-2.4409,-2.4412,-2.4236,-2.3861,-2.2752,-2.1748,-2.0789,-2.0644,-2.0644,-2.0644,-2.0644,-2.0566,-2.0566,-2.0566,-2.0527,-2.0478,-2.0547,-2.0527,-2.0439,-2.0117,-2.0244,-2.0449,-1.9648,-1.888,-1.8098,-1.7569,-1.6597,-1.5597,-1.5482,-1.5877,-1.6265,-1.6038,-1.6404,-1.6791,-1.6506,-1.6462,-1.6499,-1.6499,-1.6028,-1.5517,-1.5685,-1.5007,-1.398,-1.292,-1.1868,-1.1194,-1.1194,-1.1194,-1.1194,-1.1194,-1.1194,-1.06,-0.9023,-0.8825,-0.8226,-0.6534,-0.6437,-0.6437,-0.6437,-0.6437,-0.6437,-0.6437,-0.6353,-0.6266,-0.5967,-0.2116,-0.0,-0.0,-0.0,-0.0,-0.0,-0.0,-0.0,-0.0,-0.0,0.1489,-3.2101,0.0,0.0,0.0,0.0,0.0,0.0,0.0,0.0,0.0,0.0,0.0,0.0,0.0,0.0,0.0,0.0,0.0,0.0,0.0,0.0,0.0,0.0,0.0,0.0,0.0,0.0,0.0,0.0,-2.4981,-2.5417,-2.4624,-2.4337,-2.4636,-2.4636,-2.448,-2.4108,-2.4045,-2.3602,-2.2776,-2.1745,-2.1001,-2.0566,-2.0566,-2.0566,-2.0566,-2.0566,-2.0566,-2.0566,-2.0566,-2.0566,-2.0566,-2.0566,-2.0566,-2.0537,-2.0352,-2.04,-2.0478,-1.9853,-1.8794,-1.7655,-1.7501,-1.6381,-1.5255,-1.5796,-1.6148,-1.6418,-1.6645,-1.6908,-1.7084,-1.6945,-1.6901,-1.6901,-1.6901,-1.626,-1.545,-1.5007,-1.4166,-1.3113,-1.2063,-1.1482,-1.1194,-1.1194,-1.1194,-1.1194,-1.1194,-1.1194,-1.06,-0.9023,-0.8825,-0.8226,-0.6534,-0.6437,-0.6437,-0.6437,-0.6437,-0.6437,-0.6437,-0.6445,-0.6353,-0.6369,-0.3426,-0.1209,-0.0,-0.0,-0.0,-0.0,-0.0,-0.0,-0.0,-0.0,0.1264,0.0,0.0,0.0,0.0,0.0,0.0,0.0,0.0,0.0,0.0,0.0,0.0,0.0,0.0,0.0,0.0,0.0,0.0,0.0,0.0,0.0,0.0,0.0,0.0,0.0,0.0,0.0,0.0,0.0,-2.412,-2.4337,-2.3829,-2.361,-2.3829,-2.3841,-2.3683,-2.3463,-2.3169,-2.2563,-2.1669,-2.0934,-2.0566,-2.0566,-2.0566,-2.0566,-2.0566,-2.0566,-2.0566,-2.0566,-2.0566,-2.0566,-2.0566,-2.0566,-2.0566,-2.0566,-2.0566,-2.0566,-2.0498,-1.9831,-1.8678,-1.7432,-1.7128,-1.6119,-1.5087,-1.5884,-1.6243,-1.6455,-1.6857,-1.7084,-1.7186,-1.7106,-1.7143,-1.7115,-1.6822,-1.6067,-1.5044,-1.4058,-1.3017,-1.2058,-1.1389,-1.1194,-1.1194,-1.1194,-1.1194,-1.1194,-1.1194,-1.0998,-1.0408,-0.9023,-0.8627,-0.7928,-0.6534,-0.6437,-0.6437,-0.6437,-0.6437,-0.6437,-0.6437,-0.6437,-0.6445,-0.6366,-0.4843,-0.2722,-0.0101,-0.0,-0.0,-0.0,-0.0,-0.0,-0.0,-0.0,0.1577,0.0,0.0,0.0,0.0,0.0,0.0,0.0,0.0,0.0,0.0,0.0,0.0,0.0,0.0,0.0,0.0,0.0,0.0,0.0,0.0,0.0,0.0,0.0,0.0,0.0,0.0,0.0,0.0,0.0,-2.2756,-2.4047,-2.2745,-2.2252,-2.3001,-2.3075,-2.2628,-2.1645,-2.1282,-2.0886,-2.0634,-2.0644,-2.0566,-2.0566,-2.0566,-2.0566,-2.0566,-2.0566,-2.0566,-2.0566,-2.0566,-2.0566,-2.0566,-2.0566,-2.0566,-2.0566,-2.0566,-2.0566,-2.042,-1.9142,-1.8139,-1.7346,-1.6499,-1.5568,-1.4932,-1.5372,-1.5899,-1.6316,-1.606,-1.6418,-1.6813,-1.6499,-1.6645,-1.669,-1.5661,-1.4737,-1.3878,-1.2973,-1.1965,-1.1292,-1.1194,-1.1194,-1.1194,-1.1194,-1.1194,-1.1194,-1.1194,-1.0507,-0.9723,-0.8924,-0.8127,-0.7332,-0.6534,-0.6437,-0.6437,-0.6437,-0.6437,-0.6437,-0.6437,-0.6437,-0.6448,-0.6374,-0.6274,-0.4241,-0.0101,-0.0,-0.0,-0.0,-0.0,-0.0,-0.0,-0.0,0.2556,0.0,0.0,0.0,0.0,0.0,0.0,0.0,0.0,0.0,0.0,0.0,0.0,0.0,0.0,0.0,0.0,0.0,0.0,0.0,0.0,0.0,0.0,0.0,0.0,0.0,0.0,0.0,0.0,0.0,0.0,-2.2606,-2.2101,-2.1949,-2.2252,-2.2101,-2.1731,-2.1128,-2.0984,-2.0819,-2.0566,-2.0566,-2.0566,-2.0566,-2.0566,-2.0566,-2.0566,-2.0566,-2.0566,-2.0566,-2.0566,-2.0566,-2.0566,-2.0566,-2.0566,-2.0566,-2.0566,-2.0245,-1.9678,-1.9215,-1.8031,-1.6681,-1.6517,-1.5736,-1.4961,-1.5577,-1.5899,-1.6096,-1.6184,-1.6367,-1.6565,-1.666,-1.6294,-1.5497,-1.3986,-1.3362,-1.2918,-1.1945,-1.1482,-1.1194,-1.1194,-1.1194,-1.1194,-1.1194,-1.1194,-1.0998,-1.0507,-1.0216,-0.9521,-0.8226,-0.773,-0.7332,-0.6437,-0.6437,-0.6437,-0.6437,-0.6437,-0.6437,-0.6437,-0.6448,-0.6358,-0.6366,-0.638,-0.5672,-0.4145,-0.1414,-0.0,-0.0,-0.0,-0.0,-0.0,0.1555,0.3269,-3.1661,0.0,0.0,0.0,0.0,0.0,0.0,0.0,0.0,0.0,0.0,0.0,0.0,0.0,0.0,0.0,0.0,0.0,0.0,0.0,0.0,0.0,0.0,0.0,0.0,0.0,0.0,0.0,0.0,0.0,-2.2025,-2.2035,-2.2035,-2.1958,-2.1594,-2.1205,-2.0906,-2.0819,-2.0731,-2.0566,-2.0566,-2.0566,-2.0566,-2.0566,-2.0566,-2.0566,-2.0566,-2.0566,-2.0566,-2.0566,-2.0566,-2.0566,-2.0566,-2.0566,-2.0566,-2.0245,-1.9775,-1.9222,-1.8647,-1.7431,-1.6246,-1.6402,-1.5771,-1.5065,-1.5716,-1.5913,-1.5935,-1.603,-1.6206,-1.6396,-1.6506,-1.5672,-1.4471,-1.2958,-1.2389,-1.2037,-1.1303,-1.1146,-1.1194,-1.1194,-1.1194,-1.1194,-1.1194,-1.1194,-1.09,-1.0117,-0.9723,-0.9122,-0.773,-0.7332,-0.7033,-0.6437,-0.6437,-0.6437,-0.6437,-0.6437,-0.6437,-0.6437,-0.6353,-0.6057,-0.5347,-0.5972,-0.6393,-0.6396,-0.2223,-0.0,-0.0,-0.0,-0.0,-0.0,0.1658,0.3288,0.0,0.0,0.0,0.0,0.0,0.0,0.0,0.0,0.0,0.0,0.0,0.0,0.0,0.0,0.0,0.0,0.0,0.0,0.0,0.0,0.0,0.0,0.0,0.0,0.0,0.0,0.0,0.0,0.0,-2.2056,-2.247,-2.2511,-2.2433,-2.2186,-2.1534,-2.1148,-2.0906,-2.0731,-2.0566,-2.0566,-2.0566,-2.0566,-2.0566,-2.0566,-2.0566,-2.0566,-2.0566,-2.0566,-2.0566,-2.0566,-2.0566,-2.0566,-2.0566,-2.0566,-2.0489,-1.9618,-1.9301,-1.8975,-1.7269,-1.6476,-1.6141,-1.594,-1.5474,-1.5079,-1.5709,-1.5899,-1.5833,-1.5518,-1.5877,-1.6294,-1.5929,-1.4771,-1.3508,-1.2581,-1.1814,-1.1142,-1.0948,-1.1057,-1.1194,-1.1194,-1.1194,-1.1194,-1.1194,-1.1194,-1.0904,-1.0117,-0.9324,-0.8425,-0.763,-0.6833,-0.6437,-0.6437,-0.6437,-0.6437,-0.6437,-0.6437,-0.6437,-0.6437,-0.6353,-0.5448,-0.3324,-0.5159,-0.6189,-0.6199,-0.2123,-0.0,-0.0,-0.0,-0.0,-0.0,0.0105,0.2606,-3.1661,0.0,0.0,0.0,0.0,0.0,0.0,0.0,0.0,0.0,0.0,0.0,0.0,0.0,0.0,0.0,0.0,0.0,0.0,0.0,0.0,0.0,0.0,0.0,0.0,0.0,0.0,0.0,-2.3348,-2.307,-2.2532,-2.2811,-2.2683,-2.1958,-2.1837,-2.138,-2.0654,-2.0644,-2.0566,-2.0566,-2.0566,-2.0566,-2.0566,-2.0566,-2.0566,-2.0566,-2.0566,-2.0566,-2.0566,-2.0566,-2.0566,-2.0566,-2.0566,-2.0245,-1.9618,-1.9381,-1.8487,-1.735,-1.6862,-1.6242,-1.5636,-1.5587,-1.5438,-1.5328,-1.5511,-1.5562,-1.5548,-1.5452,-1.5723,-1.577,-1.4669,-1.3713,-1.2726,-1.1778,-1.1346,-1.1179,-1.1127,-1.1156,-1.1194,-1.1194,-1.1194,-1.1194,-1.1194,-1.0703,-1.0015,-0.9221,-0.8425,-0.763,-0.6833,-0.6537,-0.6437,-0.6437,-0.6437,-0.6437,-0.6437,-0.6437,-0.6437,-0.6437,-0.6358,-0.5454,-0.3324,-0.2321,-0.1818,-0.1819,-0.0606,-0.0,-0.0,-0.0,-0.0,-0.0,0.1779,0.3359,-3.1661,-3.1661,-3.1661,0.0,0.0,0.0,-3.0487,-3.0125,0.0,0.0,0.0,0.0,0.0,0.0,0.0,0.0,0.0,0.0,0.0,0.0,0.0,0.0,0.0,0.0,0.0,0.0,0.0,-2.4115,-2.3939,-2.3639,-2.3101,-2.3329,-2.3104,-2.2251,-2.198,-2.15,-2.0576,-2.0566,-2.0566,-2.0566,-2.0566,-2.0566,-2.0566,-2.0566,-2.0566,-2.0566,-2.0566,-2.0566,-2.0566,-2.0245,-2.0089,-2.0089,-2.0089,-1.9529,-1.8727,-1.8327,-1.7594,-1.6617,-1.6296,-1.5824,-1.5452,-1.5584,-1.554,-1.5452,-1.5592,-1.554,-1.5431,-1.5431,-1.5404,-1.5144,-1.3576,-1.293,-1.2441,-1.1482,-1.1194,-1.1194,-1.1194,-1.1194,-1.1194,-1.1194,-1.1194,-1.1096,-1.0801,-1.0314,-0.962,-0.8425,-0.7928,-0.7332,-0.6534,-0.6437,-0.6437,-0.6437,-0.6437,-0.6437,-0.6437,-0.6437,-0.6439,-0.6448,-0.6366,-0.5866,-0.4545,-0.1615,-0.0,-0.0,-0.0,-0.0,-0.0,-0.0,-0.0,0.0102,0.3467,0.508,-3.1685,-3.1661,-3.1572,-3.1038,0.0,0.0,-2.976,-2.9577,-2.9393,0.0,0.0,0.0,0.0,0.0,0.0,0.0,0.0,0.0,0.0,0.0,0.0,0.0,0.0,0.0,0.0,-2.6783,-2.5813,-2.5275,-2.4385,-2.3898,-2.395,-2.395,-2.3577,-2.2716,-2.2191,-2.157,-2.0644,-2.0586,-2.0566,-2.0566,-2.0566,-2.0566,-2.0566,-2.0566,-2.0566,-2.0489,-2.0489,-2.0401,-2.0245,-1.945,-1.9222,-1.9301,-1.9222,-1.8647,-1.7755,-1.7025,-1.6617,-1.646,-1.5665,-1.5431,-1.5474,-1.5767,-1.5665,-1.5489,-1.5818,-1.5687,-1.5362,-1.5343,-1.4964,-1.4172,-1.2819,-1.248,-1.2344,-1.1385,-1.1194,-1.1194,-1.1194,-1.1194,-1.1194,-1.1194,-1.1096,-1.0801,-1.0117,-0.9821,-0.9225,-0.7829,-0.7531,-0.7232,-0.6534,-0.6437,-0.6437,-0.6437,-0.6437,-0.6437,-0.6437,-0.6437,-0.6445,-0.6361,-0.6372,-0.6382,-0.639,-0.2323,-0.0,-0.0,-0.0,-0.0,-0.0,-0.0,0.0204,0.0831,0.4869,0.6904,0.0,0.0,0.0,0.0,0.0,0.0,-3.0216,-2.976,-2.9485,0.0,0.0,0.0,0.0,0.0,0.0,0.0,0.0,0.0,0.0,0.0,0.0,0.0,0.0,0.0,0.0,-2.7285,-2.6506,-2.5316,-2.4385,-2.4033,-2.4395,-2.4416,-2.3944,-2.3086,-2.2644,-2.2039,-2.1103,-2.0742,-2.0566,-2.0566,-2.0566,-2.0566,-2.0566,-2.0566,-2.0255,-1.9539,-1.9539,-1.9134,-1.8479,-1.8318,-1.8647,-1.9222,-1.8567,-1.7755,-1.6935,-1.678,-1.6221,-1.5673,-1.5431,-1.5431,-1.5438,-1.5504,-1.5482,-1.5489,-1.5818,-1.5687,-1.5365,-1.4973,-1.3752,-1.2492,-1.2644,-1.2027,-1.1482,-1.1292,-1.1194,-1.1194,-1.1194,-1.1194,-1.1194,-1.1194,-1.0703,-1.0216,-1.0019,-0.8924,-0.7928,-0.763,-0.7033,-0.6534,-0.6437,-0.6437,-0.6437,-0.6437,-0.6437,-0.6437,-0.6437,-0.645,-0.6358,-0.6364,-0.6377,-0.639,-0.639,-0.2323,-0.0,-0.0,-0.0,-0.0,-0.0,-0.0,0.1734,0.5101,0.4543,0.5264,0.0,0.0,0.0,-3.0397,0.0,0.0,0.0,-2.9301,-2.9117,0.0,0.0,0.0,0.0,0.0,0.0,0.0,0.0,0.0,0.0,0.0,0.0,0.0,0.0,0.0,0.0,-2.7452,-2.6598,-2.4997,-2.4002,-2.3418,-2.3105,-2.3115,-2.266,-2.1788,-2.158,-2.0922,-1.9825,-1.9687,-1.9485,-1.9283,-1.9283,-1.9283,-1.9283,-1.9283,-1.9045,-1.8647,-1.8647,-1.8399,-1.7997,-1.7513,-1.7594,-1.7997,-1.7513,-1.6788,-1.6064,-1.6064,-1.5824,-1.5499,-1.5423,-1.5506,-1.568,-1.5514,-1.5506,-1.5529,-1.5621,-1.5211,-1.4628,-1.3957,-1.2826,-1.1902,-1.167,-1.1419,-1.1194,-1.1194,-1.1194,-1.1194,-1.1194,-1.1194,-1.1096,-1.0703,-0.9916,-0.9422,-0.9422,-0.8425,-0.7431,-0.7033,-0.6637,-0.6437,-0.6437,-0.6437,-0.6437,-0.6437,-0.6437,-0.6439,-0.6448,-0.6358,-0.6366,-0.6377,-0.6385,-0.5471,-0.3335,-0.1111,-0.0,-0.0,-0.0,-0.0,-0.0,-0.0,0.2254,0.6379,0.5581,0.5776,0.0,0.0,0.0,0.0,0.0,-2.9013,0.0,0.0,0.0,0.0,0.0,0.0,0.0,0.0,0.0,0.0,0.0,0.0,0.0,0.0,0.0,0.0,0.0,0.0,0.0,-2.6991,-2.6017,-2.4351,-2.3316,-2.2482,-2.1695,-2.1695,-2.1273,-2.0483,-2.0316,-1.9782,-1.8598,-1.8522,-1.8292,-1.7997,-1.7997,-1.7997,-1.7997,-1.7997,-1.7917,-1.7755,-1.7755,-1.7674,-1.7432,-1.678,-1.6542,-1.6542,-1.6542,-1.6064,-1.5423,-1.5514,-1.5665,-1.5741,-1.559,-1.5763,-1.6012,-1.568,-1.571,-1.5823,-1.5354,-1.4649,-1.3861,-1.2765,-1.2048,-1.1497,-1.0808,-1.0886,-1.1146,-1.1184,-1.1194,-1.1194,-1.1194,-1.1096,-1.0806,-1.0117,-0.9221,-0.8528,-0.8528,-0.7928,-0.7132,-0.6534,-0.6437,-0.6437,-0.6437,-0.6437,-0.6437,-0.6437,-0.6439,-0.6448,-0.6361,-0.6366,-0.6374,-0.639,-0.5672,-0.3639,-0.0101,-0.0,-0.0,-0.0,-0.0,-0.0,-0.0,-0.0,0.206,0.5908,0.6545,0.6861,0.0,0.0,0.0,0.0,-2.8466,0.0,0.0,0.0,-2.6935,-2.7589,0.0,0.0,0.0,0.0,0.0,0.0,0.0,0.0,0.0,0.0,0.0,0.0,0.0,0.0,0.0,0.0,-2.4307,-2.3159,-2.2316,-2.1784,-2.1695,-2.1695,-2.1489,-2.098,-2.0545,-1.9895,-1.9059,-1.865,-1.8292,-1.7997,-1.7997,-1.7997,-1.7997,-1.7997,-1.7594,-1.6862,-1.6862,-1.6386,-1.5665,-1.5816,-1.5809,-1.5809,-1.5809,-1.5733,-1.5658,-1.5922,-1.6004,-1.6087,-1.6004,-1.6087,-1.6087,-1.6012,-1.6209,-1.6222,-1.4902,-1.4229,-1.3499,-1.212,-1.1287,-1.0803,-1.0806,-1.0891,-1.0976,-1.1151,-1.1194,-1.1194,-1.1194,-1.0609,-1.0117,-1.0019,-0.8821,-0.773,-0.773,-0.7033,-0.6534,-0.6437,-0.6437,-0.6437,-0.6437,-0.6437,-0.6437,-0.6437,-0.635,-0.6361,-0.6364,-0.6377,-0.6388,-0.639,-0.2829,-0.0505,-0.0,-0.0,-0.0,-0.0,-0.0,-0.0,-0.0,-0.0,0.1346,0.3924,0.5901,0.6872,0.0,0.0,0.0,0.0,0.0,0.0,-2.7378,0.0,-2.6552,0.0,0.0,0.0,0.0,0.0,0.0,0.0,-2.634,0.0,0.0,0.0,0.0,0.0,0.0,0.0,0.0,0.0,0.0,0.0,0.0,-2.0619,-2.0085,-1.9994,-1.9903,-1.9546,-1.9199,-1.8677,-1.7976,-1.7738,-1.7306,-1.6773,-1.6773,-1.6672,-1.6468,-1.6468,-1.6386,-1.6139,-1.6139,-1.5982,-1.5839,-1.5922,-1.5914,-1.5914,-1.6072,-1.6064,-1.5914,-1.6087,-1.6162,-1.6245,-1.617,-1.6252,-1.6327,-1.5824,-1.5678,-1.5507,-1.4173,-1.336,-1.2557,-1.1669,-1.0939,-1.0423,-1.0508,-1.0622,-1.0764,-1.0972,-1.1019,-1.0955,-1.0583,-1.0216,-0.9723,-0.8825,-0.8028,-0.7431,-0.7033,-0.6634,-0.6437,-0.6437,-0.6437,-0.6437,-0.6437,-0.6437,-0.6437,-0.6437,-0.6353,-0.5854,-0.4638,-0.5667,-0.5367,-0.2829,-0.101,-0.0,-0.0,-0.0,-0.0,-0.0,-0.0,-0.0,-0.0,-0.0,0.127,0.3629,0.5976,0.7002,-2.8914,0.0,0.0,0.0,0.0,0.0,0.0,0.0,0.0,0.0,0.0,0.0,0.0,0.0,0.0,-2.5877,0.0,-2.485,0.0,0.0,0.0,0.0,0.0,0.0,0.0,0.0,0.0,-2.0543,-2.0104,-1.9538,-1.8827,-1.8827,-1.8743,-1.8481,-1.8288,-1.7926,-1.7319,-1.713,-1.6714,-1.6085,-1.6085,-1.5915,-1.5597,-1.5597,-1.5665,-1.5824,-1.5824,-1.5914,-1.6087,-1.617,-1.617,-1.6177,-1.6511,-1.6495,-1.6252,-1.6252,-1.6327,-1.6484,-1.6327,-1.6327,-1.6319,-1.5477,-1.5075,-1.4755,-1.3717,-1.2936,-1.2302,-1.1521,-1.099,-1.0611,-1.0462,-1.0508,-1.0702,-1.0858,-1.0938,-1.0826,-1.0186,-0.9821,-0.9221,-0.7829,-0.7431,-0.7132,-0.6534,-0.6437,-0.6437,-0.6437,-0.6437,-0.6437,-0.6437,-0.6439,-0.6442,-0.6442,-0.6358,-0.5758,-0.4237,-0.4448,-0.3335,-0.0202,-0.0,-0.0,-0.0,-0.0,-0.0,-0.0,-0.0,-0.0,-0.0,-0.0,0.1289,0.3708,0.6046,0.7163,0.0,0.0,0.0,-2.8176,0.0,0.0,0.0,0.0,-2.444,0.0,0.0,0.0,0.0,0.0,-2.5109,-2.4341,-2.391,0.0,0.0,0.0,0.0,0.0,0.0,0.0,0.0,0.0,0.0,-1.9557,-1.9034,-1.8827,-1.8827,-1.8827,-1.8743,-1.8481,-1.8481,-1.8218,-1.7583,-1.7575,-1.7247,-1.6598,-1.6598,-1.6423,-1.6087,-1.6087,-1.6087,-1.6087,-1.6087,-1.6087,-1.6087,-1.6319,-1.6394,-1.6433,-1.7036,-1.7048,-1.6656,-1.6656,-1.6656,-1.6648,-1.6656,-1.6237,-1.565,-1.4901,-1.4734,-1.4537,-1.3703,-1.3521,-1.3363,-1.1833,-1.1553,-1.1492,-1.0803,-1.0726,-1.0886,-1.0891,-1.1042,-1.0988,-1.0216,-0.9422,-0.8623,-0.773,-0.6933,-0.6434,-0.6437,-0.6437,-0.6437,-0.6437,-0.6437,-0.6437,-0.6437,-0.635,-0.6361,-0.6361,-0.6377,-0.6388,-0.6287,-0.2526,-0.0101,-0.0,-0.0,-0.0,-0.0,-0.0,-0.0,-0.0,-0.0,-0.0,-0.0,-0.0,0.1289,0.371,0.6121,0.7176,0.0,0.0,-2.7406,-2.6887,0.0,0.0,0.0,0.0,0.0,0.0,0.0,0.0,0.0,0.0,-2.4538,-2.4251,-2.3813,-2.306,0.0,0.0,0.0,0.0,0.0,0.0,0.0,0.0,0.0,-1.901,-1.8899,-1.8827,0.0,-1.8827,-1.8735,-1.8743,-1.8566,-1.8427,-1.821,-1.8011,-1.769,-1.7247,-1.7247,-1.7072,-1.6736,-1.6736,-1.6829,-1.7001,-1.6761,-1.6752,-1.6928,-1.7012,-1.7012,-1.7043,-1.7469,-1.7525,-1.739,-1.7175,-1.6945,-1.668,-1.64,-1.6019,-1.5423,-1.4818,-1.4555,-1.4392,-1.3338,-1.3068,-1.295,-1.2135,-1.1646,-1.1409,-1.1149,-1.0905,-1.0623,-1.0183,-1.0167,-0.9858,-0.87,-0.8226,-0.773,-0.6933,-0.6637,-0.6437,-0.6437,-0.6437,-0.6437,-0.6437,-0.6437,-0.6439,-0.6353,-0.6358,-0.5854,-0.4435,-0.5564,-0.639,-0.639,-0.2425,-0.0,-0.0,-0.0,-0.0,-0.0,-0.0,-0.0,-0.0,-0.0,-0.0,-0.0,0.3246,0.4377,0.3661,0.604,0.7176,-2.683,-2.6885,0.0,-2.649,-2.6178,0.0,-2.5637,0.0,0.0,0.0,0.0,0.0,0.0,0.0,-2.4326,-2.3972,-2.3392,-2.2563,0.0,-1.9674,0.0,0.0,0.0,0.0,0.0,0.0,-1.8827,-1.8827,-1.8827,-1.8827,0.0,0.0,-1.8827,-1.8827,-1.8651,-1.8566,-1.8566,-1.8465,-1.8187,-1.7846,-1.7846,-1.7668,-1.7334,-1.7334,-1.7422,-1.7597,-1.7368,-1.736,-1.7453,-1.7453,-1.7453,-1.7485,-1.7826,-1.7707,-1.7399,-1.7447,-1.714,-1.663,-1.6066,-1.5563,-1.5019,-1.4405,-1.4134,-1.4063,-1.3341,-1.3193,-1.3118,-1.2746,-1.2395,-1.2093,-1.1641,-1.1111,-1.0518,-0.9814,-0.9493,-0.9084,-0.7908,-0.763,-0.7332,-0.6534,-0.6437,-0.6437,-0.6437,-0.6437,-0.6437,-0.6437,-0.6437,-0.6442,-0.6361,-0.5751,-0.5044,-0.4442,-0.4244,-0.4147,-0.4147,-0.1616,-0.0,-0.0,-0.0,-0.0,-0.0,-0.0,-0.0,-0.0,-0.0,0.0848,0.2541,0.5718,0.6411,0.4925,0.6502,0.7173]},{"header":{"parameterUnit":"m.s-1","parameterCategory":1,"la1":30.6,"la2":29.2853,"lo1":-89.7004,"lo2":-87.6739,"dy":0.0162,"dx":0.0183,"nx":112,"ny":82,"refTime":"2023-06-25T12:00:00:Z","depth":0,"parameterNumber":3,"parameterNumberName":"V-component_of_WINDS"},"data":[0.0,0.0,0.0,0.0,0.0,0.0,0.0,0.0,0.0,0.0,0.0,0.0,0.0,0.0,0.0,0.0,0.0,0.0,0.0,0.0,0.0,0.0,0.0,0.0,0.0,0.0,0.0,0.0,0.0,0.0,0.0,0.0,0.0,0.0,0.0,0.0,0.0,0.0,0.0,0.0,0.0,0.0,0.0,0.0,0.0,0.0,0.0,0.0,0.0,0.0,0.0,0.0,0.0,0.0,0.0,0.0,0.0,0.0,0.0,0.0,0.0,0.0,0.0,0.0,0.0,0.0,0.0,0.0,0.0,0.0,0.0,0.0,0.0,0.0,0.0,0.0,0.0,0.0,0.0,0.0,0.0,0.0,0.0,0.0,0.0,0.0,0.0,0.0,0.0,0.0,-3.1058,-2.9976,-3.1276,-3.2404,-3.2972,-3.3283,-3.3115,-3.2427,0.0,0.0,0.0,0.0,0.0,0.0,0.0,0.0,0.0,0.0,0.0,0.0,0.0,0.0,0.0,0.0,0.0,0.0,0.0,0.0,0.0,0.0,0.0,0.0,0.0,0.0,0.0,0.0,0.0,0.0,0.0,0.0,0.0,0.0,0.0,0.0,0.0,0.0,0.0,0.0,0.0,0.0,0.0,0.0,0.0,0.0,0.0,0.0,0.0,0.0,0.0,0.0,0.0,0.0,0.0,0.0,0.0,0.0,0.0,0.0,0.0,0.0,0.0,0.0,0.0,0.0,0.0,0.0,0.0,0.0,0.0,0.0,0.0,0.0,0.0,0.0,0.0,0.0,0.0,0.0,0.0,0.0,0.0,0.0,0.0,0.0,0.0,0.0,0.0,0.0,0.0,0.0,0.0,0.0,0.0,0.0,0.0,0.0,0.0,0.0,0.0,0.0,0.0,0.0,-2.9947,-3.0323,-3.092,-3.1652,-3.2243,-3.229,-3.2372,-3.2386,0.0,0.0,0.0,0.0,0.0,0.0,0.0,0.0,0.0,0.0,0.0,0.0,0.0,0.0,0.0,0.0,0.0,0.0,0.0,0.0,0.0,0.0,0.0,0.0,0.0,0.0,0.0,0.0,0.0,0.0,0.0,0.0,0.0,0.0,0.0,0.0,0.0,0.0,0.0,0.0,0.0,0.0,0.0,0.0,0.0,0.0,0.0,0.0,0.0,0.0,0.0,0.0,0.0,0.0,0.0,0.0,0.0,0.0,0.0,0.0,0.0,0.0,0.0,0.0,0.0,0.0,0.0,0.0,0.0,0.0,0.0,0.0,0.0,0.0,0.0,0.0,0.0,0.0,0.0,0.0,0.0,0.0,0.0,0.0,0.0,0.0,0.0,0.0,0.0,0.0,0.0,0.0,0.0,0.0,0.0,0.0,0.0,0.0,0.0,0.0,0.0,0.0,0.0,-2.9009,-2.9001,-3.024,-3.0375,-3.0658,-3.136,-3.1838,-3.2186,-3.2169,-3.2074,0.0,0.0,0.0,0.0,0.0,0.0,0.0,0.0,0.0,0.0,0.0,0.0,0.0,0.0,0.0,0.0,0.0,0.0,0.0,0.0,0.0,0.0,0.0,0.0,0.0,0.0,0.0,0.0,0.0,0.0,0.0,0.0,0.0,0.0,0.0,0.0,0.0,0.0,0.0,0.0,0.0,0.0,0.0,0.0,0.0,0.0,0.0,0.0,0.0,0.0,0.0,0.0,0.0,0.0,0.0,0.0,0.0,0.0,0.0,0.0,0.0,0.0,0.0,0.0,0.0,0.0,0.0,0.0,0.0,0.0,0.0,0.0,0.0,0.0,0.0,0.0,0.0,0.0,0.0,0.0,0.0,0.0,0.0,0.0,0.0,0.0,0.0,0.0,0.0,0.0,0.0,0.0,0.0,0.0,0.0,0.0,0.0,0.0,0.0,0.0,0.0,0.0,-2.8832,-2.8687,-3.0126,-2.987,-2.993,-3.0741,-3.1442,-3.1775,-3.1743,-3.1809,0.0,0.0,0.0,0.0,0.0,0.0,0.0,0.0,0.0,0.0,0.0,0.0,0.0,0.0,0.0,0.0,0.0,0.0,0.0,0.0,0.0,0.0,0.0,0.0,0.0,0.0,0.0,0.0,0.0,0.0,0.0,0.0,0.0,0.0,0.0,0.0,0.0,0.0,0.0,0.0,0.0,0.0,0.0,0.0,0.0,0.0,0.0,0.0,0.0,0.0,0.0,0.0,0.0,0.0,0.0,0.0,0.0,0.0,0.0,0.0,0.0,0.0,0.0,0.0,0.0,0.0,0.0,0.0,0.0,0.0,0.0,0.0,0.0,0.0,0.0,0.0,0.0,0.0,0.0,0.0,0.0,0.0,0.0,0.0,0.0,0.0,0.0,0.0,0.0,0.0,0.0,0.0,0.0,0.0,0.0,0.0,0.0,0.0,0.0,0.0,0.0,0.0,-2.9339,-2.9909,-2.9856,-2.9817,-2.9977,-3.057,-3.0683,-3.0747,-3.0911,-3.1616,0.0,0.0,0.0,0.0,0.0,0.0,0.0,0.0,0.0,0.0,0.0,0.0,0.0,0.0,0.0,0.0,0.0,0.0,0.0,0.0,0.0,0.0,0.0,0.0,0.0,0.0,0.0,0.0,0.0,0.0,0.0,0.0,0.0,0.0,0.0,0.0,0.0,0.0,0.0,0.0,0.0,0.0,0.0,0.0,0.0,0.0,0.0,0.0,0.0,0.0,0.0,0.0,0.0,0.0,0.0,0.0,0.0,0.0,0.0,0.0,0.0,0.0,0.0,0.0,0.0,0.0,0.0,0.0,0.0,0.0,0.0,0.0,0.0,0.0,0.0,0.0,0.0,0.0,0.0,0.0,0.0,0.0,0.0,0.0,0.0,0.0,0.0,0.0,0.0,0.0,0.0,0.0,0.0,0.0,0.0,0.0,0.0,0.0,0.0,0.0,0.0,0.0,-2.8525,-2.8969,0.0,-2.93,-2.9295,-3.0002,-3.0419,-3.0893,-3.1542,0.0,0.0,0.0,0.0,0.0,0.0,0.0,0.0,0.0,0.0,0.0,0.0,0.0,0.0,0.0,0.0,0.0,0.0,0.0,0.0,0.0,0.0,0.0,0.0,0.0,0.0,0.0,0.0,0.0,0.0,0.0,0.0,0.0,0.0,0.0,0.0,0.0,0.0,0.0,0.0,0.0,0.0,0.0,0.0,0.0,0.0,0.0,0.0,0.0,0.0,0.0,0.0,0.0,0.0,0.0,0.0,0.0,0.0,0.0,0.0,0.0,0.0,0.0,0.0,0.0,0.0,0.0,0.0,0.0,0.0,0.0,0.0,0.0,0.0,0.0,0.0,0.0,0.0,0.0,0.0,0.0,0.0,0.0,0.0,0.0,0.0,0.0,0.0,0.0,0.0,0.0,0.0,0.0,0.0,0.0,0.0,0.0,0.0,0.0,0.0,0.0,0.0,-2.8298,-2.8449,-2.8867,0.0,-2.9287,-2.9131,-2.9714,-3.0143,-3.0778,-3.1663,0.0,0.0,0.0,0.0,0.0,0.0,0.0,0.0,0.0,0.0,0.0,0.0,0.0,0.0,0.0,0.0,0.0,0.0,0.0,0.0,0.0,0.0,0.0,0.0,0.0,0.0,0.0,0.0,0.0,0.0,0.0,0.0,0.0,0.0,0.0,0.0,0.0,0.0,0.0,0.0,0.0,0.0,0.0,0.0,0.0,0.0,0.0,0.0,0.0,0.0,0.0,0.0,0.0,0.0,0.0,0.0,0.0,0.0,0.0,0.0,0.0,0.0,0.0,0.0,0.0,0.0,0.0,0.0,0.0,0.0,0.0,0.0,0.0,0.0,0.0,0.0,0.0,0.0,0.0,0.0,0.0,0.0,0.0,0.0,0.0,0.0,0.0,0.0,0.0,0.0,0.0,0.0,0.0,0.0,0.0,0.0,0.0,0.0,0.0,0.0,0.0,0.0,-2.8863,-2.944,-2.9792,-2.9792,-2.9792,-2.9792,-2.9792,-2.9792,-3.0139,0.0,0.0,0.0,0.0,0.0,0.0,0.0,0.0,0.0,0.0,0.0,0.0,0.0,0.0,0.0,0.0,0.0,0.0,0.0,0.0,0.0,0.0,0.0,0.0,0.0,0.0,0.0,0.0,0.0,0.0,0.0,0.0,0.0,0.0,0.0,0.0,0.0,0.0,0.0,0.0,0.0,0.0,0.0,0.0,0.0,0.0,0.0,0.0,0.0,0.0,0.0,0.0,0.0,0.0,0.0,0.0,0.0,0.0,0.0,0.0,0.0,0.0,0.0,0.0,0.0,0.0,0.0,0.0,0.0,0.0,0.0,0.0,0.0,0.0,0.0,0.0,0.0,0.0,0.0,0.0,0.0,0.0,0.0,0.0,0.0,0.0,0.0,0.0,0.0,0.0,0.0,0.0,0.0,0.0,0.0,0.0,0.0,0.0,0.0,0.0,0.0,0.0,0.0,-2.8913,-2.944,-2.9702,-2.9521,-2.9702,-2.9702,-2.9509,-2.9689,-3.0368,-3.1636,0.0,0.0,0.0,0.0,0.0,0.0,0.0,0.0,0.0,0.0,0.0,0.0,0.0,0.0,0.0,0.0,0.0,0.0,0.0,0.0,0.0,0.0,0.0,0.0,0.0,0.0,0.0,0.0,0.0,0.0,0.0,0.0,0.0,0.0,0.0,0.0,0.0,0.0,0.0,0.0,0.0,0.0,0.0,0.0,0.0,0.0,0.0,0.0,0.0,0.0,0.0,0.0,0.0,0.0,0.0,0.0,0.0,0.0,0.0,0.0,0.0,0.0,0.0,0.0,0.0,0.0,0.0,0.0,0.0,0.0,0.0,0.0,0.0,0.0,0.0,0.0,0.0,0.0,0.0,0.0,0.0,0.0,0.0,0.0,0.0,0.0,0.0,0.0,0.0,0.0,0.0,0.0,0.0,0.0,0.0,0.0,0.0,0.0,0.0,0.0,0.0,0.0,-2.9062,-2.9489,-2.9702,-2.9599,-2.9902,-3.0027,-2.9924,-3.0027,-3.0624,-3.1835,0.0,0.0,0.0,0.0,0.0,0.0,0.0,0.0,0.0,0.0,0.0,0.0,0.0,0.0,0.0,0.0,0.0,0.0,0.0,0.0,0.0,0.0,0.0,0.0,0.0,0.0,0.0,0.0,0.0,0.0,0.0,0.0,0.0,0.0,0.0,0.0,0.0,0.0,0.0,0.0,0.0,0.0,0.0,0.0,0.0,0.0,0.0,0.0,0.0,0.0,0.0,0.0,0.0,0.0,0.0,0.0,0.0,0.0,0.0,0.0,0.0,0.0,0.0,0.0,0.0,0.0,0.0,0.0,0.0,0.0,0.0,0.0,0.0,0.0,0.0,0.0,0.0,0.0,0.0,0.0,0.0,0.0,0.0,0.0,0.0,0.0,0.0,0.0,0.0,0.0,0.0,0.0,0.0,0.0,0.0,0.0,0.0,0.0,0.0,0.0,0.0,0.0,-2.9356,-2.9611,-2.9817,-2.9854,-3.0319,-3.0633,-3.0603,-3.0683,-3.1029,-3.1757,0.0,0.0,0.0,0.0,0.0,0.0,0.0,0.0,0.0,0.0,0.0,0.0,0.0,0.0,0.0,0.0,0.0,0.0,0.0,0.0,0.0,0.0,0.0,0.0,0.0,0.0,0.0,0.0,0.0,0.0,0.0,0.0,0.0,0.0,0.0,0.0,0.0,0.0,0.0,0.0,0.0,0.0,0.0,0.0,0.0,0.0,0.0,0.0,0.0,0.0,0.0,0.0,0.0,0.0,0.0,0.0,0.0,0.0,0.0,0.0,-2.8111,0.0,0.0,0.0,0.0,0.0,0.0,0.0,0.0,0.0,0.0,0.0,0.0,0.0,0.0,0.0,0.0,0.0,0.0,0.0,0.0,0.0,0.0,0.0,0.0,0.0,0.0,0.0,0.0,0.0,0.0,0.0,0.0,0.0,0.0,0.0,0.0,0.0,0.0,0.0,0.0,0.0,-2.9406,-2.9611,-2.9877,-3.0144,-3.0465,-3.0703,-3.0966,-3.1154,-3.1637,-3.2608,-3.2698,0.0,0.0,0.0,0.0,0.0,0.0,0.0,0.0,0.0,0.0,0.0,0.0,0.0,0.0,0.0,0.0,0.0,0.0,0.0,0.0,0.0,0.0,0.0,0.0,0.0,0.0,0.0,0.0,0.0,0.0,0.0,0.0,0.0,0.0,0.0,0.0,0.0,0.0,0.0,0.0,0.0,0.0,0.0,0.0,0.0,0.0,0.0,0.0,0.0,0.0,0.0,0.0,0.0,0.0,0.0,0.0,0.0,0.0,0.0,0.0,-2.8027,0.0,0.0,0.0,0.0,0.0,0.0,0.0,0.0,0.0,0.0,0.0,0.0,0.0,0.0,0.0,0.0,0.0,0.0,0.0,0.0,0.0,0.0,0.0,0.0,0.0,0.0,0.0,0.0,0.0,0.0,0.0,0.0,0.0,0.0,0.0,0.0,0.0,0.0,0.0,0.0,-2.9791,-3.0011,-3.0315,-3.076,-3.1142,-3.1568,-3.2161,-3.2337,-3.2841,-3.3747,-3.3669,0.0,0.0,0.0,0.0,0.0,0.0,0.0,0.0,0.0,0.0,0.0,0.0,0.0,0.0,0.0,0.0,0.0,0.0,0.0,0.0,0.0,0.0,0.0,0.0,0.0,0.0,0.0,0.0,0.0,0.0,0.0,0.0,0.0,0.0,0.0,0.0,0.0,0.0,0.0,0.0,0.0,0.0,0.0,0.0,0.0,0.0,0.0,0.0,0.0,0.0,0.0,0.0,0.0,-2.8408,-2.8476,-2.8408,-2.8476,-2.833,-2.8037,-2.8652,-2.8643,-2.8203,0.0,0.0,0.0,0.0,0.0,0.0,0.0,0.0,0.0,0.0,0.0,0.0,0.0,0.0,0.0,0.0,0.0,0.0,0.0,0.0,0.0,0.0,0.0,0.0,0.0,-3.1976,-3.1976,0.0,0.0,0.0,0.0,0.0,0.0,0.0,0.0,0.0,0.0,0.0,0.0,-3.0281,-3.0595,-3.0994,-3.1461,-3.2174,-3.2893,-3.3571,-3.3815,-3.4233,-3.4981,-3.4682,-3.4536,0.0,0.0,0.0,0.0,0.0,0.0,0.0,0.0,0.0,0.0,0.0,0.0,0.0,0.0,0.0,0.0,0.0,0.0,0.0,0.0,0.0,0.0,0.0,0.0,0.0,0.0,0.0,0.0,0.0,0.0,0.0,0.0,-3.3129,-3.2164,0.0,0.0,0.0,0.0,0.0,0.0,0.0,0.0,0.0,0.0,0.0,0.0,0.0,0.0,-2.7002,-2.7545,-2.78,-2.7764,-2.8867,-2.9199,-2.8848,-2.9228,-2.9375,-2.9307,-2.9033,0.0,-2.7725,-2.7402,0.0,0.0,0.0,0.0,0.0,0.0,0.0,0.0,0.0,0.0,0.0,0.0,0.0,0.0,0.0,0.0,0.0,0.0,0.0,0.0,0.0,0.0,-3.3696,-3.4161,-3.4286,-3.4286,0.0,-3.2754,-3.1512,-3.1926,0.0,0.0,0.0,0.0,0.0,0.0,0.0,0.0,-3.0281,-3.111,-3.1823,-3.2072,-3.3511,-3.4407,-3.431,-3.4886,-3.5448,-3.5809,-3.5779,-3.5844,-3.6057,-3.5575,0.0,0.0,0.0,0.0,0.0,0.0,0.0,0.0,0.0,0.0,0.0,0.0,0.0,0.0,0.0,0.0,0.0,0.0,0.0,0.0,0.0,0.0,0.0,0.0,0.0,0.0,0.0,0.0,0.0,-3.3322,-3.3407,-3.2661,-3.2797,-3.2595,0.0,0.0,0.0,0.0,0.0,0.0,0.0,0.0,0.0,-2.6728,-2.7207,-2.7432,-2.7383,-2.8037,-2.8252,-2.8027,-2.8828,-2.8984,-2.8594,-2.9258,-2.9434,-2.9209,-2.9258,-2.9072,-2.8721,-2.8535,-2.8389,-2.8301,0.0,0.0,0.0,0.0,0.0,-3.2326,-3.2195,-3.2959,0.0,0.0,0.0,0.0,0.0,0.0,0.0,0.0,0.0,0.0,0.0,0.0,0.0,-3.4663,-3.4726,-3.4801,-3.5115,-3.4173,-3.3156,0.0,-3.2051,-3.1411,-3.1097,0.0,0.0,0.0,0.0,-3.0444,-3.0891,-3.1999,-3.2997,-3.3431,-3.4525,-3.5423,-3.5803,-3.6136,-3.6562,-3.7182,-3.6928,-3.6776,-3.6881,-3.6243,-3.6285,0.0,0.0,0.0,0.0,0.0,0.0,0.0,0.0,0.0,0.0,0.0,0.0,0.0,0.0,0.0,0.0,0.0,0.0,0.0,0.0,0.0,0.0,0.0,0.0,0.0,0.0,0.0,0.0,-3.3192,-3.3746,-3.3245,-3.3646,-3.3646,0.0,0.0,0.0,0.0,0.0,0.0,-2.7656,-2.7509,-2.7422,-2.7558,-2.8202,-2.8335,-2.7832,-2.8555,-2.876,-2.8457,-2.8887,-2.8916,-2.8643,-2.9277,-2.9394,-2.9101,-2.9434,-2.9502,-2.9404,-2.9404,-2.9092,-2.8643,-2.8838,-2.9451,-3.0105,-2.9442,-3.0745,-3.2921,-3.2908,-3.3732,-3.4725,-3.4682,0.0,-3.4413,-3.4023,0.0,0.0,0.0,0.0,-3.5594,-3.5327,-3.5276,-3.5404,-3.5801,-3.5827,-3.5942,-3.6365,-3.6006,-3.5238,0.0,-3.2918,-3.2252,-3.17,0.0,0.0,0.0,0.0,-3.169,-3.223,-3.3382,-3.4272,-3.4637,-3.5778,-3.6674,-3.7083,-3.7473,-3.7976,-3.862,-3.813,-3.7796,-3.7796,-3.6997,-3.7087,-3.8196,0.0,0.0,0.0,0.0,0.0,0.0,0.0,0.0,0.0,0.0,0.0,0.0,0.0,0.0,0.0,0.0,0.0,0.0,0.0,0.0,0.0,0.0,0.0,0.0,0.0,0.0,0.0,0.0,0.0,-3.3493,-3.3708,0.0,0.0,0.0,0.0,-3.1228,-3.0905,-3.0571,-3.0187,-3.0111,-2.9837,-2.9208,-2.927,-2.8887,-2.8262,-2.8701,-2.8906,-2.8896,-2.9326,-2.9531,-2.9512,-2.9551,-2.956,-2.9541,-2.956,-2.9336,-2.8955,-2.8955,-2.917,-2.9463,-2.9072,-2.8916,-2.9015,-2.9302,-3.0485,-3.2107,-3.2101,-3.309,-3.4425,-3.4648,-3.5277,-3.5752,-3.43,-3.4943,0.0,0.0,-3.4388,-3.5097,-3.6508,-3.6907,-3.7216,-3.8626,-3.8938,-3.8952,-3.8979,-3.8607,-3.7491,0.0,-3.3771,-3.2855,-3.2277,0.0,-3.2607,-3.2607,-3.3272,-3.4014,-3.4532,-3.5432,-3.585,-3.556,-3.7628,-3.873,-3.7887,-3.9154,-3.9923,-4.0002,-3.9436,-3.9102,-3.9102,-3.7912,-3.7979,-3.9473,-3.8939,0.0,0.0,0.0,0.0,0.0,0.0,0.0,0.0,0.0,0.0,0.0,0.0,0.0,0.0,0.0,0.0,0.0,0.0,0.0,0.0,0.0,0.0,0.0,0.0,0.0,0.0,0.0,0.0,-3.3809,-3.402,0.0,-3.3715,-3.2779,-3.2076,-3.161,-3.0959,-3.0585,-3.068,-3.0702,-3.0721,-3.0804,-3.1002,-3.0881,-3.0453,-3.0175,-2.9829,-2.9546,-2.9263,-2.9004,-2.8769,-2.9316,-2.9414,-2.917,-2.9443,-2.9316,-2.8945,-2.9219,-2.9434,-2.9551,-2.9404,-2.9623,-3.0175,-3.0727,-3.1881,-3.3227,-3.387,-3.4679,-3.5258,-3.446,-3.4765,-3.5318,-3.4443,-3.5424,-3.6716,-3.5804,-3.597,-3.6471,-3.7017,-3.7157,-3.7297,-3.7844,-3.7984,-3.7984,-3.7984,-3.7822,-3.7327,-3.6069,-3.5109,-3.4471,-3.4357,-3.3723,-3.3422,-3.3965,-3.4343,-3.4566,-3.4784,-3.587,-3.6606,-3.6425,-3.7691,-3.8399,-3.8141,-3.8587,-3.8884,-3.8884,-3.8757,-3.8716,-3.8716,-3.8898,-3.9525,-4.0638,-4.0435,-4.0739,0.0,0.0,0.0,0.0,0.0,0.0,0.0,0.0,0.0,0.0,0.0,0.0,0.0,0.0,0.0,0.0,0.0,0.0,0.0,0.0,0.0,0.0,0.0,0.0,0.0,0.0,-3.3972,-3.4059,-3.4307,-3.4334,-3.4164,-3.3332,-3.2724,-3.2534,-3.1961,-3.1768,-3.2169,-3.2191,-3.2151,-3.2174,-3.2394,-3.22,-3.1586,-3.1166,-3.0748,-3.0442,-2.9606,-2.9073,-2.8824,-2.9242,-2.9189,-2.8945,-2.9385,-2.9316,-2.8945,-2.9238,-2.9466,-2.9606,-2.9633,-3.0296,-3.1187,-3.1829,-3.3079,-3.4532,-3.5131,-3.5279,-3.5182,-3.4591,-3.4964,-3.5637,-3.5196,-3.6327,-3.7549,-3.6714,-3.6901,-3.7348,-3.7686,-3.777,-3.7853,-3.8187,-3.8269,-3.8269,-3.8269,-3.8269,-3.8089,-3.7493,-3.6455,-3.5685,-3.5642,-3.5063,-3.4807,-3.5439,-3.5751,-3.5983,-3.5983,-3.6747,-3.7423,-3.7636,-3.839,-3.8841,-3.8841,-3.9044,-3.9088,-3.8932,-3.9075,-3.918,-3.9254,-3.9925,-4.0675,-4.1543,-4.1593,-4.2042,-4.2789,0.0,0.0,0.0,0.0,0.0,0.0,0.0,0.0,0.0,0.0,0.0,0.0,0.0,0.0,0.0,0.0,0.0,0.0,0.0,0.0,0.0,0.0,0.0,-3.1411,-3.2842,-3.3997,-3.4289,-3.4532,-3.4574,-3.4491,-3.4169,-3.3991,-3.403,-3.4066,-3.4282,-3.4799,-3.4823,-3.4323,-3.33,-3.3201,-3.2801,-3.1677,-3.1677,-3.1677,-3.1677,-3.0546,-2.9922,-2.9838,-2.9232,-2.8896,-2.8926,-2.9346,-2.9287,-2.8906,-2.9006,-2.9124,-2.9421,-2.9857,-3.088,-3.206,-3.2502,-3.3926,-3.5735,-3.5585,-3.4801,-3.4048,-3.4852,-3.5845,-3.6524,-3.6524,-3.7497,-3.8417,-3.6934,-3.6944,-3.7547,-3.8461,-3.8707,-3.8869,-3.978,-4.0046,-4.0046,-4.0046,-4.0046,-3.9871,-3.9276,-3.777,-3.6416,-3.5804,-3.636,-3.6936,-3.6936,-3.7644,0.0,-3.8202,-3.8202,-3.8463,-3.9131,-3.9712,-4.0075,-4.0075,-4.0655,-4.0837,-4.0403,-4.0457,-4.0598,-4.0773,-4.0931,-4.138,-4.2317,-4.2468,-4.2862,-4.3369,0.0,0.0,0.0,0.0,0.0,0.0,0.0,0.0,0.0,0.0,0.0,0.0,0.0,0.0,0.0,0.0,0.0,0.0,0.0,0.0,0.0,0.0,-3.2429,-3.2009,-3.2742,-3.3658,-3.4522,-3.4441,-3.4631,-3.5206,-3.5061,-3.475,-3.4595,-3.4619,-3.4679,-3.4823,-3.4823,-3.4628,-3.4323,-3.4323,-3.4225,-3.3906,-3.3101,-3.2789,-3.2801,-3.1677,-3.0753,-2.9922,-2.9741,-2.9186,-2.8467,-2.9413,-2.9403,-2.8896,-3.0527,-3.0538,-2.9606,-3.088,-3.1923,-3.3193,-3.4892,-3.5527,-3.5503,-3.5057,-3.4223,-3.3467,-3.4367,-3.5163,-3.5953,-3.6623,-3.7537,-3.8285,-3.7867,-3.7876,-3.8004,-3.8236,-3.8328,-3.8405,-3.8649,-3.8725,-3.8725,-3.8725,-3.8725,-3.8667,-3.8507,-3.8069,-3.7691,-3.7505,-3.7169,-3.7092,-3.772,-3.8037,0.0,-3.8202,-3.8202,-3.8463,-3.9131,-3.9349,-3.945,-3.945,-4.0121,-4.0293,-3.9815,-4.0466,-4.09,-4.109,-4.1785,-4.249,-4.3235,-4.3731,-4.376,0.0,0.0,0.0,0.0,0.0,0.0,0.0,0.0,0.0,0.0,0.0,0.0,0.0,0.0,0.0,0.0,0.0,0.0,0.0,0.0,0.0,0.0,-3.3338,-3.2924,-3.2744,-3.294,-3.3483,-3.4587,-3.4532,-3.4785,-3.5701,-3.5524,-3.5223,-3.503,-3.4823,-3.4823,-3.4823,-3.4823,-3.4823,-3.4823,-3.4619,-3.4499,-3.4499,-3.3894,-3.3492,-3.3492,-3.2698,-3.1869,-3.1257,-3.0845,-3.0235,0.0,-3.0338,-3.0453,-3.0151,-3.1462,-3.1564,0.0,0.0,0.0,0.0,0.0,-3.5987,-3.5152,-3.4839,-3.3997,-3.3326,-3.4538,-3.5237,-3.5855,-3.7078,-3.781,-3.8202,-3.8202,-3.8202,-3.8202,-3.8202,-3.8202,-3.8202,-3.8202,-3.8202,-3.8202,-3.8202,-3.8202,-3.8202,-3.8202,0.0,0.0,-3.8202,-3.781,-3.7644,-3.8127,-3.8202,-3.8202,-3.8202,-3.8202,-3.8565,-3.9663,-3.9765,-3.9867,-4.0208,-4.0695,0.0,0.0,0.0,-4.1706,-4.2221,-4.2694,0.0,0.0,0.0,-4.4984,-4.5025,0.0,0.0,0.0,-4.5088,-4.5121,0.0,0.0,0.0,0.0,0.0,0.0,0.0,0.0,0.0,0.0,0.0,0.0,0.0,0.0,0.0,0.0,-3.3316,-3.3199,-3.3479,-3.324,-3.3458,-3.45,-3.4625,-3.4973,-3.5817,-3.5726,-3.5451,-3.5223,-3.503,-3.4835,-3.4835,0.0,0.0,0.0,0.0,-3.4006,-3.3958,-3.4006,-3.4042,-3.3947,-3.3562,-3.33,-3.3201,-3.2286,-3.1779,-3.1677,-3.1768,-3.1949,-3.1984,-3.2353,-3.2801,-3.3292,-3.3696,-3.3807,-3.3878,-3.5766,-3.5717,0.0,-3.465,0.0,0.0,-3.5061,-3.5695,-3.6029,-3.772,-3.8202,-3.8202,-3.8202,-3.8202,-3.8202,-3.8263,-3.8337,-3.8352,-3.8412,-3.8486,-3.8486,-3.8486,-3.8486,-3.8472,-3.8472,-3.853,-3.8648,-3.8648,-3.8381,-3.8202,-3.8202,-3.8202,-3.8202,-3.8202,-3.8202,-3.8833,-4.0382,0.0,0.0,-4.167,-4.1821,-4.1775,-4.1346,-4.2005,-4.2772,-4.3568,-4.3687,-4.3948,-4.4502,-4.5281,-4.6195,-4.7202,-4.7973,-4.8821,-4.955,-4.6913,-4.6389,0.0,0.0,0.0,0.0,0.0,0.0,0.0,0.0,0.0,0.0,0.0,0.0,0.0,0.0,0.0,-3.4353,-3.3397,-3.2911,-3.385,-3.3569,-3.348,-3.3985,-3.406,-3.441,-3.5245,-3.5263,-3.5342,-3.5488,-3.532,-3.5126,-3.5126,-3.4932,0.0,-3.421,-3.409,-3.3849,-3.344,-3.3837,-3.4042,-3.4042,0.0,0.0,-3.3499,-3.33,-3.2878,-3.2241,-3.3178,-3.2937,-3.2067,-3.4304,-3.5648,-3.6357,-3.599,-3.6081,-3.6515,-3.6914,-3.6044,-3.4663,-3.4211,-3.413,-3.4301,-3.5305,-3.6108,-3.6844,-3.7886,-3.8202,0.0,-3.8202,-3.8202,-3.8352,-3.8972,-3.9103,-3.9247,-3.9859,-3.9999,-3.9999,-3.9999,-4.0069,-4.0209,-4.0209,-4.0747,-4.1256,-4.1256,-3.9576,-3.8202,-3.8202,-3.8202,-3.8277,-3.8441,-3.8441,-3.9017,-4.0574,-4.0723,-4.1061,-4.1801,-4.2394,-4.2576,-4.2107,-4.2854,-4.3432,-4.3568,-4.4064,-4.439,-4.4502,-4.5528,-4.618,-4.6397,-4.7255,-4.7769,-4.798,-4.8659,-4.9075,0.0,0.0,0.0,0.0,0.0,0.0,0.0,0.0,0.0,0.0,0.0,-3.5001,0.0,0.0,-3.3506,-3.3659,-3.3513,-3.3593,-3.3998,-3.381,-3.3674,-3.3997,-3.3985,-3.4134,-3.4882,-3.4865,-3.4792,-3.4972,-3.4715,-3.4621,-3.4621,-3.4421,-3.4311,-3.4032,-3.3764,-3.3417,-3.3059,-3.3405,-3.3671,-3.3845,-3.4472,-3.4618,-3.421,-3.421,-3.3862,-3.3217,-3.409,-3.3887,-3.322,-3.5051,-3.6038,-3.6351,-3.6665,-3.6848,-3.683,-3.6998,-3.6082,-3.493,-3.5154,-3.5094,-3.5169,-3.5963,-3.6531,-3.7092,-3.7962,-3.8202,-3.8277,-3.862,-3.8752,-3.8899,-3.9662,-3.9859,-3.9929,-4.0278,-4.0485,-4.0554,-4.0554,-4.0675,-4.0795,-4.0795,-4.146,-4.1997,-4.1997,-4.0953,-4.0115,-4.0115,-3.9772,-3.9617,-3.9703,-3.9703,-4.0173,-4.134,-4.1487,-4.1837,-4.2598,-4.3078,-4.3202,-4.2945,-4.3355,-4.373,-4.4064,-4.4333,-4.4763,-4.5337,-4.6269,-4.6896,-4.7174,-4.8155,-4.8753,-4.8962,-4.9913,-4.9889,0.0,0.0,0.0,0.0,0.0,0.0,0.0,0.0,-3.7033,-3.658,-3.5659,-3.4772,-3.408,-3.3847,-3.3567,-3.2975,-3.3639,-3.4158,-3.4004,-3.383,-3.3854,-3.3954,-3.3833,-3.396,-3.4512,-3.437,-3.4239,-3.4338,-3.4181,-3.4089,-3.4089,-3.401,-3.3961,-3.385,-3.3433,-3.306,-3.2772,-3.306,-3.333,-3.3576,-3.4188,-3.4551,-3.4743,-3.4632,-3.441,-3.4114,-3.4447,-3.449,-3.4466,-3.4986,-3.529,-3.5466,-3.6534,-3.6628,-3.6202,-3.6651,-3.6188,-3.5521,-3.6085,-3.613,-3.5949,-3.6688,-3.7014,-3.7323,-3.8173,-3.8412,-3.8546,-3.9376,-3.9591,-3.9718,-4.0538,-4.0675,-4.0758,-4.0878,-4.1028,-4.1162,-4.1162,-4.1264,-4.138,-4.138,-4.1999,-4.2588,-4.273,-4.2746,-4.2564,-4.2081,-4.1403,-4.0899,-4.0966,-4.0966,-4.1335,-4.2185,-4.2248,-4.262,-4.3476,-4.3557,-4.3595,-4.3602,-4.373,-4.4006,-4.4502,-4.4708,-4.5232,-4.6186,-4.6864,-4.7541,-4.8082,-4.8992,-4.9633,-5.0031,-5.0372,-4.9936,-3.9158,-3.8899,-3.8764,-3.8743,-3.9037,-3.9251,0.0,0.0,-3.8153,-3.7836,-3.6947,-3.5976,-3.5353,-3.4269,-3.3506,-3.3474,-3.36,-3.3679,-3.3679,-3.3861,-3.3824,-3.3398,-3.3208,-3.3382,-3.3935,-3.3985,-3.4097,-3.4598,-3.4441,-3.426,-3.426,-3.4089,-3.3789,-3.331,-3.3236,-3.2965,-3.2486,-3.2965,-3.3236,-3.3297,-3.3244,-3.3683,-3.4334,-3.3851,-3.4043,-3.461,-3.4184,-3.4234,-3.4598,-3.4261,-3.4374,-3.4916,-3.5787,-3.583,-3.544,-3.6478,-3.6624,-3.6304,-3.5832,-3.6163,-3.6766,-3.6858,-3.7414,-3.8188,-3.8957,-3.9175,-3.9376,-4.0278,-4.0538,-4.0743,-4.1593,-4.1804,-4.2013,-4.2632,-4.2834,-4.2834,-4.2834,-4.2974,-4.3096,-4.3096,-4.3793,-4.4624,-4.5266,-4.5382,-4.461,-4.2365,-4.1403,-4.0966,-4.1131,-4.1198,-4.1509,-4.2493,-4.2573,-4.2856,-4.3525,-4.3597,-4.3591,-4.3628,-4.4121,-4.4446,-4.4502,-4.5442,-4.6087,-4.6186,-4.6773,-4.7196,-4.7594,-4.8006,-4.8367,-4.8659,-4.9269,-4.9832,-3.8795,-3.8885,-3.9111,0.0,-3.9192,-3.9448,-3.8536,-3.8243,-3.7946,-3.7353,-3.6117,-3.5161,-3.4987,-3.4292,-3.3688,0.0,-3.4045,-3.4281,-3.3721,-3.3619,-3.3493,-3.326,-3.304,-3.3157,-3.353,-3.3581,-3.3682,-3.3746,-3.3671,-3.3583,-3.3583,-3.3495,-3.3395,-3.3171,-3.3158,-3.281,-3.2092,-3.2475,-3.2748,-3.2896,-3.2723,-3.2947,-3.357,-3.3346,-3.3458,-3.3734,-3.3169,-3.3056,-3.3244,-3.3505,-3.4003,-3.4641,-3.5759,-3.6421,-3.6784,-3.7191,-3.7085,-3.6799,-3.7007,-3.7309,-3.772,-3.8264,-3.8708,-3.916,-3.9969,-4.0232,-4.037,-4.1198,-4.1478,-4.1609,-4.2411,-4.2615,-4.2694,-4.3035,-4.3174,-4.3235,-4.3235,-4.3372,-4.3509,-4.3509,-4.4478,-4.5433,-4.5748,-4.6146,-4.6104,-4.5016,-4.3864,-4.3136,-4.3215,-4.2859,-4.2756,-4.3174,-4.3174,-4.3312,-4.3568,-4.3889,-4.4121,-4.4121,-4.4635,-4.5108,-4.5442,-4.592,-4.635,-4.6637,-4.707,-4.7381,-4.7511,-4.8014,-4.8269,-4.8421,-4.909,-4.9657,-3.8401,-3.8901,0.0,-3.8781,-3.9143,-3.9448,-3.8545,-3.8174,-3.7881,-3.7241,-3.5893,-3.4795,-3.4615,-3.4189,-3.3729,-3.352,-3.4126,-3.4379,-3.3633,-3.3388,-3.3264,-3.3096,-3.3204,-3.3322,-3.3314,-3.3395,-3.3313,-3.3167,-3.3081,-3.3081,-3.3081,-3.3081,-3.3081,-3.3081,-3.3081,-3.2794,-3.2224,-3.2218,-3.2331,-3.2561,-3.2168,-3.2202,-3.2616,-3.2616,-3.2616,-3.2591,-3.2164,-3.2155,-3.239,-3.295,-3.3603,-3.4362,-3.5724,-3.6695,-3.7321,-3.7805,-3.7657,-3.7337,-3.7962,-3.8337,-3.8679,-3.9376,-3.9773,-4.0109,-4.0966,-4.1233,-4.1365,-4.2125,-4.2411,-4.2537,-4.3096,-4.3339,-4.3519,-4.3519,-4.368,-4.3914,-4.3914,-4.3972,-4.4047,-4.4047,-4.4959,-4.5747,-4.5905,-4.6391,-4.6809,-4.701,-4.5955,-4.5159,-4.5014,-4.4357,-4.3843,-4.3645,-4.373,-4.3848,-4.3848,-4.4373,-4.4708,-4.4708,-4.5214,-4.5734,-4.6186,-4.6332,-4.6637,-4.7116,-4.7381,-4.7578,-4.7728,-4.8192,-4.8495,-4.8694,-4.9233,-4.9655,-3.8005,-3.8941,-3.9567,-3.8641,-3.8805,-3.9226,-3.9307,-3.8866,-3.8356,-3.8212,-3.7207,-3.594,-3.4725,-3.3994,-3.3641,-3.3887,-3.3574,-3.3381,-3.3327,-3.3449,-3.3378,-3.279,-3.3705,-3.4079,0.0,-3.3334,-3.3313,-3.3167,-3.3081,-3.3081,-3.3081,-3.3081,-3.3081,-3.3081,-3.3081,-3.3068,-3.3056,-3.2491,-3.2227,-3.2227,-3.1675,-3.1424,-3.1436,-3.1436,-3.1436,-3.1436,-3.1424,-3.1886,-3.2593,-3.2593,-3.3053,-3.3883,-3.5433,-3.6003,-3.6226,-3.7849,-3.8381,-3.8127,-3.8202,-3.8826,-3.9576,-3.9576,-4.0163,-4.1033,-4.1723,-4.1997,-4.2125,-4.3096,-4.3372,-4.3372,-4.3568,-4.4006,-4.4446,-4.4446,-4.4855,-4.525,-4.525,-4.525,-4.525,-4.525,-4.5284,-4.556,-4.6247,-4.6402,-4.666,-4.7361,-4.6849,-4.622,-4.5834,-4.5102,-4.439,-4.3694,-4.4121,-4.4446,-4.4446,-4.4964,-4.525,-4.525,-4.5852,-4.6186,-4.6186,-4.6684,-4.7116,-4.7468,-4.7511,-4.777,-4.8383,-4.8383,-4.873,-4.9384,-4.9655,-4.9917,-3.7929,-3.8905,-3.9629,-3.858,-3.8886,-3.9362,-3.89,-3.8396,-3.7878,-3.7292,-3.6029,-3.4934,-3.454,-3.4211,-3.3932,-3.3757,-3.4001,-3.402,-3.3356,-3.2697,-3.2319,-3.2529,-3.2503,0.0,0.0,0.0,0.0,-3.2685,-3.2866,-3.303,-3.3056,-3.324,-3.324,-3.3081,-3.2704,-3.2328,-3.1964,-3.1424,-3.116,-3.116,-3.0972,-3.0871,-3.0871,-3.0871,-3.0871,-3.0871,-3.0871,-3.1174,-3.1698,-3.2212,-3.3416,-3.5156,-3.623,-3.7128,-3.7957,-3.8487,-3.8649,-3.8634,-3.919,-3.9535,-3.9945,-4.1013,-4.1625,-4.2013,-4.2818,-4.308,-4.3157,-4.3432,-4.3509,-4.3611,-4.4064,-4.4333,-4.4597,-4.4964,-4.5161,-4.5303,-4.5303,-4.5303,-4.5303,-4.5303,-4.5717,-4.6094,-4.6352,-4.7248,-4.8006,-4.8321,-4.77,-4.6948,-4.6374,-4.6062,-4.5806,-4.555,-4.5255,-4.5054,-4.5054,-4.5528,-4.592,-4.592,-4.6429,-4.6824,-4.7035,-4.7249,-4.7493,-4.7829,-4.8014,-4.8192,-4.8383,-4.8853,-4.9188,-4.9396,-4.9942,-5.0248,-3.7949,-3.8833,-3.9429,-3.8738,-3.905,-3.9396,-3.8929,-3.8535,-3.7982,-3.7016,-3.5655,-3.4648,-3.4586,-3.3833,-3.3334,-3.372,-3.3644,-3.3489,-3.3276,-3.2243,-3.1605,-3.1971,-3.1754,-3.1308,0.0,0.0,0.0,-3.2034,-3.2733,-3.3033,-3.2731,-3.2802,-3.2802,-3.2731,-3.2281,-3.1845,-3.148,-3.0884,-3.0708,-3.0884,-3.0574,-3.0599,-3.0964,-3.064,-3.0686,-3.0906,-3.0608,-3.1122,-3.2119,-3.2349,-3.3732,-3.5838,-3.6318,-3.719,-3.8119,-3.8176,-3.8377,-3.8706,-3.9597,-4.0085,-4.0554,-4.1917,-4.2506,-4.2834,-4.3432,-4.3628,-4.3628,-4.3628,-4.373,-4.4006,-4.439,-4.4818,-4.5178,-4.5528,-4.5784,-4.5885,-4.5885,-4.5885,-4.5885,-4.5885,-4.6514,-4.7037,-4.7037,-4.8085,-4.8941,-4.8994,-4.8557,-4.7805,-4.6652,-4.6736,-4.6702,-4.6149,-4.5823,-4.5631,-4.5631,-4.6249,-4.6649,-4.6649,-4.708,-4.745,-4.7663,-4.7663,-4.7829,-4.8132,-4.844,-4.864,-4.8765,-4.9296,-4.9608,-4.9754,-5.0189,-5.0489,-3.8059,-3.8712,-3.9103,-3.9012,-3.918,-3.9375,-3.936,-3.9143,-3.8547,-3.7243,-3.5995,-3.5002,0.0,0.0,-3.2011,-3.3828,-3.2608,-3.1832,-3.301,-3.2124,-3.1299,0.0,0.0,0.0,0.0,0.0,0.0,-3.0927,0.0,-3.3149,-3.2056,-3.206,-3.2047,-3.1966,-3.1792,-3.1699,-3.1699,-3.0914,-3.0821,-3.1379,-3.0491,-3.0633,-3.1622,-3.0778,-3.0797,-3.1442,-3.0722,-3.1723,-3.3782,-3.3044,-3.4043,-3.5893,-3.5893,-3.632,-3.698,-3.7089,-3.7526,-3.8269,-3.9482,-4.0446,-4.1302,-4.1997,-4.2798,-4.3512,-4.3562,-4.3562,-4.3578,-4.3611,-4.4064,-4.4502,-4.4558,-4.5407,-4.6186,-4.6235,-4.6637,-4.6998,-4.6998,-4.6998,-4.6998,-4.6998,-4.765,-4.8186,-4.8258,-4.8847,-4.9329,-4.9401,-4.9383,-4.8724,-4.6864,-4.7222,-4.7084,-4.5615,-4.597,-4.6284,-4.6284,-4.7035,-4.7511,-4.7511,-4.7829,-4.7992,-4.8032,-4.8032,-4.8172,-4.8458,-4.8779,-4.9099,-4.9427,-4.9693,-5.0035,-5.0394,-5.0433,-5.0645,-3.8578,-3.8897,-3.9121,-3.8897,-3.8818,-3.8791,-3.8797,-3.8166,-3.7242,-3.5944,-3.4623,-3.3501,0.0,0.0,0.0,-3.2571,-3.1872,0.0,-3.2223,-3.1282,0.0,-3.0337,0.0,-2.9762,-2.8644,-2.9748,0.0,0.0,-3.0623,-3.1911,-3.2662,-3.2452,-3.222,-3.2047,-3.1557,-3.134,-3.134,-3.0713,-3.0509,-3.0624,-3.0433,-3.0445,-3.0701,-3.0496,-3.0797,-3.1516,-3.1294,-3.2277,-3.3959,-3.3768,-3.4719,-3.6343,-3.6343,-3.673,-3.7282,-3.7282,-3.7729,-3.8411,-3.9274,-4.0008,-4.0707,-4.1416,-4.1783,-4.2071,-4.2634,-4.28,-4.2974,-4.4011,-4.439,-4.4725,-4.5563,-4.597,-4.6284,-4.6684,-4.6888,-4.6998,-4.6998,-4.6998,-4.6998,-4.6998,-4.7384,-4.8065,-4.9235,-4.9296,-4.9554,-5.075,-5.0442,-4.9704,-4.8706,-4.8496,-4.8293,-4.7882,-4.7669,-4.7542,-4.7542,-4.7728,-4.787,-4.787,-4.7951,-4.8093,-4.8269,-4.8549,-4.8832,-4.9123,-4.9412,-4.9618,-4.9693,-5.0068,-5.0314,-5.0394,-5.081,-5.1045,-3.885,-3.8884,-3.8912,-3.9065,-3.8812,-3.8502,-3.8466,-3.7925,-3.707,-3.5668,-3.4295,0.0,-3.2702,-3.1601,0.0,0.0,0.0,0.0,-3.1293,-3.0503,-2.9785,0.0,-2.9315,0.0,-2.7879,-2.8841,-2.9367,0.0,-3.0448,-3.1385,-3.1631,-3.1732,-3.1721,-3.1552,-3.1164,-3.092,-3.083,-3.0522,-3.0496,-3.0727,-3.0573,-3.0662,-3.0894,-3.1065,-3.1576,-3.2218,0.0,-3.3129,-3.461,-3.4312,-3.5058,-3.6462,-3.6178,-3.6447,-3.6971,-3.6671,-3.7197,-3.7982,-3.8401,-3.9124,-4.0082,-4.1097,-4.1409,-4.1491,-4.1905,-4.2192,-4.2557,-4.3293,-4.4068,-4.4854,-4.5513,-4.6134,-4.6637,-4.6934,-4.6998,-4.6998,-4.6998,-4.6998,-4.7132,-4.7671,-4.7998,-4.8593,-4.9862,-4.981,-4.9937,-5.0848,-5.0302,-4.9646,-4.9253,-4.9025,-4.8756,-4.843,-4.8143,-4.7992,-4.7992,-4.8093,-4.8172,-4.8172,-4.8458,-4.8658,-4.8834,-4.9145,-4.9363,-4.9569,-4.9857,-4.9999,-5.0064,-5.0433,-5.0861,-5.1325,-5.1618,-5.201,-3.8924,-3.8755,-3.8547,-3.9155,-3.8798,-3.8254,-3.8036,-3.7712,-3.7043,-3.5508,0.0,-3.3218,-3.2914,-3.1242,-3.0212,-3.114,0.0,-2.9946,-3.0286,-2.9791,-2.9248,-2.8961,-2.8539,-2.801,-2.7476,-2.7683,-2.8268,-2.9468,-3.0698,-3.1115,-3.0279,-3.0635,-3.0911,-3.0986,-3.0849,-3.0698,-3.052,-3.052,-3.0689,-3.1164,-3.0842,-3.102,-3.1551,-3.1964,-3.2577,-3.3353,0.0,0.0,-3.5439,-3.4758,-3.523,-3.6297,-3.5729,-3.5848,-3.6282,-3.5829,-3.6368,-3.7429,-3.7488,-3.8311,-3.9471,-4.0729,-4.1127,-4.1143,-4.1243,-4.1648,-4.2081,-4.2272,-4.3526,-4.4887,-4.504,-4.5964,-4.6855,-4.6962,-4.7025,-4.7088,-4.7088,-4.7116,-4.742,-4.8413,-4.8829,-4.9273,-5.007,-5.0149,-5.0154,-5.0346,-4.9724,-4.9252,-4.9203,-4.9102,-4.8744,-4.8126,-4.8132,-4.8172,-4.8172,-4.844,-4.8568,-4.8568,-4.9137,-4.9457,-4.9457,-4.9731,-4.9895,-4.9876,-5.0174,-5.0383,-5.0491,-5.0916,-5.158,-5.25,-5.2633,-5.3156,-3.8923,-3.8634,-3.8387,-3.8282,-3.799,-3.7482,-3.6443,-3.5745,0.0,0.0,-3.2222,-3.1591,-3.1131,-3.0545,-3.0186,-3.0468,-2.9779,-2.9263,-2.946,-2.9371,-2.9096,0.0,-2.8148,-2.7706,-2.6964,0.0,0.0,0.0,0.0,-3.0118,-3.1435,-3.0689,-3.0432,-3.0986,-3.0986,-3.0911,-3.0911,-3.0911,-3.0963,-3.1055,-3.0963,-3.1312,-3.2017,-3.2055,-3.2847,-3.4109,-3.4109,0.0,-3.5504,-3.5359,-3.5419,-3.5669,-3.5549,-3.5579,-3.5719,-3.6131,-3.6723,-3.7488,-3.7937,-3.8662,-3.9322,-3.9553,-3.9636,-3.9769,-4.0365,-4.0896,-4.1493,-4.2552,-4.3444,-4.4249,-4.5382,-4.5847,-4.6177,-4.6837,-4.7205,-4.7425,-4.7425,-4.7621,-4.7866,-4.8093,-4.8334,-4.8767,-4.9669,-4.9436,-4.9451,-5.0415,-5.0426,-5.0183,-4.9736,-4.9018,-4.8454,-4.8364,-4.8853,-4.9174,-4.9174,-4.9382,-4.9541,-4.9541,-4.9665,-4.9749,-4.9803,-5.0114,-5.031,-5.0364,-5.0749,-5.0971,-5.0991,-5.1833,-5.2309,-5.2522,-5.3305,-5.3745,-3.8862,-3.851,-3.8153,-3.8018,-3.7792,-3.7216,-3.5723,0.0,0.0,0.0,-3.1607,-3.1241,-3.0675,-3.0052,0.0,-2.9515,-2.8902,-2.8455,-2.8481,-2.8715,0.0,-2.8375,-2.785,-2.734,0.0,0.0,0.0,0.0,0.0,-2.8525,-3.0302,-3.0496,-3.0672,-3.0986,-3.0986,-3.0986,-3.0986,-3.0986,-3.0986,-3.0986,-3.0986,-3.1408,-3.2074,-3.2506,-3.3269,-3.4312,-3.4758,0.0,-3.5504,-3.5504,-3.5504,-3.5504,-3.5504,-3.5504,-3.5554,-3.6196,-3.6845,-3.7488,-3.8108,-3.8717,-3.9272,-3.9272,-3.9272,-3.9392,-3.9702,-4.0337,-4.1064,-4.167,-4.2707,-4.3802,-4.443,-4.4892,-4.5285,-4.5659,-4.6316,-4.6988,-4.7421,-4.7852,-4.821,-4.821,-4.8439,-4.8789,-4.9214,-4.9063,-4.9123,-4.9877,-4.9978,-4.9932,-4.9833,-4.9424,-4.9145,-4.9145,-4.9431,-4.9598,-4.9598,-4.9749,-4.986,-4.9892,-5.0081,-5.0196,-5.0263,-5.0597,-5.0779,-5.0819,-5.0995,-5.1116,-5.1155,-5.2007,-5.2718,-5.324,-5.4077,-5.4718,-3.8707,-3.8415,-3.8052,-3.7949,-3.7721,-3.7051,-3.5215,-3.4706,0.0,-3.1699,-3.1226,-3.1097,-3.0586,-2.9799,-2.9039,0.0,-2.8223,-2.7846,-2.7837,-2.8071,-2.8347,0.0,-2.7707,0.0,-2.6917,0.0,0.0,0.0,0.0,0.0,-2.8855,-2.9984,-3.062,-3.062,-3.0738,-3.0803,-3.0803,-3.0934,-3.0986,-3.0986,-3.0869,-3.1349,-3.2362,-3.2807,-3.3585,-3.461,-3.5213,0.0,0.0,-3.5444,-3.5415,-3.5295,-3.5444,-3.5504,-3.5554,-3.6321,-3.6951,-3.7488,-3.8238,-3.8843,-3.9272,-3.9272,-3.9272,-3.9272,-3.9272,-3.9986,-4.0802,-4.0802,-4.2008,-4.3286,-4.3465,-4.3946,-4.4453,-4.4742,-4.5498,-4.6359,-4.7134,-4.7787,-4.8255,-4.8255,-4.8584,-4.8909,-4.8909,-4.8909,-4.9027,-4.9427,-4.9638,-4.9805,-4.9955,-5.0139,-5.0177,-5.0006,-4.9936,-4.9903,-4.994,-5.0044,-5.0139,-5.021,-5.0482,-5.0656,-5.0707,-5.0971,-5.1138,-5.1128,-5.117,-5.118,-5.121,-5.2226,-5.3127,-5.3903,-5.4826,-5.5617,-3.8339,-3.8382,-3.8252,-3.7757,-3.7484,-3.6738,-3.4501,0.0,-3.2988,-3.0942,-3.0397,-3.0319,-3.0321,-2.9727,0.0,0.0,0.0,-2.7665,-2.83,-2.7896,-2.7822,-2.8855,0.0,0.0,0.0,0.0,0.0,0.0,0.0,0.0,-2.8381,-2.906,-2.9431,-2.9431,-2.9941,-3.0215,-3.0215,-3.0725,-3.0986,-3.0973,-3.0451,-3.124,-3.3059,-3.2637,-3.3537,-3.5359,-3.5439,0.0,0.0,-3.525,-3.513,-3.4637,-3.5265,-3.5504,-3.5619,-3.6845,-3.737,-3.7605,-3.8788,-3.9272,-3.9272,-3.9272,-3.9272,-3.9272,-3.9272,-3.9986,-4.0802,-4.0802,-4.1604,-4.2573,-4.3322,-4.3554,-4.3936,-4.5189,-4.5581,-4.5826,-4.6443,-4.7225,-4.776,-4.776,-4.8373,-4.8909,-4.8909,-4.8909,-4.9108,-4.9693,-5.0439,-5.0862,-5.0659,-5.1257,-5.143,-5.07,-5.0336,-5.0212,-5.0329,-5.0629,-5.0856,-5.099,-5.1029,-5.105,-5.1039,-5.1148,-5.1218,-5.1285,-5.1336,-5.1355,-5.1302,-5.2937,-5.3778,-5.3859,-5.5365,-5.6137,-3.7817,-3.788,-3.7685,-3.7466,-3.7372,-3.6644,-3.4157,0.0,-3.3334,-3.081,-3.0508,-3.0588,-3.0379,-2.9205,-2.8235,0.0,0.0,0.0,-2.7263,-2.6972,-2.7155,-2.8219,-2.6909,0.0,0.0,0.0,0.0,0.0,0.0,0.0,-2.779,-2.8742,-2.9274,-2.9274,-2.9497,-2.9627,-2.9627,-2.9849,-2.9967,-2.9954,-3.0135,-3.0895,-3.2103,-3.2345,-3.3106,-3.4292,-3.4292,0.0,0.0,-3.4188,-3.4143,-3.3903,-3.4188,-3.4753,-3.5569,-3.6444,-3.7297,-3.8051,-3.8969,-3.9272,-3.9272,-3.9272,-3.9272,-3.9272,-3.9272,-3.9986,-4.0802,-4.0802,-4.1534,-4.2358,-4.268,-4.2769,-4.3089,-4.4288,-4.4742,-4.5113,-4.6006,-4.6601,-4.6977,-4.6977,-4.7627,-4.8234,-4.8375,-4.8837,-4.9408,-4.9962,-5.0354,-5.0635,-5.0702,-5.1009,-5.1124,-5.0777,-5.0682,-5.0625,-5.0713,-5.091,-5.107,-5.1163,-5.1208,-5.1238,-5.1273,-5.1304,-5.1335,-5.1362,-5.1351,-5.133,-5.1293,-5.292,-5.3713,-5.3732,-5.5318,-5.6089,-3.7059,-3.7307,-3.7317,-3.722,-3.7087,-3.6347,0.0,0.0,-3.3387,-3.083,-3.0608,-3.0694,-2.9997,-2.8614,-2.751,0.0,0.0,-2.5731,-2.6415,-2.6165,-2.6441,0.0,0.0,0.0,0.0,0.0,0.0,0.0,0.0,0.0,0.0,-2.832,-2.8765,-2.8765,-2.8922,-2.9013,-2.9013,-2.9196,-2.9274,-2.9274,-2.9776,-3.0499,-3.1453,-3.1933,-3.2658,-3.3499,0.0,0.0,0.0,-3.341,-3.338,-3.3215,-3.3425,-3.4167,-3.521,-3.6075,-3.7102,-3.8131,-3.9011,-3.9272,-3.9272,-3.9272,-3.9272,-3.9272,-3.9272,-3.9986,-4.0802,-4.0802,-4.1534,-4.2287,-4.2287,-4.2287,-4.2553,-4.3472,-4.3887,-4.4345,-4.5303,-4.5904,-4.6251,-4.6251,-4.7141,-4.7927,-4.816,-4.8915,-4.9561,-4.9839,-5.0125,-5.0329,-5.0354,-5.0601,-5.0812,-5.0831,-5.0909,-5.096,-5.0962,-5.1045,-5.116,-5.1256,-5.1307,-5.1339,-5.1406,-5.1406,-5.1382,-5.1362,-5.1307,-5.1273,-5.1235,-5.284,-5.3594,-5.3614,-5.5149,-5.5827,-3.6061,-3.6808,-3.7356,-3.7087,-3.6533,-3.5762,0.0,-3.3631,-3.2739,-3.0943,-3.0629,-3.0238,-2.9126,-2.8071,-2.6983,-2.5725,-2.5078,0.0,-2.6158,-2.5698,-2.5814,0.0,0.0,0.0,0.0,0.0,0.0,0.0,0.0,0.0,0.0,-2.7536,-2.7549,-2.7549,-2.8098,-2.8386,-2.8386,-2.8987,-2.9274,-2.9274,-2.9402,-3.0141,-3.1425,-3.1458,-3.2217,0.0,0.0,0.0,0.0,-3.323,-3.311,-3.2587,-3.3245,-3.3819,-3.4503,-3.5886,-3.6741,-3.7426,-3.883,-3.9272,-3.9272,-3.9272,-3.9272,-3.9272,-3.9272,-3.9986,-4.0802,-4.0802,-4.1534,-4.2287,-4.2287,-4.2287,-4.2432,-4.3068,-4.3321,-4.356,-4.4195,-4.5057,-4.5706,-4.5706,-4.7057,-4.8235,-4.8352,-4.9107,-4.9554,-4.9171,-4.9848,-5.018,-4.9581,-5.0272,-5.0831,-5.0892,-5.1014,-5.1095,-5.1093,-5.1167,-5.1261,-5.1385,-5.1406,-5.1406,-5.1406,-5.1406,-5.1377,-5.1304,-5.1293,-5.1235,-5.1119,-5.2782,-5.3575,-5.3536,-5.494,-5.5477,-3.5946,-3.6208,-3.6053,-3.6002,-3.5531,-3.4785,-3.3481,-3.3437,-3.3048,-3.1034,-3.1252,-3.1265,-2.952,-2.8753,-2.8053,-2.7013,-2.5877,0.0,0.0,0.0,0.0,-2.6622,0.0,0.0,0.0,0.0,0.0,0.0,0.0,0.0,0.0,-2.7469,-2.7523,-2.7523,-2.7706,-2.7798,-2.7798,-2.7994,-2.8276,-2.8732,-2.9224,-2.9912,-3.0812,-3.1292,0.0,0.0,0.0,0.0,0.0,-3.2078,-3.2033,-3.1869,-3.2513,-3.3403,-3.4471,-3.579,-3.6945,-3.8015,-3.897,-3.9272,-3.9272,-3.9272,-3.9272,-3.9272,-3.9272,-3.9986,-4.0943,-4.164,-4.2044,-4.2328,-4.2405,-4.2445,-4.2548,-4.2957,-4.3266,-4.359,-4.3986,-4.4501,-4.4862,-4.4862,-4.5848,-4.669,-4.6972,-4.7781,-4.8439,-4.8529,-4.8794,-4.9116,-4.9514,-4.9837,-5.0298,-5.0974,-5.112,-5.1175,-5.117,-5.1268,-5.1343,-5.1406,-5.1406,-5.1385,-5.1316,-5.1325,-5.1297,-5.1229,-5.1184,-5.1138,-5.1099,-5.2144,-5.314,-5.415,-5.5149,-5.5361,0.0,-3.5105,-3.5078,-3.5078,-3.4703,0.0,0.0,-3.3067,-3.2588,-3.0885,-3.1142,-3.1068,-2.9307,-2.8746,-2.8239,-2.7183,-2.6088,0.0,0.0,0.0,0.0,0.0,0.0,0.0,0.0,0.0,0.0,0.0,0.0,0.0,0.0,-2.7268,-2.7335,-2.7403,-2.7469,-2.7523,-2.7523,-2.7523,-2.7842,-2.8481,-2.9205,-2.9827,-3.0524,-3.1219,0.0,0.0,0.0,0.0,0.0,-3.1482,-3.1482,-3.1582,-3.2176,-3.3014,-3.4064,-3.5626,-3.6852,-3.793,-3.8941,-3.9272,-3.9325,-3.9379,-3.9432,-3.947,-3.9548,-4.0161,-4.1047,-4.2103,-4.2369,-4.2409,-4.2526,-4.2526,-4.2627,-4.292,-4.3318,-4.3689,-4.3999,-4.4374,-4.4659,-4.4659,-4.5406,-4.6114,-4.6459,-4.7256,-4.7838,-4.7857,-4.8118,-4.8419,-4.8632,-4.8976,-4.9436,-5.0055,-5.0187,-5.0236,-5.0291,-5.0964,-5.14,-5.1406,-5.1379,-5.1345,-5.1289,-5.1273,-5.1228,-5.1159,-5.1125,-5.108,-5.1041,-5.2039,-5.3109,-5.4223,-5.4977,-5.5053,0.0,-3.3713,-3.4284,-3.4284,-3.4003,0.0,0.0,0.0,0.0,-3.0674,-3.0411,-2.9992,-2.8741,-2.8348,-2.7723,-2.6387,-2.5836,0.0,0.0,-2.6202,0.0,0.0,0.0,0.0,0.0,0.0,0.0,0.0,0.0,0.0,0.0,-2.7024,-2.7079,-2.7268,-2.7403,-2.7456,-2.7523,-2.7523,-2.7908,-2.8597,-2.9268,-2.995,-3.0584,-3.1219,0.0,0.0,0.0,0.0,0.0,-3.1482,-3.1482,-3.1582,-3.2231,-3.2734,-3.3461,-3.5517,-3.6593,-3.7235,-3.8692,-3.9172,-3.9176,-3.9348,-3.954,-3.9732,-3.9951,-4.044,-4.115,-4.2205,-4.2548,-4.2609,-4.2609,-4.2609,-4.267,-4.292,-4.3406,-4.3881,-4.4114,-4.4549,-4.4895,-4.4895,-4.5583,-4.6235,-4.6529,-4.7222,-4.7568,-4.7071,-4.7695,-4.7947,-4.7192,-4.7811,-4.8353,-4.8493,-4.8561,-4.8652,-4.8783,-5.0288,-5.125,-5.1308,-5.1249,-5.1242,-5.1293,-5.1235,-5.1157,-5.1099,-5.1099,-5.1022,-5.0906,-5.2357,-5.3289,-5.3754,-5.442,-5.4597,-3.2245,0.0,-3.3182,-3.3287,-3.2895,-3.2259,0.0,0.0,0.0,0.0,0.0,-3.054,-2.899,-2.909,-2.8771,-2.7085,-2.6388,-2.6339,-2.7122,0.0,0.0,0.0,0.0,0.0,0.0,0.0,0.0,0.0,0.0,0.0,0.0,-2.6943,-2.7079,-2.7268,-2.7335,-2.7403,-2.7523,-2.8039,-2.8597,-2.9268,-2.995,-3.0644,-3.1278,-3.1409,0.0,0.0,0.0,0.0,-3.1482,-3.1482,-3.1482,-3.1582,-3.2625,-3.3093,-3.3514,-3.5999,-3.6621,-3.6473,-3.7947,-3.8096,-3.7698,-3.8417,-3.9122,-3.9782,-4.0195,-4.0659,-4.1258,-4.2292,-4.257,-4.2609,-4.2745,-4.2745,-4.2765,-4.29,-4.3406,-4.3881,-4.3943,-4.4476,-4.4895,-4.4895,-4.5185,-4.5475,-4.5543,-4.588,-4.61,-4.5973,-4.6205,-4.6573,-4.7038,-4.727,-4.7695,-4.8426,-4.856,-4.8641,-4.879,-4.9214,-4.9766,-5.0449,-5.0476,-5.0692,-5.1192,-5.1215,-5.1119,-5.0964,-5.0964,-5.0945,-5.0906,-5.1921,-5.2261,-5.2016,-5.3448,-5.3898,-3.2673,-3.2779,-3.29,-3.2956,-3.2762,-3.227,-3.1602,0.0,0.0,0.0,0.0,-3.0377,-2.9119,-2.9868,-3.0011,-2.8033,-2.77,0.0,0.0,0.0,0.0,0.0,0.0,0.0,0.0,0.0,0.0,0.0,0.0,0.0,0.0,-2.6739,-2.6875,-2.7146,-2.7443,-2.7696,-2.7973,-2.8287,-2.8967,-2.995,-3.0329,-3.0837,-3.1482,-3.1482,-3.1482,0.0,0.0,0.0,-3.1482,-3.1482,-3.164,-3.2023,-3.2879,-3.3355,-3.3877,-3.5859,-3.639,-3.6273,-3.7419,-3.7602,-3.7469,-3.792,-3.8455,-3.9041,-3.9802,-4.0406,-4.0999,-4.2062,-4.2552,-4.2747,-4.2842,-4.2842,-4.2842,-4.2882,-4.3301,-4.3721,-4.3881,-4.4318,-4.4707,-4.487,-4.501,-4.5103,-4.5192,-4.532,-4.5456,-4.558,-4.5661,-4.5896,-4.6438,-4.6496,-4.6689,-4.7207,-4.7361,-4.7451,-4.7545,-4.7614,-4.8223,-4.9512,-4.9551,-4.966,-5.0031,-4.9997,-5.0094,-5.0345,-5.0712,-5.0906,-5.0906,-5.1655,-5.1876,-5.1606,-5.3173,-5.3688,-3.3376,-3.3276,-3.3154,-3.3107,-3.3017,-3.2836,-3.2128,0.0,0.0,0.0,0.0,0.0,0.0,-3.0479,0.0,0.0,0.0,0.0,0.0,0.0,0.0,0.0,0.0,0.0,0.0,0.0,0.0,0.0,0.0,0.0,0.0,-2.6533,-2.6671,-2.7024,-2.7617,-2.8195,-2.8661,-2.8725,-2.9407,-3.0524,-3.0584,-3.097,-3.1482,-3.1482,-3.1482,0.0,0.0,0.0,-3.1539,-3.1582,-3.1966,-3.2437,-3.3108,-3.3646,-3.4232,-3.5531,-3.6024,-3.6121,-3.6753,-3.725,-3.7545,-3.7663,-3.7877,-3.8306,-3.9414,-4.0155,-4.076,-4.1722,-4.2454,-4.2882,-4.2882,-4.2882,-4.2882,-4.2882,-4.3142,-4.349,-4.3818,-4.4154,-4.4484,-4.4827,-4.4895,-4.4943,-4.5125,-4.517,-4.5279,-4.5528,-4.5596,-4.5645,-4.5766,-4.58,-4.58,-4.58,-4.593,-4.6041,-4.6091,-4.617,-4.6855,-4.8418,-4.8516,-4.8576,-4.867,-4.8561,-4.8894,-4.9687,-5.0384,-5.079,-5.0906,-5.1412,-5.1645,-5.1663,-5.2962,-5.3499,-3.3066,-3.3454,-3.3787,-3.3484,-3.3227,-3.2803,-3.2152,0.0,0.0,0.0,0.0,0.0,0.0,-3.0255,-2.9581,0.0,0.0,0.0,0.0,0.0,0.0,0.0,0.0,0.0,0.0,0.0,0.0,0.0,0.0,0.0,0.0,-2.6533,-2.6671,-2.7024,-2.7617,-2.8427,-2.9331,-2.9903,-3.0269,-3.0524,-3.1087,-3.1409,-3.1482,-3.1482,-3.1482,0.0,0.0,-3.1482,-3.1539,-3.2079,-3.2342,-3.2492,-3.3559,-3.4034,-3.4232,-3.5531,-3.5708,-3.5288,-3.5546,-3.6139,-3.6855,-3.7494,-3.8215,-3.8954,-3.9781,-4.0659,-4.1385,-4.1552,-4.2239,-4.2882,-4.2882,-4.2882,-4.2882,-4.2882,-4.3142,-4.349,-4.3818,-4.4154,-4.4484,-4.4827,-4.4895,-4.4895,-4.4943,-4.5103,-4.5237,-4.5419,-4.5528,-4.5645,-4.5766,-4.58,-4.58,-4.58,-4.593,-4.6021,-4.608,-4.6153,-4.6348,-4.668,-4.7363,-4.8013,-4.8596,-4.8541,-4.8875,-4.9687,-4.9823,-5.0229,-5.0906,-5.099,-5.0947,-5.0818,-5.1699,-5.226,-3.387,-3.4076,-3.4237,-3.4139,-3.3849,-3.3484,-3.317,-3.2811,0.0,0.0,0.0,0.0,0.0,0.0,0.0,0.0,0.0,0.0,0.0,0.0,0.0,0.0,0.0,0.0,0.0,0.0,0.0,0.0,0.0,0.0,0.0,0.0,-2.685,-2.7497,-2.7809,-2.8505,-2.9511,-2.9856,-3.0336,-3.1029,-3.1708,-3.1884,-3.1482,-3.1898,-3.1869,-3.1482,0.0,-3.1697,-3.2023,-3.2287,-3.2765,-3.3351,-3.3899,-3.43,-3.474,-3.5471,-3.5546,-3.5337,-3.5412,-3.5992,-3.6844,-3.7557,-3.8077,-3.8616,-3.9732,-4.0461,-4.0998,-4.1376,-4.218,-4.2882,-4.2882,-4.2882,-4.2882,-4.2882,-4.3014,-4.3266,-4.3786,-4.4035,-4.427,-4.4802,-4.4895,-4.4895,-4.4895,-4.4986,-4.5084,-4.5279,-4.5419,-4.5545,-4.5677,-4.5771,-4.58,-4.58,-4.5858,-4.5949,-4.6085,-4.6135,-4.6195,-4.6289,-4.668,-4.7029,-4.7283,-4.7738,-4.829,-4.9045,-4.9498,-5.0136,-5.0906,-5.0906,-5.0839,-5.0791,-5.1622,-5.2279,-3.4496,-3.4428,-3.4346,-3.4496,-3.42,-3.3982,-3.4265,-3.394,0.0,0.0,0.0,0.0,0.0,0.0,0.0,0.0,0.0,0.0,0.0,0.0,0.0,0.0,0.0,0.0,0.0,0.0,0.0,0.0,0.0,0.0,0.0,0.0,-2.7229,-2.8182,-2.8373,-2.8806,-2.9508,-2.9696,-3.0223,-3.1091,-3.1584,-3.1719,-3.1482,-3.1884,-3.2018,-3.1973,-3.1775,-3.2042,-3.2613,-3.2773,-3.3335,-3.4134,-3.43,-3.4691,-3.5198,-3.54,-3.5492,-3.5492,-3.5594,-3.6129,-3.6907,-3.7669,-3.8024,-3.8396,-3.9831,-4.0435,-4.0787,-4.1454,-4.2279,-4.2882,-4.2882,-4.2882,-4.2882,-4.2882,-4.2882,-4.305,-4.3656,-4.3849,-4.4065,-4.4681,-4.4846,-4.4895,-4.4895,-4.4895,-4.4967,-4.517,-4.5301,-4.5438,-4.558,-4.5708,-4.58,-4.58,-4.58,-4.5866,-4.608,-4.6099,-4.6179,-4.6289,-4.6308,-4.6269,-4.6191,-4.6846,-4.7517,-4.8186,-4.9045,-4.9865,-5.0616,-5.0809,-5.0906,-5.0925,-5.1583,-5.2217,-3.3965,-3.3965,-3.3965,-3.3965,-3.3749,0.0,-3.503,-3.5289,0.0,-3.5575,0.0,0.0,0.0,0.0,0.0,0.0,0.0,0.0,0.0,0.0,0.0,0.0,0.0,0.0,0.0,0.0,0.0,0.0,0.0,0.0,0.0,0.0,0.0,-2.8876,-2.9524,-2.9729,-2.9522,-3.011,-3.0193,-2.9729,-2.9774,-3.0402,-3.1452,-3.0926,-3.1644,-3.3351,-3.2612,-3.2696,-3.3388,-3.3886,-3.4136,-3.4235,-3.493,-3.5245,-3.5291,-3.5446,-3.5492,-3.5492,-3.5594,-3.6129,-3.6907,-3.7669,-3.8362,-3.9154,-4.0388,-4.1059,-4.1499,-4.2015,-4.2498,-4.2882,-4.2882,-4.2882,-4.2882,-4.2882,-4.2882,-4.2976,-4.3371,-4.3689,-4.4004,-4.4374,-4.4681,-4.4895,-4.4895,-4.4895,-4.4967,-4.517,-4.5301,-4.5438,-4.558,-4.5708,-4.58,-4.58,-4.58,-4.5866,-4.6068,-4.6167,-4.621,-4.6308,-4.6308,-4.6269,-4.6191,-4.6268,-4.6608,-4.7272,-4.8147,-4.8976,-4.9784,-5.0538,-5.0906,-5.0906,-5.0964,-5.1312,-3.3896,-3.3896,-3.3896,-3.3896,-3.3532,0.0,0.0,-3.5362,-3.5141,-3.5224,-3.5118,0.0,0.0,0.0,0.0,0.0,0.0,0.0,0.0,0.0,0.0,0.0,0.0,0.0,0.0,0.0,0.0,0.0,0.0,0.0,0.0,0.0,0.0,-2.9566,-2.9444,-2.9434,-2.9537,-2.9411,-2.8981,-2.8353,-2.9564,-3.0223,-3.0328,-3.0447,-3.0702,-3.1102,-3.154,-3.216,-3.2856,-3.3804,-3.4496,-3.493,-3.5291,-3.5446,-3.5446,-3.552,-3.5549,-3.5549,-3.5577,-3.6129,-3.6907,-3.7669,-3.8396,-3.9221,-4.0435,-4.1139,-4.1613,-4.2074,-4.2555,-4.2882,-4.2882,-4.2882,-4.2882,-4.2882,-4.2882,-4.305,-4.359,-4.3818,-4.4065,-4.4629,-4.4802,-4.4895,-4.4895,-4.4895,-4.4938,-4.4991,-4.5173,-4.5321,-4.5456,-4.5596,-4.5708,-4.58,-4.5858,-4.597,-4.603,-4.6147,-4.6211,-4.623,-4.6289,-4.6289,-4.6269,-4.6269,-4.6618,-4.7373,-4.762,-4.8411,-4.9769,-5.002,-5.0422,-5.0906,-5.0906,-5.1302,-3.3937,-3.3937,-3.398,-3.418,0.0,0.0,-3.5478,-3.5371,-3.4986,-3.5234,-3.4656,0.0,0.0,0.0,0.0,0.0,0.0,0.0,0.0,0.0,0.0,0.0,0.0,0.0,0.0,0.0,0.0,0.0,0.0,0.0,0.0,0.0,0.0,0.0,-2.9911,-2.9709,-2.9579,-2.9131,-2.8457,-2.764,-2.8936,-2.9579,-2.9594,-2.9804,-3.0108,-3.0507,-3.1043,-3.1813,-3.2673,-3.3501,-3.4303,-3.5093,-3.5419,-3.552,-3.552,-3.5577,-3.5622,-3.5622,-3.5622,-3.6129,-3.6857,-3.7381,-3.8058,-3.8914,-4.0262,-4.0882,-4.1314,-4.2167,-4.2634,-4.2882,-4.2882,-4.2882,-4.2882,-4.2882,-4.2882,-4.3014,-4.3508,-4.3754,-4.4035,-4.4503,-4.4751,-4.4895,-4.4895,-4.4895,-4.4895,-4.4895,-4.508,-4.5235,-4.5341,-4.5493,-4.5645,-4.58,-4.5877,-4.5949,-4.6007,-4.608,-4.615,-4.6191,-4.623,-4.6289,-4.6308,-4.6308,-4.6543,-4.707,-4.7275,-4.8033,-4.9382,-4.9614,-5.0117,-5.0906,-5.0906,-5.1215,-3.407,-3.4085,-3.4229,0.0,0.0,0.0,-3.5784,-3.5538,-3.5263,-3.6208,0.0,-3.2216,-3.1612,0.0,0.0,0.0,0.0,0.0,0.0,0.0,0.0,0.0,0.0,0.0,0.0,0.0,0.0,0.0,0.0,0.0,0.0,0.0,0.0,0.0,-3.1234,-3.0783,-2.9609,-2.9579,-2.8906,-2.7625,-2.7625,-2.8278,-2.9549,-2.8891,-2.9947,-3.2204,-3.1444,-3.1837,-3.2999,-3.3056,-3.3648,-3.4573,-3.5318,-3.556,-3.5622,-3.5622,-3.5622,-3.5622,-3.5622,-3.6129,-3.6772,-3.6772,-3.728,-3.8197,-3.987,-4.0401,-4.0711,-4.24,-4.2864,-4.2882,-4.2882,-4.2882,-4.2882,-4.2882,-4.2882,-4.2882,-4.2882,-4.344,-4.3912,-4.3912,-4.443,-4.4895,-4.4895,-4.4895,-4.4895,-4.4895,-4.508,-4.5192,-4.5192,-4.5419,-4.5645,-4.58,-4.58,-4.5838,-4.5988,-4.6007,-4.6066,-4.619,-4.6191,-4.623,-4.6308,-4.6308,-4.6269,-4.6191,-4.7051,-4.7821,-4.8498,-4.9363,-5.0175,-5.0906,-5.0906,-5.0906,-3.362,-3.4154,0.0,-3.5047,0.0,0.0,0.0,-3.5539,0.0,0.0,0.0,0.0,0.0,0.0,0.0,0.0,0.0,0.0,0.0,0.0,0.0,0.0,0.0,0.0,0.0,0.0,0.0,0.0,0.0,0.0,0.0,0.0,0.0,0.0,-3.1292,-3.0934,-3.0238,-2.9804,-2.9146,-2.8293,-2.8293,-2.8248,-2.821,-2.8338,-2.8801,-2.957,-3.0656,-3.1329,-3.1798,-3.2871,-3.3803,-3.4506,-3.4742,-3.5148,-3.5622,-3.5622,-3.5622,-3.5622,-3.5622,-3.5774,-3.6045,-3.6603,-3.6924,-3.7415,-3.9068,-3.955,-3.9794,-4.0905,-4.1633,-4.2067,-4.2067,-4.2484,-4.2882,-4.2882,-4.2882,-4.2957,-4.3213,-4.359,-4.3974,-4.4213,-4.4584,-4.4895,-4.4895,-4.4895,-4.4895,-4.4895,-4.4943,-4.5084,-4.5301,-4.5493,-4.5645,-4.58,-4.58,-4.5819,-4.5858,-4.5949,-4.6016,-4.6066,-4.614,-4.623,-4.6308,-4.6308,-4.6289,-4.6269,-4.6484,-4.6988,-4.7791,-4.8538,-4.9305,-5.0155,-5.0658,-5.0906,-3.5088,-3.5594,0.0,-3.6402,-3.691,-3.7119,-3.6563,0.0,0.0,0.0,0.0,0.0,0.0,0.0,0.0,0.0,0.0,0.0,0.0,0.0,0.0,0.0,0.0,0.0,0.0,0.0,0.0,0.0,0.0,0.0,0.0,0.0,0.0,0.0,-3.1351,-3.1081,-3.0507,-2.9894,-2.925,-2.8607,-2.8607,-2.8523,-2.8388,-2.8897,-2.9399,-2.9943,-3.1332,-3.199,-3.211,-3.3354,-3.3931,-3.4117,-3.4709,-3.503,-3.5199,-3.5504,-3.5622,-3.5622,-3.5622,-3.5622,-3.569,-3.6389,-3.6587,-3.6911,-3.8497,-3.8987,-3.9199,-4.0221,-4.1089,-4.1723,-4.1723,-4.2303,-4.2882,-4.2882,-4.2882,-4.2957,-4.3142,-4.3557,-4.3974,-4.4154,-4.4584,-4.4895,-4.4895,-4.4895,-4.4895,-4.4895,-4.4895,-4.5019,-4.5361,-4.5456,-4.5596,-4.5786,-4.58,-4.58,-4.58,-4.5858,-4.5949,-4.6007,-4.6102,-4.6195,-4.6269,-4.6289,-4.6308,-4.6308,-4.6269,-4.666,-4.75,-4.7905,-4.8705,-4.985,-5.0271,-5.0639,-3.7389,0.0,0.0,-3.8491,-3.8162,0.0,-3.7143,-3.5596,-3.4072,-3.3508,0.0,0.0,0.0,0.0,0.0,0.0,0.0,0.0,0.0,0.0,0.0,0.0,0.0,0.0,0.0,0.0,0.0,0.0,0.0,0.0,0.0,0.0,0.0,0.0,-3.1409,-3.124,-3.0612,-2.9924,-2.931,0.0,-2.8764,-2.9185,-2.9853,-3.0262,-3.1128,-3.2335,-3.3011,-3.3287,-3.338,-3.409,-3.4032,-3.3643,-3.4996,-3.5131,-3.4675,-3.5284,-3.5554,-3.5605,-3.5537,-3.5554,-3.5739,-3.6174,-3.6343,-3.6613,-3.8135,-3.8629,-3.8901,-4.0005,-4.0926,-4.1596,-4.1524,-4.2085,-4.2665,-4.2665,-4.2774,-4.2882,-4.2882,-4.344,-4.3912,-4.3912,-4.443,-4.4895,-4.4895,-4.4895,-4.4895,-4.4895,-4.4895,-4.5019,-4.5361,-4.54,-4.5493,-4.5766,-4.58,-4.58,-4.58,-4.58,-4.5838,-4.5969,-4.6065,-4.6124,-4.6189,-4.6269,-4.6308,-4.6308,-4.6308,-4.666,-4.7383,-4.7461,-4.825,-4.9688,-4.9761,-5.0229,0.0,-3.7386,0.0,0.0,-3.8181,-3.7653,-3.7599,-3.6094,0.0,0.0,0.0,0.0,0.0,0.0,0.0,0.0,0.0,0.0,0.0,0.0,0.0,0.0,0.0,0.0,0.0,0.0,0.0,0.0,0.0,0.0,0.0,0.0,0.0,-3.1467,-3.1467,-3.1407,-3.1315,-3.0163,-2.9759,0.0,-3.0121,-3.0725,-3.1781,-3.1336,-3.1804,-3.3054,-3.3244,-3.3313,-3.3381,-3.3575,-3.388,-3.4286,-3.4607,-3.4996,-3.5318,-3.4895,-3.5115,-3.5537,-3.4945,-3.5377,-3.6174,-3.6259,-3.6533,-3.6895,-3.7554,-3.8201,-3.8686,-3.8686,-3.9695,-4.0637,-4.0039,-4.0456,-4.1017,-4.1017,-4.1977,-4.2882,-4.2882,-4.344,-4.3912,-4.3912,-4.443,-4.4895,-4.4895,-4.4895,-4.4895,-4.4895,-4.4895,-4.5019,-4.5361,-4.54,-4.5493,-4.5766,-4.58,-4.58,-4.58,-4.58,-4.58,-4.5838,-4.6007,-4.6108,-4.6117,-4.6241,-4.6308,-4.6308,-4.6308,-4.6387,-4.6562,-4.7187,-4.7673,-4.8041,-4.9244,-4.9892,0.0,0.0,0.0,-3.9558,0.0,0.0,0.0,0.0,0.0,0.0,0.0,0.0,0.0,0.0,0.0,0.0,0.0,0.0,0.0,0.0,0.0,0.0,0.0,0.0,0.0,0.0,0.0,0.0,0.0,0.0,0.0,-3.1132,-3.1307,-3.1482,-3.1482,-3.1482,-3.1482,-3.0522,-3.0343,-3.1043,-3.1034,-3.1915,-3.347,-3.337,-3.3677,-3.4347,-3.4374,-3.4445,-3.4455,-3.4455,-3.4472,-3.4523,-3.4895,-3.5064,-3.5081,-3.5047,-3.5284,-3.5504,-3.4759,-3.5284,-3.6274,-3.6099,-3.6562,-3.7354,-3.8169,-3.8708,-3.9068,-3.9227,-4.0166,-4.0999,-4.06,-4.1071,-4.1651,-4.1651,-4.1995,-4.2358,-4.2541,-4.3247,-4.3943,-4.4125,-4.4557,-4.4895,-4.4895,-4.4895,-4.4895,-4.4895,-4.4895,-4.5019,-4.5361,-4.54,-4.5493,-4.5766,-4.58,-4.58,-4.58,-4.58,-4.58,-4.58,-4.5969,-4.6065,-4.6091,-4.6198,-4.6269,-4.6308,-4.6308,-4.6308,-4.6308,-4.6719,-4.7148,-4.7578,-4.874,-4.9469,0.0,0.0,-4.0524,0.0,0.0,0.0,0.0,0.0,0.0,0.0,0.0,0.0,0.0,0.0,0.0,0.0,0.0,0.0,0.0,0.0,0.0,0.0,0.0,0.0,0.0,0.0,0.0,0.0,0.0,0.0,-3.1132,-3.1452,-3.161,-3.164,-3.164,-3.1697,-3.1796,-3.1061,-3.1089,-3.1893,-3.205,-3.3038,-3.4783,-3.5304,-3.5537,-3.5537,-3.5594,-3.5622,-3.5622,-3.5622,-3.525,-3.4742,-3.5368,-3.5233,-3.4742,-3.525,-3.5504,-3.5504,-3.4607,-3.5207,-3.6329,-3.5906,-3.6626,-3.7829,-3.8883,-3.9369,-3.9695,-4.0184,-4.0999,-4.165,-4.1542,-4.1995,-4.2484,-4.2484,-4.2122,-4.1905,-4.231,-4.3208,-4.4004,-4.4327,-4.4681,-4.4895,-4.4895,-4.4895,-4.4895,-4.4895,-4.4895,-4.5019,-4.5361,-4.54,-4.5493,-4.5766,-4.58,-4.58,-4.58,-4.58,-4.58,-4.58,-4.593,-4.6021,-4.6091,-4.6153,-4.623,-4.6308,-4.6308,-4.6308,-4.6308,-4.6308,-4.668,-4.7402,-4.8281,-4.9045,0.0,0.0,0.0,0.0,0.0,0.0,0.0,0.0,0.0,0.0,0.0,0.0,0.0,0.0,0.0,0.0,0.0,0.0,0.0,0.0,0.0,0.0,0.0,0.0,0.0,0.0,0.0,0.0,0.0,0.0,-3.1278,-3.2256,-3.2625,-3.2287,-3.2287,-3.2477,-3.2986,-3.1958,-3.2017,-3.3144,-3.3891,-3.4636,-3.547,-3.5577,-3.5577,-3.5577,-3.5577,-3.5622,-3.5622,-3.5622,-3.5554,-3.547,-3.5588,-3.5554,-3.5402,-3.4844,-3.5064,-3.5419,-3.4032,-3.4954,-3.6698,-3.6022,-3.6844,-3.8124,-3.8319,-3.9297,-4.0256,-3.9695,-4.06,-4.156,-4.0854,-4.0745,-4.0836,-4.0836,-4.1484,-4.2344,-4.3094,-4.3582,-4.4004,-4.4327,-4.4681,-4.4895,-4.4895,-4.4895,-4.4895,-4.4895,-4.4895,-4.5019,-4.5361,-4.54,-4.5493,-4.5766,-4.58,-4.58,-4.58,-4.58,-4.58,-4.58,-4.593,-4.604,-4.61,-4.6162,-4.623,-4.6308,-4.6308,-4.6308,-4.6308,-4.6308,-4.6367,-4.6504,-4.8008,-4.8727,-4.0176,0.0,0.0,0.0,0.0,0.0,0.0,0.0,0.0,0.0,0.0,0.0,0.0,0.0,0.0,0.0,0.0,0.0,0.0,0.0,0.0,0.0,0.0,0.0,0.0,0.0,0.0,0.0,0.0,-3.2555,-3.2241,-3.2826,-3.3039,-3.2841,-3.2841,-3.2933,-3.3182,-3.2793,-3.3089,-3.4087,-3.48,-3.5299,-3.5622,-3.5622,-3.5622,-3.5622,-3.5622,-3.5622,-3.5622,-3.5622,-3.5622,-3.5622,-3.5622,-3.5622,-3.5571,-3.525,-3.5334,-3.547,-3.4387,-3.4977,-3.6197,-3.5881,-3.6577,-3.7757,-3.9097,-3.9967,-4.0637,-4.1198,-4.185,-4.2285,-4.194,-4.1832,-4.1832,-4.1832,-4.2357,-4.3033,-4.3582,-4.3924,-4.427,-4.4629,-4.4802,-4.4895,-4.4895,-4.4895,-4.4895,-4.4895,-4.4895,-4.5019,-4.5361,-4.54,-4.5493,-4.5766,-4.58,-4.58,-4.58,-4.58,-4.58,-4.58,-4.5858,-4.593,-4.6046,-4.6103,-4.6175,-4.623,-4.6289,-4.6308,-4.6308,-4.6308,-4.6308,-4.6328,-4.7539,-4.8265,0.0,0.0,0.0,0.0,0.0,0.0,0.0,0.0,0.0,0.0,0.0,0.0,0.0,0.0,0.0,0.0,0.0,0.0,0.0,0.0,0.0,0.0,0.0,0.0,0.0,0.0,0.0,0.0,0.0,-3.3198,-3.3039,-3.3407,-3.3563,-3.3407,-3.3423,-3.3511,-3.3665,-3.3869,-3.4252,-3.4847,-3.5362,-3.5622,-3.5622,-3.5622,-3.5622,-3.5622,-3.5622,-3.5622,-3.5622,-3.5622,-3.5622,-3.5622,-3.5622,-3.5622,-3.5622,-3.5622,-3.5622,-3.5504,-3.4873,-3.5128,-3.5741,-3.5909,-3.6416,-3.7341,-3.9315,-4.0202,-4.0727,-4.1723,-4.2285,-4.2538,-4.2339,-4.2429,-4.263,-4.2705,-4.2973,-4.3383,-4.3918,-4.4299,-4.461,-4.4846,-4.4895,-4.4895,-4.4895,-4.4895,-4.4895,-4.4895,-4.4943,-4.5084,-4.5361,-4.5438,-4.5545,-4.5766,-4.58,-4.58,-4.58,-4.58,-4.58,-4.58,-4.58,-4.5858,-4.6027,-4.6074,-4.615,-4.6211,-4.6269,-4.6308,-4.6308,-4.6308,-4.6308,-4.6328,-4.7422,-4.8177,0.0,0.0,0.0,0.0,0.0,0.0,0.0,0.0,0.0,0.0,0.0,0.0,0.0,0.0,0.0,0.0,0.0,0.0,0.0,0.0,0.0,0.0,0.0,0.0,0.0,0.0,0.0,0.0,0.0,-3.4218,-3.3251,-3.4202,-3.4594,-3.4101,-3.405,-3.4349,-3.4977,-3.5245,-3.5458,-3.556,-3.5577,-3.5622,-3.5622,-3.5622,-3.5622,-3.5622,-3.5622,-3.5622,-3.5622,-3.5622,-3.5622,-3.5622,-3.5622,-3.5622,-3.5622,-3.5622,-3.5622,-3.5548,-3.5256,-3.5409,-3.5761,-3.6203,-3.6676,-3.7192,-3.8047,-3.9351,-4.0383,-3.9749,-4.0637,-4.1615,-4.0836,-4.1198,-4.1833,-4.2166,-4.2498,-4.3032,-4.4149,-4.4655,-4.487,-4.4895,-4.4895,-4.4895,-4.4895,-4.4895,-4.4895,-4.4895,-4.5061,-4.5256,-4.5381,-4.551,-4.5645,-4.5766,-4.58,-4.58,-4.58,-4.58,-4.58,-4.58,-4.58,-4.5877,-4.6085,-4.6098,-4.6153,-4.6289,-4.6308,-4.6308,-4.6308,-4.6308,-4.6308,-4.6348,-4.8047,-4.8781,0.0,0.0,0.0,0.0,0.0,0.0,0.0,0.0,0.0,0.0,0.0,0.0,0.0,0.0,0.0,0.0,0.0,0.0,0.0,0.0,0.0,0.0,0.0,0.0,0.0,0.0,0.0,0.0,0.0,0.0,-3.4317,-3.4691,-3.4787,-3.4594,-3.4691,-3.4947,-3.5337,-3.5446,-3.552,-3.5622,-3.5622,-3.5622,-3.5622,-3.5622,-3.5622,-3.5622,-3.5622,-3.5622,-3.5622,-3.5622,-3.5622,-3.5622,-3.5622,-3.5622,-3.5622,-3.5622,-3.5783,-3.6054,-3.5949,-3.5968,-3.6184,-3.688,-3.7072,-3.7265,-3.8554,-3.9351,-3.984,-4.0057,-4.051,-4.0999,-4.1234,-4.1632,-4.2289,-4.3367,-4.3706,-4.3962,-4.458,-4.4802,-4.4895,-4.4895,-4.4895,-4.4895,-4.4895,-4.4895,-4.4943,-4.5061,-4.5148,-4.5279,-4.5493,-4.558,-4.5645,-4.58,-4.58,-4.58,-4.58,-4.58,-4.58,-4.58,-4.5877,-4.5969,-4.6027,-4.6123,-4.6196,-4.6221,-4.6287,-4.6308,-4.6308,-4.6308,-4.6308,-4.6328,-4.7514,-4.8268,-4.0524,0.0,0.0,0.0,0.0,0.0,0.0,0.0,0.0,0.0,0.0,0.0,0.0,0.0,0.0,0.0,0.0,0.0,0.0,0.0,0.0,0.0,0.0,0.0,0.0,0.0,0.0,0.0,0.0,0.0,-3.5247,-3.5263,-3.5263,-3.5311,-3.5238,-3.5291,-3.5492,-3.552,-3.5549,-3.5622,-3.5622,-3.5622,-3.5622,-3.5622,-3.5622,-3.5622,-3.5622,-3.5622,-3.5622,-3.5622,-3.5622,-3.5622,-3.5622,-3.5622,-3.5622,-3.5783,-3.6045,-3.6343,-3.6597,-3.6544,-3.6488,-3.7721,-3.7608,-3.7286,-3.8898,-3.9387,-3.9441,-3.9677,-4.0111,-4.0582,-4.0854,-4.164,-4.263,-4.3746,-4.4296,-4.4535,-4.4505,-4.4706,-4.4895,-4.4895,-4.4895,-4.4895,-4.4895,-4.4895,-4.4967,-4.517,-4.5256,-4.5341,-4.558,-4.5645,-4.5692,-4.58,-4.58,-4.58,-4.58,-4.58,-4.58,-4.58,-4.593,-4.6009,-4.6038,-4.6138,-4.622,-4.6239,-4.6275,-4.6308,-4.6308,-4.6308,-4.6308,-4.6328,-4.749,-4.8541,0.0,0.0,0.0,0.0,0.0,0.0,0.0,0.0,0.0,0.0,0.0,0.0,0.0,0.0,0.0,0.0,0.0,0.0,0.0,0.0,0.0,0.0,0.0,0.0,0.0,0.0,0.0,0.0,0.0,-3.5297,-3.5959,-3.6025,-3.6074,-3.6204,-3.5663,-3.5371,-3.5492,-3.5549,-3.5622,-3.5622,-3.5622,-3.5622,-3.5622,-3.5622,-3.5622,-3.5622,-3.5622,-3.5622,-3.5622,-3.5622,-3.5622,-3.5622,-3.5622,-3.5622,-3.5667,-3.6131,-3.6301,-3.6451,-3.7246,-3.7006,-3.6684,-3.8722,-3.8301,-3.7323,-3.888,-3.9351,-3.9188,-3.8409,-3.9297,-4.0329,-3.9675,-4.114,-4.2843,-4.3165,-4.4089,-4.4687,-4.391,-4.4345,-4.4895,-4.4895,-4.4895,-4.4895,-4.4895,-4.4895,-4.4986,-4.517,-4.532,-4.5456,-4.5596,-4.5723,-4.58,-4.58,-4.58,-4.58,-4.58,-4.58,-4.58,-4.58,-4.593,-4.6026,-4.6091,-4.6177,-4.6228,-4.6306,-4.6299,-4.6308,-4.6308,-4.6308,-4.6308,-4.6348,-4.8086,-4.9717,-4.0524,0.0,0.0,0.0,0.0,0.0,0.0,0.0,0.0,0.0,0.0,0.0,0.0,0.0,0.0,0.0,0.0,0.0,0.0,0.0,0.0,0.0,0.0,0.0,0.0,0.0,0.0,0.0,-3.7184,-3.692,-3.6059,-3.6506,-3.6655,-3.6365,-3.6164,-3.5937,-3.5594,-3.5577,-3.5622,-3.5622,-3.5622,-3.5622,-3.5622,-3.5622,-3.5622,-3.5622,-3.5622,-3.5622,-3.5622,-3.5622,-3.5622,-3.5622,-3.5622,-3.5783,-3.6131,-3.6259,-3.6678,-3.7208,-3.7432,-3.7578,-3.7749,-3.8339,-3.821,-3.7938,-3.8391,-3.8518,-3.8482,-3.8246,-3.8916,-4.0033,-4.1425,-4.2839,-4.4018,-4.4341,-4.4675,-4.4838,-4.463,-4.4743,-4.4895,-4.4895,-4.4895,-4.4895,-4.4895,-4.5014,-4.5173,-4.5321,-4.5456,-4.5596,-4.5723,-4.5786,-4.58,-4.58,-4.58,-4.58,-4.58,-4.58,-4.58,-4.58,-4.5969,-4.6084,-4.6091,-4.6211,-4.6273,-4.6292,-4.6305,-4.6308,-4.6308,-4.6308,-4.6308,-4.6348,-4.7936,-4.9593,-4.0524,-4.0524,-4.0524,0.0,0.0,0.0,-4.139,-4.1654,0.0,0.0,0.0,0.0,0.0,0.0,0.0,0.0,0.0,0.0,0.0,0.0,0.0,0.0,0.0,0.0,0.0,0.0,0.0,-3.8593,-3.8311,-3.7831,-3.697,-3.7334,-3.7336,-3.685,-3.658,-3.6139,-3.5639,-3.5622,-3.5622,-3.5622,-3.5622,-3.5622,-3.5622,-3.5622,-3.5622,-3.5622,-3.5622,-3.5622,-3.5622,-3.5783,-3.5871,-3.5871,-3.5871,-3.6156,-3.6557,-3.6759,-3.7094,-3.7542,-3.7703,-3.7967,-3.8246,-3.8572,-3.8464,-3.8246,-3.859,-3.8464,-3.8192,-3.8192,-3.9107,-4.0504,-4.2411,-4.3652,-4.4484,-4.4802,-4.4895,-4.4895,-4.4895,-4.4895,-4.4895,-4.4895,-4.4895,-4.4919,-4.4991,-4.5125,-4.5258,-4.5456,-4.5545,-4.5645,-4.5766,-4.58,-4.58,-4.58,-4.58,-4.58,-4.58,-4.58,-4.5819,-4.5877,-4.6027,-4.6113,-4.6144,-4.6241,-4.6308,-4.6308,-4.6308,-4.6308,-4.6308,-4.6308,-4.6484,-4.6875,-4.8078,-4.9368,-4.0555,-4.0524,-4.0593,-4.1003,0.0,0.0,-4.1916,-4.2045,-4.2174,0.0,0.0,0.0,0.0,0.0,0.0,0.0,0.0,0.0,0.0,0.0,0.0,0.0,0.0,0.0,0.0,-4.2244,-4.1309,-4.0448,-3.9023,-3.8245,-3.8328,-3.8328,-3.81,-3.7619,-3.6932,-3.6256,-3.5757,-3.5656,-3.5622,-3.5622,-3.5622,-3.5622,-3.5622,-3.5622,-3.5622,-3.5667,-3.5667,-3.5694,-3.5783,-3.6199,-3.6343,-3.6301,-3.6343,-3.6597,-3.7017,-3.7358,-3.7542,-3.7632,-3.8054,-3.8192,-3.8301,-3.9025,-3.8771,-3.8337,-3.9152,-3.8826,-3.8262,-3.8458,-3.9758,-4.1453,-4.2932,-4.3885,-4.4511,-4.4827,-4.4895,-4.4895,-4.4895,-4.4895,-4.4895,-4.4895,-4.4919,-4.4991,-4.517,-4.5235,-4.5341,-4.5563,-4.5613,-4.5661,-4.5766,-4.58,-4.58,-4.58,-4.58,-4.58,-4.58,-4.58,-4.5858,-4.5988,-4.6065,-4.6143,-4.6201,-4.625,-4.6308,-4.6308,-4.6308,-4.6308,-4.6308,-4.6308,-4.6738,-4.761,-4.8349,-4.9126,0.0,0.0,0.0,0.0,0.0,0.0,-4.1588,-4.1916,-4.2109,0.0,0.0,0.0,0.0,0.0,0.0,0.0,0.0,0.0,0.0,0.0,0.0,0.0,0.0,0.0,0.0,-4.3244,-4.2419,-4.0514,-3.9023,-3.846,-3.904,-3.9073,-3.8883,-3.8422,-3.7685,-3.7045,-3.6552,-3.5926,-3.5622,-3.5622,-3.5622,-3.5622,-3.5622,-3.5622,-3.58,-3.6174,-3.6174,-3.6367,-3.6661,-3.6741,-3.6597,-3.6343,-3.6638,-3.7017,-3.7377,-3.7469,-3.7756,-3.8072,-3.8192,-3.8192,-3.821,-3.8373,-3.8319,-3.8337,-3.9152,-3.8826,-3.8513,-4.0046,-4.11,-4.2173,-4.3736,-4.4497,-4.4802,-4.487,-4.4895,-4.4895,-4.4895,-4.4895,-4.4895,-4.4895,-4.5014,-4.5148,-4.5192,-4.5381,-4.5545,-4.5596,-4.5692,-4.5766,-4.58,-4.58,-4.58,-4.58,-4.58,-4.58,-4.58,-4.5896,-4.5969,-4.6007,-4.6104,-4.6201,-4.6201,-4.625,-4.6308,-4.6308,-4.6308,-4.6308,-4.6308,-4.6308,-4.6726,-4.7539,-4.8283,-4.9054,0.0,0.0,0.0,-4.1456,0.0,0.0,0.0,-4.2238,-4.2365,0.0,0.0,0.0,0.0,0.0,0.0,0.0,0.0,0.0,0.0,0.0,0.0,0.0,0.0,0.0,0.0,-4.3509,-4.2983,-4.1398,-3.9945,-3.9361,-4.002,-4.0037,-3.9848,-3.9307,-3.8931,-3.8334,-3.7482,-3.7025,-3.6646,-3.6266,-3.6266,-3.6266,-3.6266,-3.6266,-3.6392,-3.6597,-3.6597,-3.6701,-3.69,-3.7132,-3.7094,-3.69,-3.7132,-3.7487,-3.7845,-3.7845,-3.7967,-3.8122,-3.8174,-3.814,-3.809,-3.8158,-3.814,-3.8194,-3.8663,-3.8616,-3.8611,-3.9688,-4.0989,-4.2201,-4.3177,-4.4153,-4.4895,-4.4895,-4.4895,-4.4895,-4.4895,-4.4895,-4.4919,-4.5014,-4.5194,-4.53,-4.53,-4.5456,-4.5629,-4.5692,-4.5771,-4.58,-4.58,-4.58,-4.58,-4.58,-4.58,-4.5819,-4.5877,-4.5969,-4.6027,-4.6104,-4.6162,-4.622,-4.6247,-4.6276,-4.6308,-4.6308,-4.6308,-4.6308,-4.6308,-4.6738,-4.6918,-4.6872,-4.8056,-4.88,0.0,0.0,0.0,0.0,0.0,-4.2412,0.0,0.0,0.0,0.0,0.0,0.0,0.0,0.0,0.0,0.0,0.0,0.0,0.0,0.0,0.0,0.0,0.0,0.0,0.0,-4.3405,-4.3086,-4.239,-4.1002,-4.0351,-4.0802,-4.0802,-4.0649,-4.02,-4.0087,-3.946,-3.8345,-3.8186,-3.7712,-3.69,-3.69,-3.69,-3.69,-3.69,-3.6939,-3.7017,-3.7017,-3.7055,-3.717,-3.7469,-3.7596,-3.7596,-3.7596,-3.7845,-3.8174,-3.8158,-3.8054,-3.8002,-3.8106,-3.8056,-3.7952,-3.809,-3.8162,-3.82,-3.8244,-3.8666,-3.9142,-3.9287,-4.0675,-4.2172,-4.2555,-4.3663,-4.4706,-4.4857,-4.4895,-4.4895,-4.4895,-4.4919,-4.501,-4.517,-4.5321,-4.5457,-4.5457,-4.5545,-4.5677,-4.5766,-4.58,-4.58,-4.58,-4.58,-4.58,-4.58,-4.5819,-4.5877,-4.5988,-4.6027,-4.6085,-4.6201,-4.6196,-4.6244,-4.6308,-4.6308,-4.6308,-4.6308,-4.6308,-4.6308,-4.6308,-4.7168,-4.7182,-4.6442,-4.8092,-4.8817,0.0,0.0,0.0,0.0,-4.4043,0.0,0.0,0.0,-4.3739,-4.3306,0.0,0.0,0.0,0.0,0.0,0.0,0.0,0.0,0.0,0.0,0.0,0.0,0.0,0.0,0.0,0.0,-4.2528,-4.2876,-4.1533,-4.0754,-4.0802,-4.0802,-4.0844,-4.0954,-4.0321,-3.9687,-3.9076,-3.845,-3.7712,-3.69,-3.69,-3.69,-3.69,-3.69,-3.7094,-3.7432,-3.7432,-3.7685,-3.8054,-3.7949,-3.7931,-3.7931,-3.7931,-3.7984,-3.8036,-3.7969,-3.7934,-3.7899,-3.7934,-3.7899,-3.7899,-3.7952,-3.842,-3.8923,-3.8569,-3.9632,-4.0937,-4.0592,-4.1399,-4.2536,-4.3341,-4.3682,-4.4023,-4.4724,-4.4895,-4.4895,-4.4895,-4.5057,-4.517,-4.5192,-4.5381,-4.558,-4.558,-4.5692,-4.5766,-4.58,-4.58,-4.58,-4.58,-4.58,-4.58,-4.58,-4.591,-4.5988,-4.6007,-4.6104,-4.6181,-4.6201,-4.6261,-4.6286,-4.6308,-4.6308,-4.6308,-4.6308,-4.6308,-4.6308,-4.6308,-4.7168,-4.7442,-4.722,-4.8942,-4.9683,0.0,0.0,0.0,0.0,0.0,0.0,-4.3602,0.0,-4.3972,0.0,0.0,0.0,0.0,0.0,0.0,0.0,-4.3621,0.0,0.0,0.0,0.0,0.0,0.0,0.0,0.0,0.0,0.0,0.0,0.0,-4.1356,-4.164,-4.1683,-4.1727,-4.1917,-4.1647,-4.122,-4.0613,-4.0313,-3.9564,-3.8347,-3.8347,-3.8115,-3.765,-3.765,-3.7685,-3.7792,-3.7792,-3.788,-3.8003,-3.7969,-3.7951,-3.7951,-3.7863,-3.7845,-3.7951,-3.7899,-3.7846,-3.781,-3.7864,-3.7828,-3.7775,-3.7967,-3.8323,-3.8624,-3.8676,-3.9357,-4.0132,-4.0033,-4.0825,-4.1806,-4.2147,-4.2602,-4.317,-4.4004,-4.4194,-4.435,-4.4943,-4.5148,-4.5256,-4.54,-4.5528,-4.5629,-4.5692,-4.5752,-4.58,-4.58,-4.58,-4.58,-4.58,-4.58,-4.58,-4.58,-4.593,-4.6016,-4.6056,-4.6157,-4.6213,-4.6261,-4.6278,-4.6308,-4.6308,-4.6308,-4.6308,-4.6308,-4.6308,-4.6543,-4.7051,-4.793,-4.8518,-4.883,-4.9563,-4.9823,-4.7885,0.0,0.0,0.0,0.0,0.0,0.0,0.0,0.0,0.0,0.0,0.0,0.0,0.0,0.0,-4.4373,0.0,-4.3478,0.0,0.0,0.0,0.0,0.0,0.0,0.0,0.0,0.0,-4.2828,-4.215,-4.1899,-4.2287,-4.2287,-4.2346,-4.2503,-4.2566,-4.2232,-4.1555,-4.1612,-4.0854,-3.9317,-3.9317,-3.8902,-3.8124,-3.8124,-3.8054,-3.7967,-3.7967,-3.7951,-3.7899,-3.7864,-3.7864,-3.7882,-3.7972,-3.7936,-3.7828,-3.7828,-3.7775,-3.7685,-3.7775,-3.7775,-3.7757,-3.8068,-3.8271,-3.8437,-3.9006,-3.9519,-3.9925,-4.0178,-4.1014,-4.1779,-4.1575,-4.2147,-4.2924,-4.3549,-4.3872,-4.4241,-4.5014,-4.5235,-4.5321,-4.5563,-4.5629,-4.5677,-4.5766,-4.58,-4.58,-4.58,-4.58,-4.58,-4.58,-4.5819,-4.5838,-4.5838,-4.5969,-4.6067,-4.6114,-4.6192,-4.6247,-4.6308,-4.6308,-4.6308,-4.6308,-4.6308,-4.6308,-4.6308,-4.6308,-4.6738,-4.7598,-4.8476,-4.9241,-4.9901,-5.0145,-5.0175,0.0,0.0,0.0,-5.0056,0.0,0.0,0.0,0.0,-4.5247,0.0,0.0,0.0,0.0,0.0,-4.4835,-4.53,-4.4733,0.0,0.0,0.0,0.0,0.0,0.0,0.0,0.0,0.0,0.0,-4.3415,-4.2751,-4.2287,-4.2287,-4.2287,-4.2346,-4.2503,-4.2503,-4.2149,-4.1423,-4.1405,-4.0632,-3.9103,-3.9103,-3.869,-3.7899,-3.7899,-3.7899,-3.7899,-3.7899,-3.7899,-3.7899,-3.7757,-3.7703,-3.7793,-3.8488,-3.829,-3.7631,-3.7631,-3.7631,-3.7613,-3.7631,-3.7792,-3.8018,-3.8318,-3.8382,-3.8624,-3.9797,-4.0704,-4.1434,-4.1957,-4.2743,-4.3265,-4.2536,-4.3019,-4.3663,-4.3682,-4.4289,-4.4905,-4.5148,-4.53,-4.5419,-4.558,-4.5708,-4.578,-4.58,-4.58,-4.58,-4.58,-4.58,-4.58,-4.58,-4.591,-4.5988,-4.5988,-4.6104,-4.6181,-4.6195,-4.6259,-4.6308,-4.6308,-4.6308,-4.6308,-4.6308,-4.6308,-4.6308,-4.6308,-4.6308,-4.6738,-4.7598,-4.8476,-4.9241,-4.9921,-5.0765,-5.1061,0.0,0.0,-5.0215,-4.9519,0.0,0.0,0.0,0.0,0.0,0.0,0.0,0.0,0.0,0.0,-4.5194,-4.5371,-4.4785,-4.4298,0.0,0.0,0.0,0.0,0.0,0.0,0.0,0.0,0.0,-4.2697,-4.2448,-4.2287,0.0,-4.2287,-4.2328,-4.2346,-4.2445,-4.2378,-4.2131,-4.2174,-4.1674,-4.0632,-4.0632,-4.0218,-3.9427,-3.9427,-3.9408,-3.9335,-3.8779,-3.8527,-3.8472,-3.8435,-3.8435,-3.8506,-3.9236,-3.9361,-3.9058,-3.8576,-3.8058,-3.7684,-3.8402,-3.9155,-3.9917,-4.0166,-4.0262,-4.0362,-4.1051,-4.1446,-4.1707,-4.1972,-4.2354,-4.258,-4.2346,-4.255,-4.3004,-4.3672,-4.4037,-4.4467,-4.5285,-4.5493,-4.558,-4.5708,-4.5771,-4.58,-4.58,-4.58,-4.58,-4.58,-4.58,-4.5819,-4.593,-4.5969,-4.6016,-4.6056,-4.615,-4.6201,-4.6201,-4.6265,-4.6308,-4.6308,-4.6308,-4.6308,-4.6308,-4.6308,-4.6562,-4.7148,-4.7168,-4.7871,-4.9316,-4.9523,-5.0024,-5.0766,-5.103,-5.1061,-5.0459,-5.0562,0.0,-4.9821,-4.9235,0.0,-4.8217,0.0,0.0,0.0,0.0,0.0,0.0,0.0,-4.5751,-4.5563,-4.4698,-4.3808,0.0,-4.2676,0.0,0.0,0.0,0.0,0.0,0.0,-4.2287,-4.2287,-4.2287,-4.2287,0.0,0.0,-4.2287,-4.2287,-4.2387,-4.2445,-4.2445,-4.2468,-4.2078,-4.1289,-4.1289,-4.0876,-4.0105,-4.0105,-4.0068,-3.9991,-3.9473,-3.922,-3.92,-3.92,-3.92,-3.9272,-4.0039,-4.0241,-4.0014,-3.9417,-3.8954,-3.8708,-3.9515,-4.0281,-4.0987,-4.1248,-4.1342,-4.1428,-4.1994,-4.2164,-4.2248,-4.2688,-4.2873,-4.2878,-4.2699,-4.2961,-4.3392,-4.3817,-4.4187,-4.4652,-4.543,-4.5596,-4.5645,-4.5766,-4.58,-4.58,-4.58,-4.58,-4.58,-4.58,-4.58,-4.5838,-4.5988,-4.6009,-4.6053,-4.6134,-4.6192,-4.624,-4.624,-4.628,-4.6308,-4.6308,-4.6308,-4.6308,-4.6308,-4.6308,-4.6855,-4.8047,-4.7754,-4.8586,-5.06,-5.0183,-5.0395,-5.115,-5.1111,-5.1041]}]]